<?xml version="1.0" encoding="UTF-8"?>
<gpx xmlns="http://www.topografix.com/GPX/1/1" xmlns:xsi="http://www.w3.org/2001/XMLSchema-instance" version="1.1" xsi:schemaLocation="http://www.topografix.com/GPX/1/1 http://www.topografix.com/GPX/1/1/gpx.xsd">
  <metadata>
    <name>European Aquabike Championships 2023 Menen</name>
  </metadata>
  <trk>
    <name>European Aquabike Championships 2023 Menen</name>
    <trkseg>
      <trkpt lat="50.793873" lon="3.129033">
        <ele>11.148299</ele>
        <time>2023-08-27T08:38:00.000Z</time>
      </trkpt>
      <trkpt lat="50.793653" lon="3.1277">
        <ele>11.148313</ele>
        <time>2023-08-27T08:38:10.000Z</time>
      </trkpt>
      <trkpt lat="50.793627" lon="3.127565">
        <ele>11.187686</ele>
        <time>2023-08-27T08:38:11.000Z</time>
      </trkpt>
      <trkpt lat="50.793447" lon="3.126583">
        <ele>11.585372</ele>
        <time>2023-08-27T08:38:18.000Z</time>
      </trkpt>
      <trkpt lat="50.793646" lon="3.126535">
        <ele>11.703757</ele>
        <time>2023-08-27T08:38:20.000Z</time>
      </trkpt>
      <trkpt lat="50.794063" lon="3.126421">
        <ele>11.963672</ele>
        <time>2023-08-27T08:38:25.000Z</time>
      </trkpt>
      <trkpt lat="50.794253" lon="3.126346">
        <ele>12.092452</ele>
        <time>2023-08-27T08:38:27.000Z</time>
      </trkpt>
      <trkpt lat="50.794926" lon="3.126156">
        <ele>12.582549</ele>
        <time>2023-08-27T08:38:35.000Z</time>
      </trkpt>
      <trkpt lat="50.794888" lon="3.12583">
        <ele>12.753474</ele>
        <time>2023-08-27T08:38:37.000Z</time>
      </trkpt>
      <trkpt lat="50.795448" lon="3.125632">
        <ele>13.204747</ele>
        <time>2023-08-27T08:38:43.000Z</time>
      </trkpt>
      <trkpt lat="50.795796" lon="3.12588">
        <ele>13.510017</ele>
        <time>2023-08-27T08:38:47.000Z</time>
      </trkpt>
      <trkpt lat="50.79592" lon="3.125998">
        <ele>13.626426</ele>
        <time>2023-08-27T08:38:49.000Z</time>
      </trkpt>
      <trkpt lat="50.796558" lon="3.126464">
        <ele>13.87882</ele>
        <time>2023-08-27T08:38:57.000Z</time>
      </trkpt>
      <trkpt lat="50.79656" lon="3.126464">
        <ele>13.878823</ele>
        <time>2023-08-27T08:38:57.000Z</time>
      </trkpt>
      <trkpt lat="50.796544" lon="3.126464">
        <ele>13.878813</ele>
        <time>2023-08-27T08:38:57.000Z</time>
      </trkpt>
      <trkpt lat="50.796657" lon="3.126448">
        <ele>13.91402</ele>
        <time>2023-08-27T08:38:58.000Z</time>
      </trkpt>
      <trkpt lat="50.796669" lon="3.126448">
        <ele>13.914019</ele>
        <time>2023-08-27T08:38:58.000Z</time>
      </trkpt>
      <trkpt lat="50.796663" lon="3.126445">
        <ele>13.914013</ele>
        <time>2023-08-27T08:38:58.000Z</time>
      </trkpt>
      <trkpt lat="50.796741" lon="3.126369">
        <ele>13.941303</ele>
        <time>2023-08-27T08:38:59.000Z</time>
      </trkpt>
      <trkpt lat="50.796737" lon="3.126361">
        <ele>13.941303</ele>
        <time>2023-08-27T08:38:59.000Z</time>
      </trkpt>
      <trkpt lat="50.796855" lon="3.126367">
        <ele>13.977177</ele>
        <time>2023-08-27T08:39:00.000Z</time>
      </trkpt>
      <trkpt lat="50.7969" lon="3.12619">
        <ele>14.015582</ele>
        <time>2023-08-27T08:39:01.000Z</time>
      </trkpt>
      <trkpt lat="50.796775" lon="3.125681">
        <ele>14.125997</ele>
        <time>2023-08-27T08:39:05.000Z</time>
      </trkpt>
      <trkpt lat="50.796632" lon="3.12506">
        <ele>14.285792</ele>
        <time>2023-08-27T08:39:10.000Z</time>
      </trkpt>
      <trkpt lat="50.796536" lon="3.124503">
        <ele>14.725809</ele>
        <time>2023-08-27T08:39:14.000Z</time>
      </trkpt>
      <trkpt lat="50.796534" lon="3.124231">
        <ele>14.934707</ele>
        <time>2023-08-27T08:39:16.000Z</time>
      </trkpt>
      <trkpt lat="50.79651" lon="3.124004">
        <ele>15.117358</ele>
        <time>2023-08-27T08:39:18.000Z</time>
      </trkpt>
      <trkpt lat="50.796483" lon="3.123234">
        <ele>15.705317</ele>
        <time>2023-08-27T08:39:23.000Z</time>
      </trkpt>
      <trkpt lat="50.796452" lon="3.122934">
        <ele>15.930269</ele>
        <time>2023-08-27T08:39:25.000Z</time>
      </trkpt>
      <trkpt lat="50.796369" lon="3.122436">
        <ele>16.322846</ele>
        <time>2023-08-27T08:39:29.000Z</time>
      </trkpt>
      <trkpt lat="50.79621" lon="3.121547">
        <ele>17.06212</ele>
        <time>2023-08-27T08:39:35.000Z</time>
      </trkpt>
      <trkpt lat="50.796172" lon="3.121393">
        <ele>17.188092</ele>
        <time>2023-08-27T08:39:36.000Z</time>
      </trkpt>
      <trkpt lat="50.796171" lon="3.120642">
        <ele>17.774674</ele>
        <time>2023-08-27T08:39:41.000Z</time>
      </trkpt>
      <trkpt lat="50.796176" lon="3.120312">
        <ele>18.036525</ele>
        <time>2023-08-27T08:39:43.000Z</time>
      </trkpt>
      <trkpt lat="50.796204" lon="3.119983">
        <ele>18.301902</ele>
        <time>2023-08-27T08:39:45.000Z</time>
      </trkpt>
      <trkpt lat="50.796274" lon="3.119555">
        <ele>18.645555</ele>
        <time>2023-08-27T08:39:48.000Z</time>
      </trkpt>
      <trkpt lat="50.796437" lon="3.118832">
        <ele>18.769083</ele>
        <time>2023-08-27T08:39:53.000Z</time>
      </trkpt>
      <trkpt lat="50.796528" lon="3.117655">
        <ele>18.931768</ele>
        <time>2023-08-27T08:40:01.000Z</time>
      </trkpt>
      <trkpt lat="50.796538" lon="3.117562">
        <ele>18.946363</ele>
        <time>2023-08-27T08:40:02.000Z</time>
      </trkpt>
      <trkpt lat="50.796571" lon="3.117426">
        <ele>18.965358</ele>
        <time>2023-08-27T08:40:03.000Z</time>
      </trkpt>
      <trkpt lat="50.7966" lon="3.117312">
        <ele>18.983855</ele>
        <time>2023-08-27T08:40:04.000Z</time>
      </trkpt>
      <trkpt lat="50.796701" lon="3.117166">
        <ele>19.013711</ele>
        <time>2023-08-27T08:40:06.000Z</time>
      </trkpt>
      <trkpt lat="50.796821" lon="3.117105">
        <ele>19.040075</ele>
        <time>2023-08-27T08:40:07.000Z</time>
      </trkpt>
      <trkpt lat="50.796827" lon="3.117095">
        <ele>19.042569</ele>
        <time>2023-08-27T08:40:07.000Z</time>
      </trkpt>
      <trkpt lat="50.796859" lon="3.117062">
        <ele>19.052143</ele>
        <time>2023-08-27T08:40:07.000Z</time>
      </trkpt>
      <trkpt lat="50.79698" lon="3.116879">
        <ele>19.009242</ele>
        <time>2023-08-27T08:40:09.000Z</time>
      </trkpt>
      <trkpt lat="50.797097" lon="3.116037">
        <ele>18.797669</ele>
        <time>2023-08-27T08:40:15.000Z</time>
      </trkpt>
      <trkpt lat="50.79712" lon="3.11584">
        <ele>18.745564</ele>
        <time>2023-08-27T08:40:16.000Z</time>
      </trkpt>
      <trkpt lat="50.797163" lon="3.115623">
        <ele>18.6884</ele>
        <time>2023-08-27T08:40:18.000Z</time>
      </trkpt>
      <trkpt lat="50.798286" lon="3.113544">
        <ele>17.757915</ele>
        <time>2023-08-27T08:40:37.000Z</time>
      </trkpt>
      <trkpt lat="50.798069" lon="3.113322">
        <ele>17.57021</ele>
        <time>2023-08-27T08:40:40.000Z</time>
      </trkpt>
      <trkpt lat="50.797036" lon="3.112251">
        <ele>16.585723</ele>
        <time>2023-08-27T08:40:54.000Z</time>
      </trkpt>
      <trkpt lat="50.796601" lon="3.111776">
        <ele>16.090367</ele>
        <time>2023-08-27T08:41:00.000Z</time>
      </trkpt>
      <trkpt lat="50.796064" lon="3.111147">
        <ele>15.470209</ele>
        <time>2023-08-27T08:41:07.000Z</time>
      </trkpt>
      <trkpt lat="50.79592" lon="3.110987">
        <ele>15.284933</ele>
        <time>2023-08-27T08:41:09.000Z</time>
      </trkpt>
      <trkpt lat="50.795269" lon="3.110395">
        <ele>14.494751</ele>
        <time>2023-08-27T08:41:17.000Z</time>
      </trkpt>
      <trkpt lat="50.795168" lon="3.110193">
        <ele>14.314183</ele>
        <time>2023-08-27T08:41:19.000Z</time>
      </trkpt>
      <trkpt lat="50.795037" lon="3.10992">
        <ele>14.091371</ele>
        <time>2023-08-27T08:41:21.000Z</time>
      </trkpt>
      <trkpt lat="50.794784" lon="3.109505">
        <ele>13.694301</ele>
        <time>2023-08-27T08:41:25.000Z</time>
      </trkpt>
      <trkpt lat="50.79474" lon="3.109456">
        <ele>13.636933</ele>
        <time>2023-08-27T08:41:26.000Z</time>
      </trkpt>
      <trkpt lat="50.794621" lon="3.109312">
        <ele>13.519963</ele>
        <time>2023-08-27T08:41:28.000Z</time>
      </trkpt>
      <trkpt lat="50.794357" lon="3.108988">
        <ele>13.453445</ele>
        <time>2023-08-27T08:41:32.000Z</time>
      </trkpt>
      <trkpt lat="50.794001" lon="3.108609">
        <ele>13.370597</ele>
        <time>2023-08-27T08:41:37.000Z</time>
      </trkpt>
      <trkpt lat="50.793651" lon="3.108345">
        <ele>13.291875</ele>
        <time>2023-08-27T08:41:41.000Z</time>
      </trkpt>
      <trkpt lat="50.793612" lon="3.108195">
        <ele>13.27176</ele>
        <time>2023-08-27T08:41:42.000Z</time>
      </trkpt>
      <trkpt lat="50.793577" lon="3.107908">
        <ele>13.237549</ele>
        <time>2023-08-27T08:41:44.000Z</time>
      </trkpt>
      <trkpt lat="50.793593" lon="3.107653">
        <ele>13.206093</ele>
        <time>2023-08-27T08:41:46.000Z</time>
      </trkpt>
      <trkpt lat="50.793552" lon="3.107235">
        <ele>13.199285</ele>
        <time>2023-08-27T08:41:49.000Z</time>
      </trkpt>
      <trkpt lat="50.793491" lon="3.106679">
        <ele>13.276691</ele>
        <time>2023-08-27T08:41:53.000Z</time>
      </trkpt>
      <trkpt lat="50.793462" lon="3.106303">
        <ele>13.326395</ele>
        <time>2023-08-27T08:41:56.000Z</time>
      </trkpt>
      <trkpt lat="50.793291" lon="3.104891">
        <ele>13.519396</ele>
        <time>2023-08-27T08:42:06.000Z</time>
      </trkpt>
      <trkpt lat="50.793181" lon="3.103812">
        <ele>13.868486</ele>
        <time>2023-08-27T08:42:14.000Z</time>
      </trkpt>
      <trkpt lat="50.794517" lon="3.102704">
        <ele>14.869971</ele>
        <time>2023-08-27T08:42:31.000Z</time>
      </trkpt>
      <trkpt lat="50.794787" lon="3.102467">
        <ele>15.1607</ele>
        <time>2023-08-27T08:42:34.000Z</time>
      </trkpt>
      <trkpt lat="50.795858" lon="3.101528">
        <ele>16.358686</ele>
        <time>2023-08-27T08:42:48.000Z</time>
      </trkpt>
      <trkpt lat="50.796352" lon="3.101151">
        <ele>16.72129</ele>
        <time>2023-08-27T08:42:54.000Z</time>
      </trkpt>
      <trkpt lat="50.796366" lon="3.101231">
        <ele>16.754354</ele>
        <time>2023-08-27T08:42:55.000Z</time>
      </trkpt>
      <trkpt lat="50.796444" lon="3.101244">
        <ele>16.806206</ele>
        <time>2023-08-27T08:42:56.000Z</time>
      </trkpt>
      <trkpt lat="50.796538" lon="3.10101">
        <ele>16.922722</ele>
        <time>2023-08-27T08:42:58.000Z</time>
      </trkpt>
      <trkpt lat="50.796789" lon="3.100965">
        <ele>17.085029</ele>
        <time>2023-08-27T08:43:01.000Z</time>
      </trkpt>
      <trkpt lat="50.797087" lon="3.100919">
        <ele>17.278122</ele>
        <time>2023-08-27T08:43:04.000Z</time>
      </trkpt>
      <trkpt lat="50.79739" lon="3.100874">
        <ele>17.473334</ele>
        <time>2023-08-27T08:43:07.000Z</time>
      </trkpt>
      <trkpt lat="50.797675" lon="3.100814">
        <ele>17.560008</ele>
        <time>2023-08-27T08:43:10.000Z</time>
      </trkpt>
      <trkpt lat="50.797843" lon="3.100789">
        <ele>17.554702</ele>
        <time>2023-08-27T08:43:12.000Z</time>
      </trkpt>
      <trkpt lat="50.798102" lon="3.100777">
        <ele>17.546747</ele>
        <time>2023-08-27T08:43:15.000Z</time>
      </trkpt>
      <trkpt lat="50.798484" lon="3.100844">
        <ele>17.535056</ele>
        <time>2023-08-27T08:43:19.000Z</time>
      </trkpt>
      <trkpt lat="50.798651" lon="3.100912">
        <ele>17.530178</ele>
        <time>2023-08-27T08:43:21.000Z</time>
      </trkpt>
      <trkpt lat="50.799114" lon="3.101151">
        <ele>17.515563</ele>
        <time>2023-08-27T08:43:26.000Z</time>
      </trkpt>
      <trkpt lat="50.799463" lon="3.101341">
        <ele>17.480932</ele>
        <time>2023-08-27T08:43:30.000Z</time>
      </trkpt>
      <trkpt lat="50.80009" lon="3.101672">
        <ele>17.381046</ele>
        <time>2023-08-27T08:43:37.000Z</time>
      </trkpt>
      <trkpt lat="50.801067" lon="3.1022">
        <ele>17.246861</ele>
        <time>2023-08-27T08:43:48.000Z</time>
      </trkpt>
      <trkpt lat="50.801308" lon="3.102325">
        <ele>17.27049</ele>
        <time>2023-08-27T08:43:51.000Z</time>
      </trkpt>
      <trkpt lat="50.801576" lon="3.102473">
        <ele>17.295592</ele>
        <time>2023-08-27T08:43:54.000Z</time>
      </trkpt>
      <trkpt lat="50.801697" lon="3.102523">
        <ele>17.307284</ele>
        <time>2023-08-27T08:43:55.000Z</time>
      </trkpt>
      <trkpt lat="50.801971" lon="3.102668">
        <ele>17.334517</ele>
        <time>2023-08-27T08:43:58.000Z</time>
      </trkpt>
      <trkpt lat="50.802023" lon="3.102719">
        <ele>17.340205</ele>
        <time>2023-08-27T08:43:59.000Z</time>
      </trkpt>
      <trkpt lat="50.801982" lon="3.102833">
        <ele>17.347172</ele>
        <time>2023-08-27T08:44:00.000Z</time>
      </trkpt>
      <trkpt lat="50.801975" lon="3.102842">
        <ele>17.348605</ele>
        <time>2023-08-27T08:44:00.000Z</time>
      </trkpt>
      <trkpt lat="50.801701" lon="3.103662">
        <ele>17.402887</ele>
        <time>2023-08-27T08:44:07.000Z</time>
      </trkpt>
      <trkpt lat="50.801557" lon="3.104079">
        <ele>17.450238</ele>
        <time>2023-08-27T08:44:10.000Z</time>
      </trkpt>
      <trkpt lat="50.801408" lon="3.104483">
        <ele>17.499756</ele>
        <time>2023-08-27T08:44:13.000Z</time>
      </trkpt>
      <trkpt lat="50.801287" lon="3.104887">
        <ele>17.546968</ele>
        <time>2023-08-27T08:44:16.000Z</time>
      </trkpt>
      <trkpt lat="50.801135" lon="3.105346">
        <ele>17.602407</ele>
        <time>2023-08-27T08:44:20.000Z</time>
      </trkpt>
      <trkpt lat="50.801118" lon="3.105375">
        <ele>17.605879</ele>
        <time>2023-08-27T08:44:20.000Z</time>
      </trkpt>
      <trkpt lat="50.800824" lon="3.106263">
        <ele>17.708217</ele>
        <time>2023-08-27T08:44:27.000Z</time>
      </trkpt>
      <trkpt lat="50.800781" lon="3.106376">
        <ele>17.714693</ele>
        <time>2023-08-27T08:44:28.000Z</time>
      </trkpt>
      <trkpt lat="50.800656" lon="3.106782">
        <ele>17.73712</ele>
        <time>2023-08-27T08:44:31.000Z</time>
      </trkpt>
      <trkpt lat="50.800548" lon="3.107121">
        <ele>17.755698</ele>
        <time>2023-08-27T08:44:34.000Z</time>
      </trkpt>
      <trkpt lat="50.80034" lon="3.107717">
        <ele>17.788778</ele>
        <time>2023-08-27T08:44:39.000Z</time>
      </trkpt>
      <trkpt lat="50.800258" lon="3.107971">
        <ele>17.802927</ele>
        <time>2023-08-27T08:44:41.000Z</time>
      </trkpt>
      <trkpt lat="50.800218" lon="3.108088">
        <ele>17.80935</ele>
        <time>2023-08-27T08:44:42.000Z</time>
      </trkpt>
      <trkpt lat="50.80019" lon="3.108165">
        <ele>17.813501</ele>
        <time>2023-08-27T08:44:43.000Z</time>
      </trkpt>
      <trkpt lat="50.800135" lon="3.108313">
        <ele>17.821837</ele>
        <time>2023-08-27T08:44:44.000Z</time>
      </trkpt>
      <trkpt lat="50.800027" lon="3.108676">
        <ele>17.841455</ele>
        <time>2023-08-27T08:44:47.000Z</time>
      </trkpt>
      <trkpt lat="50.799978" lon="3.108847">
        <ele>17.84236</ele>
        <time>2023-08-27T08:44:48.000Z</time>
      </trkpt>
      <trkpt lat="50.799955" lon="3.108902">
        <ele>17.840816</ele>
        <time>2023-08-27T08:44:48.000Z</time>
      </trkpt>
      <trkpt lat="50.800461" lon="3.109374">
        <ele>17.816245</ele>
        <time>2023-08-27T08:44:55.000Z</time>
      </trkpt>
      <trkpt lat="50.800748" lon="3.109607">
        <ele>17.802818</ele>
        <time>2023-08-27T08:44:59.000Z</time>
      </trkpt>
      <trkpt lat="50.800791" lon="3.109635">
        <ele>17.801064</ele>
        <time>2023-08-27T08:45:00.000Z</time>
      </trkpt>
      <trkpt lat="50.801442" lon="3.110204">
        <ele>17.770135</ele>
        <time>2023-08-27T08:45:08.000Z</time>
      </trkpt>
      <trkpt lat="50.802132" lon="3.110765">
        <ele>17.61506</ele>
        <time>2023-08-27T08:45:17.000Z</time>
      </trkpt>
      <trkpt lat="50.802501" lon="3.110997">
        <ele>17.532483</ele>
        <time>2023-08-27T08:45:21.000Z</time>
      </trkpt>
      <trkpt lat="50.803019" lon="3.111182">
        <ele>17.428172</ele>
        <time>2023-08-27T08:45:27.000Z</time>
      </trkpt>
      <trkpt lat="50.803407" lon="3.111311">
        <ele>17.328051</ele>
        <time>2023-08-27T08:45:31.000Z</time>
      </trkpt>
      <trkpt lat="50.80344" lon="3.111315">
        <ele>17.318919</ele>
        <time>2023-08-27T08:45:31.000Z</time>
      </trkpt>
      <trkpt lat="50.804508" lon="3.111664">
        <ele>17.023532</ele>
        <time>2023-08-27T08:45:43.000Z</time>
      </trkpt>
      <trkpt lat="50.804824" lon="3.1117">
        <ele>16.937509</ele>
        <time>2023-08-27T08:45:47.000Z</time>
      </trkpt>
      <trkpt lat="50.805273" lon="3.111708">
        <ele>17.050482</ele>
        <time>2023-08-27T08:45:52.000Z</time>
      </trkpt>
      <trkpt lat="50.805677" lon="3.111773">
        <ele>17.173865</ele>
        <time>2023-08-27T08:45:57.000Z</time>
      </trkpt>
      <trkpt lat="50.805957" lon="3.111824">
        <ele>17.26252</ele>
        <time>2023-08-27T08:46:00.000Z</time>
      </trkpt>
      <trkpt lat="50.806084" lon="3.111914">
        <ele>17.304408</ele>
        <time>2023-08-27T08:46:02.000Z</time>
      </trkpt>
      <trkpt lat="50.806118" lon="3.112039">
        <ele>17.33317</ele>
        <time>2023-08-27T08:46:03.000Z</time>
      </trkpt>
      <trkpt lat="50.806158" lon="3.11264">
        <ele>17.453084</ele>
        <time>2023-08-27T08:46:07.000Z</time>
      </trkpt>
      <trkpt lat="50.806202" lon="3.113097">
        <ele>17.440814</ele>
        <time>2023-08-27T08:46:10.000Z</time>
      </trkpt>
      <trkpt lat="50.806234" lon="3.113627">
        <ele>17.363705</ele>
        <time>2023-08-27T08:46:14.000Z</time>
      </trkpt>
      <trkpt lat="50.806241" lon="3.113953">
        <ele>17.31506</ele>
        <time>2023-08-27T08:46:16.000Z</time>
      </trkpt>
      <trkpt lat="50.806308" lon="3.1149">
        <ele>17.174545</ele>
        <time>2023-08-27T08:46:23.000Z</time>
      </trkpt>
      <trkpt lat="50.806322" lon="3.114975">
        <ele>17.163832</ele>
        <time>2023-08-27T08:46:24.000Z</time>
      </trkpt>
      <trkpt lat="50.806329" lon="3.115161">
        <ele>17.138284</ele>
        <time>2023-08-27T08:46:25.000Z</time>
      </trkpt>
      <trkpt lat="50.806321" lon="3.115443">
        <ele>17.097654</ele>
        <time>2023-08-27T08:46:27.000Z</time>
      </trkpt>
      <trkpt lat="50.806347" lon="3.115653">
        <ele>17.0657</ele>
        <time>2023-08-27T08:46:29.000Z</time>
      </trkpt>
      <trkpt lat="50.806354" lon="3.115738">
        <ele>17.049387</ele>
        <time>2023-08-27T08:46:30.000Z</time>
      </trkpt>
      <trkpt lat="50.806377" lon="3.115841">
        <ele>17.028821</ele>
        <time>2023-08-27T08:46:31.000Z</time>
      </trkpt>
      <trkpt lat="50.806411" lon="3.116601">
        <ele>16.893369</ele>
        <time>2023-08-27T08:46:36.000Z</time>
      </trkpt>
      <trkpt lat="50.806427" lon="3.116793">
        <ele>16.856841</ele>
        <time>2023-08-27T08:46:37.000Z</time>
      </trkpt>
      <trkpt lat="50.80648" lon="3.117646">
        <ele>16.702328</ele>
        <time>2023-08-27T08:46:43.000Z</time>
      </trkpt>
      <trkpt lat="50.806554" lon="3.11876">
        <ele>16.555565</ele>
        <time>2023-08-27T08:46:51.000Z</time>
      </trkpt>
      <trkpt lat="50.806569" lon="3.118898">
        <ele>16.555241</ele>
        <time>2023-08-27T08:46:52.000Z</time>
      </trkpt>
      <trkpt lat="50.806591" lon="3.119434">
        <ele>16.554066</ele>
        <time>2023-08-27T08:46:56.000Z</time>
      </trkpt>
      <trkpt lat="50.806652" lon="3.120115">
        <ele>16.552529</ele>
        <time>2023-08-27T08:47:01.000Z</time>
      </trkpt>
      <trkpt lat="50.806651" lon="3.120366">
        <ele>16.552002</ele>
        <time>2023-08-27T08:47:03.000Z</time>
      </trkpt>
      <trkpt lat="50.806646" lon="3.120504">
        <ele>16.551648</ele>
        <time>2023-08-27T08:47:04.000Z</time>
      </trkpt>
      <trkpt lat="50.806594" lon="3.121124">
        <ele>16.550303</ele>
        <time>2023-08-27T08:47:08.000Z</time>
      </trkpt>
      <trkpt lat="50.806598" lon="3.121121">
        <ele>16.550288</ele>
        <time>2023-08-27T08:47:08.000Z</time>
      </trkpt>
      <trkpt lat="50.806592" lon="3.121185">
        <ele>16.55012</ele>
        <time>2023-08-27T08:47:08.000Z</time>
      </trkpt>
      <trkpt lat="50.806579" lon="3.121329">
        <ele>16.547891</ele>
        <time>2023-08-27T08:47:09.000Z</time>
      </trkpt>
      <trkpt lat="50.806396" lon="3.121202">
        <ele>16.535765</ele>
        <time>2023-08-27T08:47:11.000Z</time>
      </trkpt>
      <trkpt lat="50.806065" lon="3.120841">
        <ele>16.509429</ele>
        <time>2023-08-27T08:47:15.000Z</time>
      </trkpt>
      <trkpt lat="50.805904" lon="3.120665">
        <ele>16.497523</ele>
        <time>2023-08-27T08:47:17.000Z</time>
      </trkpt>
      <trkpt lat="50.806041" lon="3.12043">
        <ele>16.48508</ele>
        <time>2023-08-27T08:47:19.000Z</time>
      </trkpt>
      <trkpt lat="50.806034" lon="3.120401">
        <ele>16.484268</ele>
        <time>2023-08-27T08:47:19.000Z</time>
      </trkpt>
      <trkpt lat="50.806132" lon="3.120248">
        <ele>16.47585</ele>
        <time>2023-08-27T08:47:21.000Z</time>
      </trkpt>
      <trkpt lat="50.806205" lon="3.120196">
        <ele>16.47017</ele>
        <time>2023-08-27T08:47:22.000Z</time>
      </trkpt>
      <trkpt lat="50.806643" lon="3.120119">
        <ele>16.442227</ele>
        <time>2023-08-27T08:47:27.000Z</time>
      </trkpt>
      <trkpt lat="50.80659" lon="3.119427">
        <ele>16.490215</ele>
        <time>2023-08-27T08:47:32.000Z</time>
      </trkpt>
      <trkpt lat="50.806561" lon="3.118897">
        <ele>16.546686</ele>
        <time>2023-08-27T08:47:36.000Z</time>
      </trkpt>
      <trkpt lat="50.806547" lon="3.118756">
        <ele>16.562504</ele>
        <time>2023-08-27T08:47:37.000Z</time>
      </trkpt>
      <trkpt lat="50.806481" lon="3.117643">
        <ele>16.679406</ele>
        <time>2023-08-27T08:47:45.000Z</time>
      </trkpt>
      <trkpt lat="50.806422" lon="3.116803">
        <ele>16.813145</ele>
        <time>2023-08-27T08:47:51.000Z</time>
      </trkpt>
      <trkpt lat="50.806422" lon="3.116587">
        <ele>16.861729</ele>
        <time>2023-08-27T08:47:53.000Z</time>
      </trkpt>
      <trkpt lat="50.806364" lon="3.11584">
        <ele>17.04193</ele>
        <time>2023-08-27T08:47:58.000Z</time>
      </trkpt>
      <trkpt lat="50.806355" lon="3.115737">
        <ele>17.06932</ele>
        <time>2023-08-27T08:47:59.000Z</time>
      </trkpt>
      <trkpt lat="50.806368" lon="3.115606">
        <ele>17.099623</ele>
        <time>2023-08-27T08:48:00.000Z</time>
      </trkpt>
      <trkpt lat="50.806353" lon="3.115305">
        <ele>17.174072</ele>
        <time>2023-08-27T08:48:02.000Z</time>
      </trkpt>
      <trkpt lat="50.806335" lon="3.115147">
        <ele>17.210501</ele>
        <time>2023-08-27T08:48:03.000Z</time>
      </trkpt>
      <trkpt lat="50.806322" lon="3.114987">
        <ele>17.252453</ele>
        <time>2023-08-27T08:48:04.000Z</time>
      </trkpt>
      <trkpt lat="50.806306" lon="3.114915">
        <ele>17.270018</ele>
        <time>2023-08-27T08:48:05.000Z</time>
      </trkpt>
      <trkpt lat="50.806252" lon="3.113943">
        <ele>17.382716</ele>
        <time>2023-08-27T08:48:12.000Z</time>
      </trkpt>
      <trkpt lat="50.806231" lon="3.113611">
        <ele>17.349042</ele>
        <time>2023-08-27T08:48:14.000Z</time>
      </trkpt>
      <trkpt lat="50.806188" lon="3.113089">
        <ele>17.295682</ele>
        <time>2023-08-27T08:48:18.000Z</time>
      </trkpt>
      <trkpt lat="50.806166" lon="3.112648">
        <ele>17.250152</ele>
        <time>2023-08-27T08:48:21.000Z</time>
      </trkpt>
      <trkpt lat="50.806117" lon="3.112042">
        <ele>17.188684</ele>
        <time>2023-08-27T08:48:25.000Z</time>
      </trkpt>
      <trkpt lat="50.806075" lon="3.111908">
        <ele>17.173929</ele>
        <time>2023-08-27T08:48:26.000Z</time>
      </trkpt>
      <trkpt lat="50.805957" lon="3.111824">
        <ele>17.152465</ele>
        <time>2023-08-27T08:48:27.000Z</time>
      </trkpt>
      <trkpt lat="50.80568" lon="3.111768">
        <ele>17.123925</ele>
        <time>2023-08-27T08:48:30.000Z</time>
      </trkpt>
      <trkpt lat="50.805286" lon="3.111722">
        <ele>17.106715</ele>
        <time>2023-08-27T08:48:34.000Z</time>
      </trkpt>
      <trkpt lat="50.804818" lon="3.111709">
        <ele>17.086626</ele>
        <time>2023-08-27T08:48:39.000Z</time>
      </trkpt>
      <trkpt lat="50.804503" lon="3.111669">
        <ele>17.072808</ele>
        <time>2023-08-27T08:48:43.000Z</time>
      </trkpt>
      <trkpt lat="50.803442" lon="3.111318">
        <ele>17.274156</ele>
        <time>2023-08-27T08:48:55.000Z</time>
      </trkpt>
      <trkpt lat="50.8034" lon="3.111308">
        <ele>17.286361</ele>
        <time>2023-08-27T08:48:55.000Z</time>
      </trkpt>
      <trkpt lat="50.803017" lon="3.111174">
        <ele>17.428789</ele>
        <time>2023-08-27T08:48:59.000Z</time>
      </trkpt>
      <trkpt lat="50.802508" lon="3.111002">
        <ele>17.616923</ele>
        <time>2023-08-27T08:49:05.000Z</time>
      </trkpt>
      <trkpt lat="50.802117" lon="3.11076">
        <ele>17.709126</ele>
        <time>2023-08-27T08:49:10.000Z</time>
      </trkpt>
      <trkpt lat="50.801441" lon="3.110192">
        <ele>17.737307</ele>
        <time>2023-08-27T08:49:19.000Z</time>
      </trkpt>
      <trkpt lat="50.8008" lon="3.109637">
        <ele>17.764119</ele>
        <time>2023-08-27T08:49:27.000Z</time>
      </trkpt>
      <trkpt lat="50.800754" lon="3.109613">
        <ele>17.765647</ele>
        <time>2023-08-27T08:49:28.000Z</time>
      </trkpt>
      <trkpt lat="50.800466" lon="3.109373">
        <ele>17.778521</ele>
        <time>2023-08-27T08:49:32.000Z</time>
      </trkpt>
      <trkpt lat="50.79996" lon="3.108899">
        <ele>17.802609</ele>
        <time>2023-08-27T08:49:39.000Z</time>
      </trkpt>
      <trkpt lat="50.799972" lon="3.108844">
        <ele>17.804128</ele>
        <time>2023-08-27T08:49:39.000Z</time>
      </trkpt>
      <trkpt lat="50.800024" lon="3.10866">
        <ele>17.809116</ele>
        <time>2023-08-27T08:49:40.000Z</time>
      </trkpt>
      <trkpt lat="50.800139" lon="3.10831">
        <ele>17.819466</ele>
        <time>2023-08-27T08:49:43.000Z</time>
      </trkpt>
      <trkpt lat="50.800183" lon="3.108158">
        <ele>17.823845</ele>
        <time>2023-08-27T08:49:44.000Z</time>
      </trkpt>
      <trkpt lat="50.800225" lon="3.10808">
        <ele>17.826032</ele>
        <time>2023-08-27T08:49:45.000Z</time>
      </trkpt>
      <trkpt lat="50.800255" lon="3.107967">
        <ele>17.829418</ele>
        <time>2023-08-27T08:49:46.000Z</time>
      </trkpt>
      <trkpt lat="50.80033" lon="3.10772">
        <ele>17.836873</ele>
        <time>2023-08-27T08:49:48.000Z</time>
      </trkpt>
      <trkpt lat="50.800549" lon="3.107112">
        <ele>17.797016</ele>
        <time>2023-08-27T08:49:53.000Z</time>
      </trkpt>
      <trkpt lat="50.800648" lon="3.106779">
        <ele>17.762427</ele>
        <time>2023-08-27T08:49:56.000Z</time>
      </trkpt>
      <trkpt lat="50.800795" lon="3.106368">
        <ele>17.720667</ele>
        <time>2023-08-27T08:49:59.000Z</time>
      </trkpt>
      <trkpt lat="50.80083" lon="3.106261">
        <ele>17.708613</ele>
        <time>2023-08-27T08:50:00.000Z</time>
      </trkpt>
      <trkpt lat="50.801125" lon="3.105374">
        <ele>17.618197</ele>
        <time>2023-08-27T08:50:07.000Z</time>
      </trkpt>
      <trkpt lat="50.801121" lon="3.105348">
        <ele>17.615201</ele>
        <time>2023-08-27T08:50:07.000Z</time>
      </trkpt>
      <trkpt lat="50.801278" lon="3.104892">
        <ele>17.58679</ele>
        <time>2023-08-27T08:50:11.000Z</time>
      </trkpt>
      <trkpt lat="50.801421" lon="3.10449">
        <ele>17.598287</ele>
        <time>2023-08-27T08:50:14.000Z</time>
      </trkpt>
      <trkpt lat="50.801548" lon="3.104075">
        <ele>17.610326</ele>
        <time>2023-08-27T08:50:17.000Z</time>
      </trkpt>
      <trkpt lat="50.801695" lon="3.103655">
        <ele>17.622463</ele>
        <time>2023-08-27T08:50:20.000Z</time>
      </trkpt>
      <trkpt lat="50.801968" lon="3.10284">
        <ele>17.646142</ele>
        <time>2023-08-27T08:50:26.000Z</time>
      </trkpt>
      <trkpt lat="50.801983" lon="3.102833">
        <ele>17.646774</ele>
        <time>2023-08-27T08:50:26.000Z</time>
      </trkpt>
      <trkpt lat="50.802013" lon="3.102722">
        <ele>17.649806</ele>
        <time>2023-08-27T08:50:27.000Z</time>
      </trkpt>
      <trkpt lat="50.802392" lon="3.101625">
        <ele>17.939328</ele>
        <time>2023-08-27T08:50:36.000Z</time>
      </trkpt>
      <trkpt lat="50.802399" lon="3.101586">
        <ele>17.953005</ele>
        <time>2023-08-27T08:50:36.000Z</time>
      </trkpt>
      <trkpt lat="50.802548" lon="3.10116">
        <ele>18.086571</ele>
        <time>2023-08-27T08:50:39.000Z</time>
      </trkpt>
      <trkpt lat="50.802794" lon="3.100432">
        <ele>18.31345</ele>
        <time>2023-08-27T08:50:45.000Z</time>
      </trkpt>
      <trkpt lat="50.802867" lon="3.100247">
        <ele>18.376336</ele>
        <time>2023-08-27T08:50:47.000Z</time>
      </trkpt>
      <trkpt lat="50.803279" lon="3.098977">
        <ele>18.763122</ele>
        <time>2023-08-27T08:50:57.000Z</time>
      </trkpt>
      <trkpt lat="50.803367" lon="3.098683">
        <ele>18.851538</ele>
        <time>2023-08-27T08:50:59.000Z</time>
      </trkpt>
      <trkpt lat="50.803409" lon="3.098597">
        <ele>18.878194</ele>
        <time>2023-08-27T08:51:00.000Z</time>
      </trkpt>
      <trkpt lat="50.803823" lon="3.097376">
        <ele>19.167787</ele>
        <time>2023-08-27T08:51:10.000Z</time>
      </trkpt>
      <trkpt lat="50.803954" lon="3.096954">
        <ele>18.984195</ele>
        <time>2023-08-27T08:51:13.000Z</time>
      </trkpt>
      <trkpt lat="50.803984" lon="3.096867">
        <ele>18.951039</ele>
        <time>2023-08-27T08:51:14.000Z</time>
      </trkpt>
      <trkpt lat="50.804035" lon="3.096726">
        <ele>18.889853</ele>
        <time>2023-08-27T08:51:15.000Z</time>
      </trkpt>
      <trkpt lat="50.80419" lon="3.096292">
        <ele>18.699274</ele>
        <time>2023-08-27T08:51:19.000Z</time>
      </trkpt>
      <trkpt lat="50.804203" lon="3.096218">
        <ele>18.670981</ele>
        <time>2023-08-27T08:51:20.000Z</time>
      </trkpt>
      <trkpt lat="50.804251" lon="3.096101">
        <ele>18.622397</ele>
        <time>2023-08-27T08:51:21.000Z</time>
      </trkpt>
      <trkpt lat="50.804288" lon="3.095962">
        <ele>18.56415</ele>
        <time>2023-08-27T08:51:22.000Z</time>
      </trkpt>
      <trkpt lat="50.804341" lon="3.09586">
        <ele>18.513894</ele>
        <time>2023-08-27T08:51:23.000Z</time>
      </trkpt>
      <trkpt lat="50.804393" lon="3.095666">
        <ele>18.434297</ele>
        <time>2023-08-27T08:51:24.000Z</time>
      </trkpt>
      <trkpt lat="50.80447" lon="3.095437">
        <ele>18.336024</ele>
        <time>2023-08-27T08:51:26.000Z</time>
      </trkpt>
      <trkpt lat="50.804501" lon="3.095387">
        <ele>18.316652</ele>
        <time>2023-08-27T08:51:26.000Z</time>
      </trkpt>
      <trkpt lat="50.804564" lon="3.095158">
        <ele>18.216442</ele>
        <time>2023-08-27T08:51:28.000Z</time>
      </trkpt>
      <trkpt lat="50.804587" lon="3.095094">
        <ele>18.189758</ele>
        <time>2023-08-27T08:51:29.000Z</time>
      </trkpt>
      <trkpt lat="50.80474" lon="3.094627">
        <ele>17.882402</ele>
        <time>2023-08-27T08:51:33.000Z</time>
      </trkpt>
      <trkpt lat="50.804798" lon="3.094437">
        <ele>17.736472</ele>
        <time>2023-08-27T08:51:34.000Z</time>
      </trkpt>
      <trkpt lat="50.804897" lon="3.094173">
        <ele>17.541053</ele>
        <time>2023-08-27T08:51:36.000Z</time>
      </trkpt>
      <trkpt lat="50.804902" lon="3.094155">
        <ele>17.523182</ele>
        <time>2023-08-27T08:51:36.000Z</time>
      </trkpt>
      <trkpt lat="50.805165" lon="3.09337">
        <ele>16.939829</ele>
        <time>2023-08-27T08:51:42.000Z</time>
      </trkpt>
      <trkpt lat="50.805193" lon="3.093248">
        <ele>16.852756</ele>
        <time>2023-08-27T08:51:43.000Z</time>
      </trkpt>
      <trkpt lat="50.806089" lon="3.090573">
        <ele>15.508664</ele>
        <time>2023-08-27T08:52:04.000Z</time>
      </trkpt>
      <trkpt lat="50.806225" lon="3.090148">
        <ele>15.333705</ele>
        <time>2023-08-27T08:52:07.000Z</time>
      </trkpt>
      <trkpt lat="50.806236" lon="3.090096">
        <ele>15.316873</ele>
        <time>2023-08-27T08:52:07.000Z</time>
      </trkpt>
      <trkpt lat="50.806479" lon="3.089574">
        <ele>15.328288</ele>
        <time>2023-08-27T08:52:12.000Z</time>
      </trkpt>
      <trkpt lat="50.806555" lon="3.089458">
        <ele>15.353799</ele>
        <time>2023-08-27T08:52:13.000Z</time>
      </trkpt>
      <trkpt lat="50.806717" lon="3.089421">
        <ele>15.391723</ele>
        <time>2023-08-27T08:52:15.000Z</time>
      </trkpt>
      <trkpt lat="50.806736" lon="3.089367">
        <ele>15.400488</ele>
        <time>2023-08-27T08:52:15.000Z</time>
      </trkpt>
      <trkpt lat="50.806807" lon="3.089276">
        <ele>15.420945</ele>
        <time>2023-08-27T08:52:16.000Z</time>
      </trkpt>
      <trkpt lat="50.806826" lon="3.08919">
        <ele>15.435652</ele>
        <time>2023-08-27T08:52:17.000Z</time>
      </trkpt>
      <trkpt lat="50.806823" lon="3.089007">
        <ele>15.464345</ele>
        <time>2023-08-27T08:52:18.000Z</time>
      </trkpt>
      <trkpt lat="50.806774" lon="3.088837">
        <ele>15.492976</ele>
        <time>2023-08-27T08:52:19.000Z</time>
      </trkpt>
      <trkpt lat="50.806785" lon="3.088633">
        <ele>15.522864</ele>
        <time>2023-08-27T08:52:20.000Z</time>
      </trkpt>
      <trkpt lat="50.807068" lon="3.087664">
        <ele>15.6845</ele>
        <time>2023-08-27T08:52:28.000Z</time>
      </trkpt>
      <trkpt lat="50.807221" lon="3.087177">
        <ele>15.803009</ele>
        <time>2023-08-27T08:52:32.000Z</time>
      </trkpt>
      <trkpt lat="50.807812" lon="3.085393">
        <ele>16.255371</ele>
        <time>2023-08-27T08:52:46.000Z</time>
      </trkpt>
      <trkpt lat="50.80795" lon="3.084994">
        <ele>16.415326</ele>
        <time>2023-08-27T08:52:49.000Z</time>
      </trkpt>
      <trkpt lat="50.808057" lon="3.084703">
        <ele>16.602458</ele>
        <time>2023-08-27T08:52:51.000Z</time>
      </trkpt>
      <trkpt lat="50.808194" lon="3.084387">
        <ele>16.844929</ele>
        <time>2023-08-27T08:52:54.000Z</time>
      </trkpt>
      <trkpt lat="50.808316" lon="3.084106">
        <ele>17.044595</ele>
        <time>2023-08-27T08:52:56.000Z</time>
      </trkpt>
      <trkpt lat="50.808424" lon="3.083758">
        <ele>17.27218</ele>
        <time>2023-08-27T08:52:59.000Z</time>
      </trkpt>
      <trkpt lat="50.808568" lon="3.083245">
        <ele>17.612262</ele>
        <time>2023-08-27T08:53:03.000Z</time>
      </trkpt>
      <trkpt lat="50.809006" lon="3.081948">
        <ele>18.562109</ele>
        <time>2023-08-27T08:53:13.000Z</time>
      </trkpt>
      <trkpt lat="50.809451" lon="3.080582">
        <ele>19.643141</ele>
        <time>2023-08-27T08:53:24.000Z</time>
      </trkpt>
      <trkpt lat="50.80964" lon="3.080097">
        <ele>20.023499</ele>
        <time>2023-08-27T08:53:28.000Z</time>
      </trkpt>
      <trkpt lat="50.809887" lon="3.079325">
        <ele>20.255522</ele>
        <time>2023-08-27T08:53:34.000Z</time>
      </trkpt>
      <trkpt lat="50.810082" lon="3.078697">
        <ele>20.43943</ele>
        <time>2023-08-27T08:53:39.000Z</time>
      </trkpt>
      <trkpt lat="50.81013" lon="3.078572">
        <ele>20.476959</ele>
        <time>2023-08-27T08:53:40.000Z</time>
      </trkpt>
      <trkpt lat="50.810146" lon="3.078222">
        <ele>20.567251</ele>
        <time>2023-08-27T08:53:42.000Z</time>
      </trkpt>
      <trkpt lat="50.810086" lon="3.077577">
        <ele>20.739457</ele>
        <time>2023-08-27T08:53:47.000Z</time>
      </trkpt>
      <trkpt lat="50.809964" lon="3.077033">
        <ele>20.613582</ele>
        <time>2023-08-27T08:53:51.000Z</time>
      </trkpt>
      <trkpt lat="50.8099" lon="3.076683">
        <ele>20.49934</ele>
        <time>2023-08-27T08:53:54.000Z</time>
      </trkpt>
      <trkpt lat="50.809853" lon="3.076557">
        <ele>20.454426</ele>
        <time>2023-08-27T08:53:55.000Z</time>
      </trkpt>
      <trkpt lat="50.809723" lon="3.075979">
        <ele>20.258802</ele>
        <time>2023-08-27T08:53:59.000Z</time>
      </trkpt>
      <trkpt lat="50.809665" lon="3.075632">
        <ele>20.143758</ele>
        <time>2023-08-27T08:54:02.000Z</time>
      </trkpt>
      <trkpt lat="50.809665" lon="3.075542">
        <ele>20.113006</ele>
        <time>2023-08-27T08:54:03.000Z</time>
      </trkpt>
      <trkpt lat="50.809707" lon="3.075383">
        <ele>20.058194</ele>
        <time>2023-08-27T08:54:04.000Z</time>
      </trkpt>
      <trkpt lat="50.810133" lon="3.073945">
        <ele>19.598623</ele>
        <time>2023-08-27T08:54:15.000Z</time>
      </trkpt>
      <trkpt lat="50.810226" lon="3.073703">
        <ele>19.523683</ele>
        <time>2023-08-27T08:54:17.000Z</time>
      </trkpt>
      <trkpt lat="50.810543" lon="3.072679">
        <ele>19.216053</ele>
        <time>2023-08-27T08:54:25.000Z</time>
      </trkpt>
      <trkpt lat="50.810696" lon="3.07222">
        <ele>19.075163</ele>
        <time>2023-08-27T08:54:29.000Z</time>
      </trkpt>
      <trkpt lat="50.81084" lon="3.071759">
        <ele>18.931904</ele>
        <time>2023-08-27T08:54:33.000Z</time>
      </trkpt>
      <trkpt lat="50.811092" lon="3.070928">
        <ele>18.676067</ele>
        <time>2023-08-27T08:54:39.000Z</time>
      </trkpt>
      <trkpt lat="50.811738" lon="3.068851">
        <ele>18.16568</ele>
        <time>2023-08-27T08:54:55.000Z</time>
      </trkpt>
      <trkpt lat="50.811806" lon="3.068697">
        <ele>18.140235</ele>
        <time>2023-08-27T08:54:56.000Z</time>
      </trkpt>
      <trkpt lat="50.811833" lon="3.068647">
        <ele>18.132004</ele>
        <time>2023-08-27T08:54:56.000Z</time>
      </trkpt>
      <trkpt lat="50.811819" lon="3.068637">
        <ele>18.131768</ele>
        <time>2023-08-27T08:54:56.000Z</time>
      </trkpt>
      <trkpt lat="50.81199" lon="3.068108">
        <ele>18.046986</ele>
        <time>2023-08-27T08:55:00.000Z</time>
      </trkpt>
      <trkpt lat="50.811988" lon="3.068102">
        <ele>18.045554</ele>
        <time>2023-08-27T08:55:00.000Z</time>
      </trkpt>
      <trkpt lat="50.812095" lon="3.067773">
        <ele>17.993972</ele>
        <time>2023-08-27T08:55:03.000Z</time>
      </trkpt>
      <trkpt lat="50.812165" lon="3.067504">
        <ele>17.95243</ele>
        <time>2023-08-27T08:55:05.000Z</time>
      </trkpt>
      <trkpt lat="50.812212" lon="3.067374">
        <ele>17.93289</ele>
        <time>2023-08-27T08:55:06.000Z</time>
      </trkpt>
      <trkpt lat="50.81262" lon="3.066058">
        <ele>18.057526</ele>
        <time>2023-08-27T08:55:16.000Z</time>
      </trkpt>
      <trkpt lat="50.812714" lon="3.065752">
        <ele>18.101667</ele>
        <time>2023-08-27T08:55:18.000Z</time>
      </trkpt>
      <trkpt lat="50.812778" lon="3.065512">
        <ele>18.134489</ele>
        <time>2023-08-27T08:55:20.000Z</time>
      </trkpt>
      <trkpt lat="50.812831" lon="3.065361">
        <ele>18.155363</ele>
        <time>2023-08-27T08:55:21.000Z</time>
      </trkpt>
      <trkpt lat="50.813561" lon="3.063013">
        <ele>18.467508</ele>
        <time>2023-08-27T08:55:39.000Z</time>
      </trkpt>
      <trkpt lat="50.813911" lon="3.061905">
        <ele>18.582261</ele>
        <time>2023-08-27T08:55:48.000Z</time>
      </trkpt>
      <trkpt lat="50.813939" lon="3.061798">
        <ele>18.576031</ele>
        <time>2023-08-27T08:55:49.000Z</time>
      </trkpt>
      <trkpt lat="50.814036" lon="3.061501">
        <ele>18.558566</ele>
        <time>2023-08-27T08:55:51.000Z</time>
      </trkpt>
      <trkpt lat="50.814076" lon="3.061382">
        <ele>18.552181</ele>
        <time>2023-08-27T08:55:52.000Z</time>
      </trkpt>
      <trkpt lat="50.814563" lon="3.059777">
        <ele>18.459409</ele>
        <time>2023-08-27T08:56:05.000Z</time>
      </trkpt>
      <trkpt lat="50.814996" lon="3.058437">
        <ele>18.293573</ele>
        <time>2023-08-27T08:56:16.000Z</time>
      </trkpt>
      <trkpt lat="50.815018" lon="3.058343">
        <ele>18.281098</ele>
        <time>2023-08-27T08:56:17.000Z</time>
      </trkpt>
      <trkpt lat="50.8151" lon="3.058069">
        <ele>18.242261</ele>
        <time>2023-08-27T08:56:19.000Z</time>
      </trkpt>
      <trkpt lat="50.815127" lon="3.058029">
        <ele>18.234985</ele>
        <time>2023-08-27T08:56:19.000Z</time>
      </trkpt>
      <trkpt lat="50.815198" lon="3.05776">
        <ele>18.197622</ele>
        <time>2023-08-27T08:56:21.000Z</time>
      </trkpt>
      <trkpt lat="50.816018" lon="3.055109">
        <ele>17.886326</ele>
        <time>2023-08-27T08:56:42.000Z</time>
      </trkpt>
      <trkpt lat="50.816672" lon="3.053016">
        <ele>17.851259</ele>
        <time>2023-08-27T08:56:58.000Z</time>
      </trkpt>
      <trkpt lat="50.816893" lon="3.052166">
        <ele>17.875804</ele>
        <time>2023-08-27T08:57:04.000Z</time>
      </trkpt>
      <trkpt lat="50.816929" lon="3.052096">
        <ele>17.878014</ele>
        <time>2023-08-27T08:57:05.000Z</time>
      </trkpt>
      <trkpt lat="50.816969" lon="3.051879">
        <ele>17.884335</ele>
        <time>2023-08-27T08:57:07.000Z</time>
      </trkpt>
      <trkpt lat="50.817" lon="3.051771">
        <ele>17.910076</ele>
        <time>2023-08-27T08:57:08.000Z</time>
      </trkpt>
      <trkpt lat="50.817161" lon="3.051203">
        <ele>18.233089</ele>
        <time>2023-08-27T08:57:12.000Z</time>
      </trkpt>
      <trkpt lat="50.817333" lon="3.050582">
        <ele>18.57769</ele>
        <time>2023-08-27T08:57:17.000Z</time>
      </trkpt>
      <trkpt lat="50.817684" lon="3.049224">
        <ele>19.328048</ele>
        <time>2023-08-27T08:57:27.000Z</time>
      </trkpt>
      <trkpt lat="50.817705" lon="3.049157">
        <ele>19.422717</ele>
        <time>2023-08-27T08:57:28.000Z</time>
      </trkpt>
      <trkpt lat="50.817761" lon="3.049011">
        <ele>19.677599</ele>
        <time>2023-08-27T08:57:29.000Z</time>
      </trkpt>
      <trkpt lat="50.817809" lon="3.048755">
        <ele>20.082415</ele>
        <time>2023-08-27T08:57:31.000Z</time>
      </trkpt>
      <trkpt lat="50.817826" lon="3.048688">
        <ele>20.195963</ele>
        <time>2023-08-27T08:57:32.000Z</time>
      </trkpt>
      <trkpt lat="50.818805" lon="3.045121">
        <ele>26.704917</ele>
        <time>2023-08-27T08:57:59.000Z</time>
      </trkpt>
      <trkpt lat="50.819024" lon="3.044255">
        <ele>28.420835</ele>
        <time>2023-08-27T08:58:06.000Z</time>
      </trkpt>
      <trkpt lat="50.819153" lon="3.04376">
        <ele>29.381742</ele>
        <time>2023-08-27T08:58:10.000Z</time>
      </trkpt>
      <trkpt lat="50.820105" lon="3.040295">
        <ele>34.293749</ele>
        <time>2023-08-27T08:58:37.000Z</time>
      </trkpt>
      <trkpt lat="50.820106" lon="3.040235">
        <ele>34.332726</ele>
        <time>2023-08-27T08:58:37.000Z</time>
      </trkpt>
      <trkpt lat="50.820722" lon="3.038141">
        <ele>35.016437</ele>
        <time>2023-08-27T08:58:53.000Z</time>
      </trkpt>
      <trkpt lat="50.820752" lon="3.038053">
        <ele>34.960585</ele>
        <time>2023-08-27T08:58:54.000Z</time>
      </trkpt>
      <trkpt lat="50.822459" lon="3.032285">
        <ele>31.512801</ele>
        <time>2023-08-27T08:59:39.000Z</time>
      </trkpt>
      <trkpt lat="50.822601" lon="3.031751">
        <ele>31.260568</ele>
        <time>2023-08-27T08:59:43.000Z</time>
      </trkpt>
      <trkpt lat="50.823145" lon="3.029957">
        <ele>31.018028</ele>
        <time>2023-08-27T08:59:57.000Z</time>
      </trkpt>
      <trkpt lat="50.823544" lon="3.028615">
        <ele>31.179632</ele>
        <time>2023-08-27T09:00:07.000Z</time>
      </trkpt>
      <trkpt lat="50.823558" lon="3.028548">
        <ele>31.188675</ele>
        <time>2023-08-27T09:00:07.000Z</time>
      </trkpt>
      <trkpt lat="50.826073" lon="3.020117">
        <ele>34.706714</ele>
        <time>2023-08-27T09:01:12.000Z</time>
      </trkpt>
      <trkpt lat="50.826459" lon="3.018788">
        <ele>34.928821</ele>
        <time>2023-08-27T09:01:22.000Z</time>
      </trkpt>
      <trkpt lat="50.826935" lon="3.017196">
        <ele>35.003151</ele>
        <time>2023-08-27T09:01:34.000Z</time>
      </trkpt>
      <trkpt lat="50.827665" lon="3.014966">
        <ele>35.001452</ele>
        <time>2023-08-27T09:01:52.000Z</time>
      </trkpt>
      <trkpt lat="50.827717" lon="3.014853">
        <ele>35.01562</ele>
        <time>2023-08-27T09:01:53.000Z</time>
      </trkpt>
      <trkpt lat="50.827816" lon="3.014845">
        <ele>35.032771</ele>
        <time>2023-08-27T09:01:54.000Z</time>
      </trkpt>
      <trkpt lat="50.827869" lon="3.014817">
        <ele>35.041542</ele>
        <time>2023-08-27T09:01:55.000Z</time>
      </trkpt>
      <trkpt lat="50.827926" lon="3.014683">
        <ele>35.058792</ele>
        <time>2023-08-27T09:01:56.000Z</time>
      </trkpt>
      <trkpt lat="50.827947" lon="3.014604">
        <ele>35.067538</ele>
        <time>2023-08-27T09:01:57.000Z</time>
      </trkpt>
      <trkpt lat="50.827943" lon="3.01446">
        <ele>35.081584</ele>
        <time>2023-08-27T09:01:58.000Z</time>
      </trkpt>
      <trkpt lat="50.827894" lon="3.014342">
        <ele>35.095387</ele>
        <time>2023-08-27T09:01:59.000Z</time>
      </trkpt>
      <trkpt lat="50.827855" lon="3.014294">
        <ele>35.10307</ele>
        <time>2023-08-27T09:02:00.000Z</time>
      </trkpt>
      <trkpt lat="50.82789" lon="3.014173">
        <ele>35.116449</ele>
        <time>2023-08-27T09:02:01.000Z</time>
      </trkpt>
      <trkpt lat="50.828065" lon="3.013521">
        <ele>35.188283</ele>
        <time>2023-08-27T09:02:06.000Z</time>
      </trkpt>
      <trkpt lat="50.828112" lon="3.013395">
        <ele>35.202929</ele>
        <time>2023-08-27T09:02:07.000Z</time>
      </trkpt>
      <trkpt lat="50.828105" lon="3.013391">
        <ele>35.203019</ele>
        <time>2023-08-27T09:02:07.000Z</time>
      </trkpt>
      <trkpt lat="50.828291" lon="3.01266">
        <ele>35.328774</ele>
        <time>2023-08-27T09:02:13.000Z</time>
      </trkpt>
      <trkpt lat="50.828935" lon="3.010425">
        <ele>35.750468</ele>
        <time>2023-08-27T09:02:30.000Z</time>
      </trkpt>
      <trkpt lat="50.829648" lon="3.008022">
        <ele>35.969188</ele>
        <time>2023-08-27T09:02:49.000Z</time>
      </trkpt>
      <trkpt lat="50.829675" lon="3.00794">
        <ele>36.003491</ele>
        <time>2023-08-27T09:02:50.000Z</time>
      </trkpt>
      <trkpt lat="50.829703" lon="3.007878">
        <ele>36.033408</ele>
        <time>2023-08-27T09:02:51.000Z</time>
      </trkpt>
      <trkpt lat="50.829904" lon="3.007164">
        <ele>36.349354</ele>
        <time>2023-08-27T09:02:56.000Z</time>
      </trkpt>
      <trkpt lat="50.830165" lon="3.00631">
        <ele>36.726185</ele>
        <time>2023-08-27T09:03:03.000Z</time>
      </trkpt>
      <trkpt lat="50.830475" lon="3.005287">
        <ele>37.240237</ele>
        <time>2023-08-27T09:03:11.000Z</time>
      </trkpt>
      <trkpt lat="50.830675" lon="3.004589">
        <ele>37.776133</ele>
        <time>2023-08-27T09:03:16.000Z</time>
      </trkpt>
      <trkpt lat="50.831795" lon="3.000834">
        <ele>40.51429</ele>
        <time>2023-08-27T09:03:45.000Z</time>
      </trkpt>
      <trkpt lat="50.831933" lon="3.000471">
        <ele>40.78143</ele>
        <time>2023-08-27T09:03:48.000Z</time>
      </trkpt>
      <trkpt lat="50.832101" lon="2.999904">
        <ele>40.783952</ele>
        <time>2023-08-27T09:03:52.000Z</time>
      </trkpt>
      <trkpt lat="50.832167" lon="2.999572">
        <ele>40.718726</ele>
        <time>2023-08-27T09:03:54.000Z</time>
      </trkpt>
      <trkpt lat="50.832053" lon="2.999855">
        <ele>40.654596</ele>
        <time>2023-08-27T09:03:56.000Z</time>
      </trkpt>
      <trkpt lat="50.83188" lon="3.000445">
        <ele>40.533118</ele>
        <time>2023-08-27T09:04:01.000Z</time>
      </trkpt>
      <trkpt lat="50.831798" lon="3.000827">
        <ele>40.452229</ele>
        <time>2023-08-27T09:04:04.000Z</time>
      </trkpt>
      <trkpt lat="50.831769" lon="3.000934">
        <ele>40.431725</ele>
        <time>2023-08-27T09:04:05.000Z</time>
      </trkpt>
      <trkpt lat="50.830673" lon="3.004597">
        <ele>37.804441</ele>
        <time>2023-08-27T09:04:33.000Z</time>
      </trkpt>
      <trkpt lat="50.830468" lon="3.005282">
        <ele>37.329367</ele>
        <time>2023-08-27T09:04:38.000Z</time>
      </trkpt>
      <trkpt lat="50.83016" lon="3.006307">
        <ele>36.620839</ele>
        <time>2023-08-27T09:04:46.000Z</time>
      </trkpt>
      <trkpt lat="50.829908" lon="3.007163">
        <ele>36.304184</ele>
        <time>2023-08-27T09:04:53.000Z</time>
      </trkpt>
      <trkpt lat="50.82969" lon="3.007867">
        <ele>36.14116</ele>
        <time>2023-08-27T09:04:59.000Z</time>
      </trkpt>
      <trkpt lat="50.829669" lon="3.007936">
        <ele>36.12575</ele>
        <time>2023-08-27T09:05:00.000Z</time>
      </trkpt>
      <trkpt lat="50.829648" lon="3.008021">
        <ele>36.108042</ele>
        <time>2023-08-27T09:05:01.000Z</time>
      </trkpt>
      <trkpt lat="50.828952" lon="3.010428">
        <ele>35.679974</ele>
        <time>2023-08-27T09:05:20.000Z</time>
      </trkpt>
      <trkpt lat="50.828291" lon="3.012658">
        <ele>35.281965</ele>
        <time>2023-08-27T09:05:37.000Z</time>
      </trkpt>
      <trkpt lat="50.828136" lon="3.013089">
        <ele>35.176843</ele>
        <time>2023-08-27T09:05:40.000Z</time>
      </trkpt>
      <trkpt lat="50.828097" lon="3.013175">
        <ele>35.157254</ele>
        <time>2023-08-27T09:05:41.000Z</time>
      </trkpt>
      <trkpt lat="50.828012" lon="3.01341">
        <ele>35.098056</ele>
        <time>2023-08-27T09:05:43.000Z</time>
      </trkpt>
      <trkpt lat="50.827793" lon="3.014112">
        <ele>34.931222</ele>
        <time>2023-08-27T09:05:48.000Z</time>
      </trkpt>
      <trkpt lat="50.827767" lon="3.014251">
        <ele>34.899693</ele>
        <time>2023-08-27T09:05:49.000Z</time>
      </trkpt>
      <trkpt lat="50.827722" lon="3.014246">
        <ele>34.920962</ele>
        <time>2023-08-27T09:05:50.000Z</time>
      </trkpt>
      <trkpt lat="50.827623" lon="3.014337">
        <ele>34.998043</ele>
        <time>2023-08-27T09:05:51.000Z</time>
      </trkpt>
      <trkpt lat="50.827583" lon="3.014403">
        <ele>35.036783</ele>
        <time>2023-08-27T09:05:52.000Z</time>
      </trkpt>
      <trkpt lat="50.827595" lon="3.014408">
        <ele>35.039644</ele>
        <time>2023-08-27T09:05:52.000Z</time>
      </trkpt>
      <trkpt lat="50.827576" lon="3.014433">
        <ele>35.058727</ele>
        <time>2023-08-27T09:05:52.000Z</time>
      </trkpt>
      <trkpt lat="50.827565" lon="3.014547">
        <ele>35.114061</ele>
        <time>2023-08-27T09:05:53.000Z</time>
      </trkpt>
      <trkpt lat="50.827474" lon="3.014613">
        <ele>35.183951</ele>
        <time>2023-08-27T09:05:54.000Z</time>
      </trkpt>
      <trkpt lat="50.827119" lon="3.014956">
        <ele>35.485156</ele>
        <time>2023-08-27T09:05:59.000Z</time>
      </trkpt>
      <trkpt lat="50.827084" lon="3.014984">
        <ele>35.513503</ele>
        <time>2023-08-27T09:05:59.000Z</time>
      </trkpt>
      <trkpt lat="50.826086" lon="3.015711">
        <ele>36.478522</ele>
        <time>2023-08-27T09:06:11.000Z</time>
      </trkpt>
      <trkpt lat="50.82416" lon="3.016706">
        <ele>40.105318</ele>
        <time>2023-08-27T09:06:34.000Z</time>
      </trkpt>
      <trkpt lat="50.8219" lon="3.01781">
        <ele>42.31725</ele>
        <time>2023-08-27T09:07:00.000Z</time>
      </trkpt>
      <trkpt lat="50.819951" lon="3.0191">
        <ele>42.425795</ele>
        <time>2023-08-27T09:07:23.000Z</time>
      </trkpt>
      <trkpt lat="50.819024" lon="3.019678">
        <ele>42.401737</ele>
        <time>2023-08-27T09:07:34.000Z</time>
      </trkpt>
      <trkpt lat="50.818113" lon="3.020278">
        <ele>42.566905</ele>
        <time>2023-08-27T09:07:45.000Z</time>
      </trkpt>
      <trkpt lat="50.818037" lon="3.020321">
        <ele>42.58014</ele>
        <time>2023-08-27T09:07:46.000Z</time>
      </trkpt>
      <trkpt lat="50.817577" lon="3.020621">
        <ele>42.4878</ele>
        <time>2023-08-27T09:07:52.000Z</time>
      </trkpt>
      <trkpt lat="50.817534" lon="3.020643">
        <ele>42.467571</ele>
        <time>2023-08-27T09:07:53.000Z</time>
      </trkpt>
      <trkpt lat="50.817014" lon="3.020977">
        <ele>42.131329</ele>
        <time>2023-08-27T09:07:59.000Z</time>
      </trkpt>
      <trkpt lat="50.816797" lon="3.021117">
        <ele>41.98803</ele>
        <time>2023-08-27T09:08:02.000Z</time>
      </trkpt>
      <trkpt lat="50.81643" lon="3.021331">
        <ele>41.7569</ele>
        <time>2023-08-27T09:08:06.000Z</time>
      </trkpt>
      <trkpt lat="50.816" lon="3.021617">
        <ele>41.277891</ele>
        <time>2023-08-27T09:08:11.000Z</time>
      </trkpt>
      <trkpt lat="50.815821" lon="3.021726">
        <ele>40.867343</ele>
        <time>2023-08-27T09:08:13.000Z</time>
      </trkpt>
      <trkpt lat="50.81581" lon="3.021747">
        <ele>40.821381</ele>
        <time>2023-08-27T09:08:13.000Z</time>
      </trkpt>
      <trkpt lat="50.815698" lon="3.021824">
        <ele>40.524805</ele>
        <time>2023-08-27T09:08:14.000Z</time>
      </trkpt>
      <trkpt lat="50.815477" lon="3.021998">
        <ele>39.991724</ele>
        <time>2023-08-27T09:08:17.000Z</time>
      </trkpt>
      <trkpt lat="50.815193" lon="3.022162">
        <ele>39.312987</ele>
        <time>2023-08-27T09:08:20.000Z</time>
      </trkpt>
      <trkpt lat="50.814905" lon="3.022362">
        <ele>38.61752</ele>
        <time>2023-08-27T09:08:23.000Z</time>
      </trkpt>
      <trkpt lat="50.81485" lon="3.022374">
        <ele>38.528139</ele>
        <time>2023-08-27T09:08:24.000Z</time>
      </trkpt>
      <trkpt lat="50.814227" lon="3.022722">
        <ele>36.979694</ele>
        <time>2023-08-27T09:08:31.000Z</time>
      </trkpt>
      <trkpt lat="50.814201" lon="3.022739">
        <ele>36.862742</ele>
        <time>2023-08-27T09:08:31.000Z</time>
      </trkpt>
      <trkpt lat="50.813037" lon="3.023071">
        <ele>33.808803</ele>
        <time>2023-08-27T09:08:44.000Z</time>
      </trkpt>
      <trkpt lat="50.812362" lon="3.023559">
        <ele>32.601127</ele>
        <time>2023-08-27T09:08:52.000Z</time>
      </trkpt>
      <trkpt lat="50.81201" lon="3.023746">
        <ele>32.318469</ele>
        <time>2023-08-27T09:08:56.000Z</time>
      </trkpt>
      <trkpt lat="50.808825" lon="3.024639">
        <ele>31.847566</ele>
        <time>2023-08-27T09:09:32.000Z</time>
      </trkpt>
      <trkpt lat="50.807907" lon="3.025166">
        <ele>31.82557</ele>
        <time>2023-08-27T09:09:43.000Z</time>
      </trkpt>
      <trkpt lat="50.807277" lon="3.025584">
        <ele>31.243174</ele>
        <time>2023-08-27T09:09:51.000Z</time>
      </trkpt>
      <trkpt lat="50.806687" lon="3.025902">
        <ele>29.815507</ele>
        <time>2023-08-27T09:09:58.000Z</time>
      </trkpt>
      <trkpt lat="50.804079" lon="3.026858">
        <ele>22.196684</ele>
        <time>2023-08-27T09:10:28.000Z</time>
      </trkpt>
      <trkpt lat="50.802791" lon="3.027177">
        <ele>19.78957</ele>
        <time>2023-08-27T09:10:42.000Z</time>
      </trkpt>
      <trkpt lat="50.802632" lon="3.027239">
        <ele>19.523047</ele>
        <time>2023-08-27T09:10:44.000Z</time>
      </trkpt>
      <trkpt lat="50.80019" lon="3.028201">
        <ele>18.002148</ele>
        <time>2023-08-27T09:11:12.000Z</time>
      </trkpt>
      <trkpt lat="50.799884" lon="3.028318">
        <ele>17.939795</ele>
        <time>2023-08-27T09:11:16.000Z</time>
      </trkpt>
      <trkpt lat="50.799472" lon="3.028468">
        <ele>17.856941</ele>
        <time>2023-08-27T09:11:21.000Z</time>
      </trkpt>
      <trkpt lat="50.799025" lon="3.02849">
        <ele>17.768147</ele>
        <time>2023-08-27T09:11:26.000Z</time>
      </trkpt>
      <trkpt lat="50.798377" lon="3.028487">
        <ele>17.645498</ele>
        <time>2023-08-27T09:11:33.000Z</time>
      </trkpt>
      <trkpt lat="50.796769" lon="3.028314">
        <ele>17.4124</ele>
        <time>2023-08-27T09:11:51.000Z</time>
      </trkpt>
      <trkpt lat="50.798377" lon="3.028475">
        <ele>17.62555</ele>
        <time>2023-08-27T09:12:09.000Z</time>
      </trkpt>
      <trkpt lat="50.79903" lon="3.028483">
        <ele>17.753854</ele>
        <time>2023-08-27T09:12:16.000Z</time>
      </trkpt>
      <trkpt lat="50.799487" lon="3.02846">
        <ele>17.842209</ele>
        <time>2023-08-27T09:12:21.000Z</time>
      </trkpt>
      <trkpt lat="50.799891" lon="3.028324">
        <ele>17.924655</ele>
        <time>2023-08-27T09:12:26.000Z</time>
      </trkpt>
      <trkpt lat="50.800192" lon="3.028213">
        <ele>17.993097</ele>
        <time>2023-08-27T09:12:29.000Z</time>
      </trkpt>
      <trkpt lat="50.802642" lon="3.027242">
        <ele>19.642055</ele>
        <time>2023-08-27T09:12:57.000Z</time>
      </trkpt>
      <trkpt lat="50.802787" lon="3.027179">
        <ele>19.847023</ele>
        <time>2023-08-27T09:12:59.000Z</time>
      </trkpt>
      <trkpt lat="50.804089" lon="3.026865">
        <ele>22.356082</ele>
        <time>2023-08-27T09:13:14.000Z</time>
      </trkpt>
      <trkpt lat="50.80668" lon="3.025909">
        <ele>30.007926</ele>
        <time>2023-08-27T09:13:44.000Z</time>
      </trkpt>
      <trkpt lat="50.807276" lon="3.025589">
        <ele>31.415967</ele>
        <time>2023-08-27T09:13:51.000Z</time>
      </trkpt>
      <trkpt lat="50.807906" lon="3.025178">
        <ele>31.63323</ele>
        <time>2023-08-27T09:13:59.000Z</time>
      </trkpt>
      <trkpt lat="50.808812" lon="3.024635">
        <ele>31.948658</ele>
        <time>2023-08-27T09:14:10.000Z</time>
      </trkpt>
      <trkpt lat="50.811998" lon="3.023746">
        <ele>32.103167</ele>
        <time>2023-08-27T09:14:46.000Z</time>
      </trkpt>
      <trkpt lat="50.812378" lon="3.023576">
        <ele>32.243824</ele>
        <time>2023-08-27T09:14:50.000Z</time>
      </trkpt>
      <trkpt lat="50.813044" lon="3.023084">
        <ele>33.976348</ele>
        <time>2023-08-27T09:14:58.000Z</time>
      </trkpt>
      <trkpt lat="50.814197" lon="3.022741">
        <ele>36.752268</ele>
        <time>2023-08-27T09:15:11.000Z</time>
      </trkpt>
      <trkpt lat="50.814231" lon="3.02271">
        <ele>36.862134</ele>
        <time>2023-08-27T09:15:11.000Z</time>
      </trkpt>
      <trkpt lat="50.814406" lon="3.022699">
        <ele>37.273368</ele>
        <time>2023-08-27T09:15:13.000Z</time>
      </trkpt>
      <trkpt lat="50.814689" lon="3.022579">
        <ele>37.972038</ele>
        <time>2023-08-27T09:15:16.000Z</time>
      </trkpt>
      <trkpt lat="50.814888" lon="3.022359">
        <ele>38.605266</ele>
        <time>2023-08-27T09:15:19.000Z</time>
      </trkpt>
      <trkpt lat="50.815195" lon="3.022168">
        <ele>39.369737</ele>
        <time>2023-08-27T09:15:23.000Z</time>
      </trkpt>
      <trkpt lat="50.815465" lon="3.021995">
        <ele>40.115802</ele>
        <time>2023-08-27T09:15:26.000Z</time>
      </trkpt>
      <trkpt lat="50.815696" lon="3.021838">
        <ele>40.70177</ele>
        <time>2023-08-27T09:15:29.000Z</time>
      </trkpt>
      <trkpt lat="50.815804" lon="3.021751">
        <ele>40.925751</ele>
        <time>2023-08-27T09:15:30.000Z</time>
      </trkpt>
      <trkpt lat="50.81583" lon="3.021723">
        <ele>40.946223</ele>
        <time>2023-08-27T09:15:30.000Z</time>
      </trkpt>
      <trkpt lat="50.815991" lon="3.021612">
        <ele>41.129164</ele>
        <time>2023-08-27T09:15:32.000Z</time>
      </trkpt>
      <trkpt lat="50.816433" lon="3.02133">
        <ele>41.596241</ele>
        <time>2023-08-27T09:15:37.000Z</time>
      </trkpt>
      <trkpt lat="50.816793" lon="3.021119">
        <ele>41.977346</ele>
        <time>2023-08-27T09:15:41.000Z</time>
      </trkpt>
      <trkpt lat="50.81701" lon="3.020974">
        <ele>42.213587</ele>
        <time>2023-08-27T09:15:44.000Z</time>
      </trkpt>
      <trkpt lat="50.817533" lon="3.020652">
        <ele>42.615552</ele>
        <time>2023-08-27T09:15:50.000Z</time>
      </trkpt>
      <trkpt lat="50.817563" lon="3.020633">
        <ele>42.610377</ele>
        <time>2023-08-27T09:15:50.000Z</time>
      </trkpt>
      <trkpt lat="50.818037" lon="3.020328">
        <ele>42.533127</ele>
        <time>2023-08-27T09:15:56.000Z</time>
      </trkpt>
      <trkpt lat="50.818113" lon="3.020284">
        <ele>42.52089</ele>
        <time>2023-08-27T09:15:57.000Z</time>
      </trkpt>
      <trkpt lat="50.819035" lon="3.019675">
        <ele>42.368177</ele>
        <time>2023-08-27T09:16:08.000Z</time>
      </trkpt>
      <trkpt lat="50.819941" lon="3.019087">
        <ele>42.455834</ele>
        <time>2023-08-27T09:16:19.000Z</time>
      </trkpt>
      <trkpt lat="50.8219" lon="3.017807">
        <ele>42.376981</ele>
        <time>2023-08-27T09:16:43.000Z</time>
      </trkpt>
      <trkpt lat="50.824164" lon="3.016697">
        <ele>40.241182</ele>
        <time>2023-08-27T09:17:09.000Z</time>
      </trkpt>
      <trkpt lat="50.826096" lon="3.015703">
        <ele>36.564457</ele>
        <time>2023-08-27T09:17:32.000Z</time>
      </trkpt>
      <trkpt lat="50.827081" lon="3.014992">
        <ele>35.351561</ele>
        <time>2023-08-27T09:17:44.000Z</time>
      </trkpt>
      <trkpt lat="50.827126" lon="3.014953">
        <ele>35.308345</ele>
        <time>2023-08-27T09:17:45.000Z</time>
      </trkpt>
      <trkpt lat="50.827269" lon="3.014883">
        <ele>35.138955</ele>
        <time>2023-08-27T09:17:47.000Z</time>
      </trkpt>
      <trkpt lat="50.827391" lon="3.014904">
        <ele>34.999863</ele>
        <time>2023-08-27T09:17:48.000Z</time>
      </trkpt>
      <trkpt lat="50.827459" lon="3.015055">
        <ele>34.861615</ele>
        <time>2023-08-27T09:17:49.000Z</time>
      </trkpt>
      <trkpt lat="50.827499" lon="3.015204">
        <ele>34.852523</ele>
        <time>2023-08-27T09:17:50.000Z</time>
      </trkpt>
      <trkpt lat="50.827413" lon="3.015507">
        <ele>34.865884</ele>
        <time>2023-08-27T09:17:52.000Z</time>
      </trkpt>
      <trkpt lat="50.826932" lon="3.017209">
        <ele>34.938129</ele>
        <time>2023-08-27T09:18:05.000Z</time>
      </trkpt>
      <trkpt lat="50.826456" lon="3.018792">
        <ele>34.877084</ele>
        <time>2023-08-27T09:18:17.000Z</time>
      </trkpt>
      <trkpt lat="50.826069" lon="3.020116">
        <ele>34.781664</ele>
        <time>2023-08-27T09:18:27.000Z</time>
      </trkpt>
      <trkpt lat="50.823147" lon="3.02995">
        <ele>31.014935</ele>
        <time>2023-08-27T09:19:43.000Z</time>
      </trkpt>
      <trkpt lat="50.822601" lon="3.031754">
        <ele>31.312562</ele>
        <time>2023-08-27T09:19:57.000Z</time>
      </trkpt>
      <trkpt lat="50.82246" lon="3.032285">
        <ele>31.509185</ele>
        <time>2023-08-27T09:20:01.000Z</time>
      </trkpt>
      <trkpt lat="50.820757" lon="3.038054">
        <ele>35.137318</ele>
        <time>2023-08-27T09:20:46.000Z</time>
      </trkpt>
      <trkpt lat="50.820728" lon="3.038151">
        <ele>35.191951</ele>
        <time>2023-08-27T09:20:47.000Z</time>
      </trkpt>
      <trkpt lat="50.820109" lon="3.040247">
        <ele>34.463679</ele>
        <time>2023-08-27T09:21:03.000Z</time>
      </trkpt>
      <trkpt lat="50.820093" lon="3.040295">
        <ele>34.440492</ele>
        <time>2023-08-27T09:21:03.000Z</time>
      </trkpt>
      <trkpt lat="50.819168" lon="3.04375">
        <ele>29.398099</ele>
        <time>2023-08-27T09:21:29.000Z</time>
      </trkpt>
      <trkpt lat="50.819026" lon="3.044267">
        <ele>28.384681</ele>
        <time>2023-08-27T09:21:33.000Z</time>
      </trkpt>
      <trkpt lat="50.818801" lon="3.045114">
        <ele>26.672691</ele>
        <time>2023-08-27T09:21:39.000Z</time>
      </trkpt>
      <trkpt lat="50.81784" lon="3.048697">
        <ele>20.016373</ele>
        <time>2023-08-27T09:22:06.000Z</time>
      </trkpt>
      <trkpt lat="50.817815" lon="3.048759">
        <ele>19.918705</ele>
        <time>2023-08-27T09:22:07.000Z</time>
      </trkpt>
      <trkpt lat="50.817759" lon="3.04901">
        <ele>19.740147</ele>
        <time>2023-08-27T09:22:09.000Z</time>
      </trkpt>
      <trkpt lat="50.817702" lon="3.049147">
        <ele>19.627738</ele>
        <time>2023-08-27T09:22:10.000Z</time>
      </trkpt>
      <trkpt lat="50.817684" lon="3.049229">
        <ele>19.568788</ele>
        <time>2023-08-27T09:22:11.000Z</time>
      </trkpt>
      <trkpt lat="50.81732" lon="3.050574">
        <ele>18.562983</ele>
        <time>2023-08-27T09:22:21.000Z</time>
      </trkpt>
      <trkpt lat="50.81716" lon="3.051203">
        <ele>18.101074</ele>
        <time>2023-08-27T09:22:26.000Z</time>
      </trkpt>
      <trkpt lat="50.817007" lon="3.051781">
        <ele>17.94917</ele>
        <time>2023-08-27T09:22:30.000Z</time>
      </trkpt>
      <trkpt lat="50.816979" lon="3.051889">
        <ele>17.941845</ele>
        <time>2023-08-27T09:22:31.000Z</time>
      </trkpt>
      <trkpt lat="50.816921" lon="3.052096">
        <ele>17.927283</ele>
        <time>2023-08-27T09:22:33.000Z</time>
      </trkpt>
      <trkpt lat="50.8169" lon="3.052168">
        <ele>17.922192</ele>
        <time>2023-08-27T09:22:34.000Z</time>
      </trkpt>
      <trkpt lat="50.816669" lon="3.053014">
        <ele>17.865664</ele>
        <time>2023-08-27T09:22:40.000Z</time>
      </trkpt>
      <trkpt lat="50.816023" lon="3.055111">
        <ele>17.896066</ele>
        <time>2023-08-27T09:22:56.000Z</time>
      </trkpt>
      <trkpt lat="50.815201" lon="3.057749">
        <ele>18.198849</ele>
        <time>2023-08-27T09:23:17.000Z</time>
      </trkpt>
      <trkpt lat="50.815116" lon="3.058026">
        <ele>18.239025</ele>
        <time>2023-08-27T09:23:19.000Z</time>
      </trkpt>
      <trkpt lat="50.815098" lon="3.058081">
        <ele>18.24682</ele>
        <time>2023-08-27T09:23:19.000Z</time>
      </trkpt>
      <trkpt lat="50.815017" lon="3.05834">
        <ele>18.288595</ele>
        <time>2023-08-27T09:23:21.000Z</time>
      </trkpt>
      <trkpt lat="50.814995" lon="3.058441">
        <ele>18.302011</ele>
        <time>2023-08-27T09:23:22.000Z</time>
      </trkpt>
      <trkpt lat="50.814576" lon="3.059773">
        <ele>18.449836</ele>
        <time>2023-08-27T09:23:32.000Z</time>
      </trkpt>
      <trkpt lat="50.814074" lon="3.061389">
        <ele>18.569301</ele>
        <time>2023-08-27T09:23:45.000Z</time>
      </trkpt>
      <trkpt lat="50.814035" lon="3.061499">
        <ele>18.577536</ele>
        <time>2023-08-27T09:23:46.000Z</time>
      </trkpt>
      <trkpt lat="50.813943" lon="3.061803">
        <ele>18.570486</ele>
        <time>2023-08-27T09:23:48.000Z</time>
      </trkpt>
      <trkpt lat="50.813916" lon="3.06191">
        <ele>18.560686</ele>
        <time>2023-08-27T09:23:49.000Z</time>
      </trkpt>
      <trkpt lat="50.813557" lon="3.063019">
        <ele>18.459088</ele>
        <time>2023-08-27T09:23:58.000Z</time>
      </trkpt>
      <trkpt lat="50.812839" lon="3.065366">
        <ele>18.151535</ele>
        <time>2023-08-27T09:24:16.000Z</time>
      </trkpt>
      <trkpt lat="50.812792" lon="3.065517">
        <ele>18.126432</ele>
        <time>2023-08-27T09:24:17.000Z</time>
      </trkpt>
      <trkpt lat="50.812717" lon="3.065749">
        <ele>18.086983</ele>
        <time>2023-08-27T09:24:19.000Z</time>
      </trkpt>
      <trkpt lat="50.81261" lon="3.066058">
        <ele>18.033903</ele>
        <time>2023-08-27T09:24:21.000Z</time>
      </trkpt>
      <trkpt lat="50.812206" lon="3.067371">
        <ele>17.986019</ele>
        <time>2023-08-27T09:24:31.000Z</time>
      </trkpt>
      <trkpt lat="50.812164" lon="3.067503">
        <ele>17.998455</ele>
        <time>2023-08-27T09:24:32.000Z</time>
      </trkpt>
      <trkpt lat="50.812099" lon="3.067771">
        <ele>18.024928</ele>
        <time>2023-08-27T09:24:34.000Z</time>
      </trkpt>
      <trkpt lat="50.811984" lon="3.068095">
        <ele>18.057782</ele>
        <time>2023-08-27T09:24:37.000Z</time>
      </trkpt>
      <trkpt lat="50.811992" lon="3.0681">
        <ele>18.058699</ele>
        <time>2023-08-27T09:24:37.000Z</time>
      </trkpt>
      <trkpt lat="50.811821" lon="3.068644">
        <ele>18.112699</ele>
        <time>2023-08-27T09:24:41.000Z</time>
      </trkpt>
      <trkpt lat="50.81183" lon="3.068637">
        <ele>18.112843</ele>
        <time>2023-08-27T09:24:41.000Z</time>
      </trkpt>
      <trkpt lat="50.811808" lon="3.068698">
        <ele>18.118101</ele>
        <time>2023-08-27T09:24:41.000Z</time>
      </trkpt>
      <trkpt lat="50.811747" lon="3.068842">
        <ele>18.134307</ele>
        <time>2023-08-27T09:24:42.000Z</time>
      </trkpt>
      <trkpt lat="50.811101" lon="3.070922">
        <ele>18.692728</ele>
        <time>2023-08-27T09:24:58.000Z</time>
      </trkpt>
      <trkpt lat="50.810831" lon="3.071756">
        <ele>18.951178</ele>
        <time>2023-08-27T09:25:05.000Z</time>
      </trkpt>
      <trkpt lat="50.810682" lon="3.072215">
        <ele>19.083784</ele>
        <time>2023-08-27T09:25:09.000Z</time>
      </trkpt>
      <trkpt lat="50.810545" lon="3.072684">
        <ele>19.215207</ele>
        <time>2023-08-27T09:25:13.000Z</time>
      </trkpt>
      <trkpt lat="50.810214" lon="3.073703">
        <ele>19.503101</ele>
        <time>2023-08-27T09:25:21.000Z</time>
      </trkpt>
      <trkpt lat="50.810134" lon="3.073945">
        <ele>19.573234</ele>
        <time>2023-08-27T09:25:23.000Z</time>
      </trkpt>
      <trkpt lat="50.809696" lon="3.075384">
        <ele>20.079871</ele>
        <time>2023-08-27T09:25:34.000Z</time>
      </trkpt>
      <trkpt lat="50.809665" lon="3.075542">
        <ele>20.139345</ele>
        <time>2023-08-27T09:25:35.000Z</time>
      </trkpt>
      <trkpt lat="50.809665" lon="3.07564">
        <ele>20.172721</ele>
        <time>2023-08-27T09:25:36.000Z</time>
      </trkpt>
      <trkpt lat="50.80972" lon="3.075978">
        <ele>20.297558</ele>
        <time>2023-08-27T09:25:38.000Z</time>
      </trkpt>
      <trkpt lat="50.809862" lon="3.076554">
        <ele>20.509849</ele>
        <time>2023-08-27T09:25:42.000Z</time>
      </trkpt>
      <trkpt lat="50.8099" lon="3.076683">
        <ele>20.558576</ele>
        <time>2023-08-27T09:25:43.000Z</time>
      </trkpt>
      <trkpt lat="50.809967" lon="3.07703">
        <ele>20.675036</ele>
        <time>2023-08-27T09:25:46.000Z</time>
      </trkpt>
      <trkpt lat="50.810088" lon="3.077591">
        <ele>20.594999</ele>
        <time>2023-08-27T09:25:50.000Z</time>
      </trkpt>
      <trkpt lat="50.810142" lon="3.078237">
        <ele>20.505533</ele>
        <time>2023-08-27T09:25:55.000Z</time>
      </trkpt>
      <trkpt lat="50.810133" lon="3.078565">
        <ele>20.458609</ele>
        <time>2023-08-27T09:25:57.000Z</time>
      </trkpt>
      <trkpt lat="50.810087" lon="3.078696">
        <ele>20.439102</ele>
        <time>2023-08-27T09:25:58.000Z</time>
      </trkpt>
      <trkpt lat="50.809892" lon="3.079323">
        <ele>20.343534</ele>
        <time>2023-08-27T09:26:03.000Z</time>
      </trkpt>
      <trkpt lat="50.809637" lon="3.080091">
        <ele>19.976145</ele>
        <time>2023-08-27T09:26:09.000Z</time>
      </trkpt>
      <trkpt lat="50.809462" lon="3.08059">
        <ele>19.599361</ele>
        <time>2023-08-27T09:26:13.000Z</time>
      </trkpt>
      <trkpt lat="50.808993" lon="3.081943">
        <ele>18.567293</ele>
        <time>2023-08-27T09:26:24.000Z</time>
      </trkpt>
      <trkpt lat="50.80857" lon="3.083234">
        <ele>17.620122</ele>
        <time>2023-08-27T09:26:34.000Z</time>
      </trkpt>
      <trkpt lat="50.808435" lon="3.083762">
        <ele>17.251002</ele>
        <time>2023-08-27T09:26:38.000Z</time>
      </trkpt>
      <trkpt lat="50.808314" lon="3.084097">
        <ele>17.003996</ele>
        <time>2023-08-27T09:26:41.000Z</time>
      </trkpt>
      <trkpt lat="50.808195" lon="3.084388">
        <ele>16.787255</ele>
        <time>2023-08-27T09:26:43.000Z</time>
      </trkpt>
      <trkpt lat="50.808054" lon="3.084716">
        <ele>16.533474</ele>
        <time>2023-08-27T09:26:46.000Z</time>
      </trkpt>
      <trkpt lat="50.807963" lon="3.084986">
        <ele>16.454138</ele>
        <time>2023-08-27T09:26:48.000Z</time>
      </trkpt>
      <trkpt lat="50.807815" lon="3.085398">
        <ele>16.33942</ele>
        <time>2023-08-27T09:26:51.000Z</time>
      </trkpt>
      <trkpt lat="50.807224" lon="3.087176">
        <ele>15.82866</ele>
        <time>2023-08-27T09:27:05.000Z</time>
      </trkpt>
      <trkpt lat="50.807078" lon="3.08765">
        <ele>15.730162</ele>
        <time>2023-08-27T09:27:09.000Z</time>
      </trkpt>
      <trkpt lat="50.806731" lon="3.088528">
        <ele>15.546089</ele>
        <time>2023-08-27T09:27:16.000Z</time>
      </trkpt>
      <trkpt lat="50.806655" lon="3.088647">
        <ele>15.51415</ele>
        <time>2023-08-27T09:27:17.000Z</time>
      </trkpt>
      <trkpt lat="50.806592" lon="3.0887">
        <ele>15.496202</ele>
        <time>2023-08-27T09:27:18.000Z</time>
      </trkpt>
      <trkpt lat="50.806483" lon="3.088732">
        <ele>15.46261</ele>
        <time>2023-08-27T09:27:19.000Z</time>
      </trkpt>
      <trkpt lat="50.806392" lon="3.088848">
        <ele>15.428743</ele>
        <time>2023-08-27T09:27:20.000Z</time>
      </trkpt>
      <trkpt lat="50.806352" lon="3.089022">
        <ele>15.39521</ele>
        <time>2023-08-27T09:27:21.000Z</time>
      </trkpt>
      <trkpt lat="50.806363" lon="3.089162">
        <ele>15.36945</ele>
        <time>2023-08-27T09:27:22.000Z</time>
      </trkpt>
      <trkpt lat="50.806354" lon="3.089167">
        <ele>15.368726</ele>
        <time>2023-08-27T09:27:22.000Z</time>
      </trkpt>
      <trkpt lat="50.806356" lon="3.089199">
        <ele>15.364206</ele>
        <time>2023-08-27T09:27:22.000Z</time>
      </trkpt>
      <trkpt lat="50.806415" lon="3.089336">
        <ele>15.333333</ele>
        <time>2023-08-27T09:27:23.000Z</time>
      </trkpt>
      <trkpt lat="50.80624" lon="3.090106">
        <ele>15.472912</ele>
        <time>2023-08-27T09:27:29.000Z</time>
      </trkpt>
      <trkpt lat="50.806224" lon="3.090143">
        <ele>15.48468</ele>
        <time>2023-08-27T09:27:29.000Z</time>
      </trkpt>
      <trkpt lat="50.806097" lon="3.090587">
        <ele>15.606953</ele>
        <time>2023-08-27T09:27:32.000Z</time>
      </trkpt>
      <trkpt lat="50.805195" lon="3.093246">
        <ele>16.876551</ele>
        <time>2023-08-27T09:27:53.000Z</time>
      </trkpt>
      <trkpt lat="50.805161" lon="3.093363">
        <ele>16.959314</ele>
        <time>2023-08-27T09:27:54.000Z</time>
      </trkpt>
      <trkpt lat="50.8049" lon="3.094143">
        <ele>17.513756</ele>
        <time>2023-08-27T09:28:00.000Z</time>
      </trkpt>
      <trkpt lat="50.804897" lon="3.09417">
        <ele>17.530736</ele>
        <time>2023-08-27T09:28:00.000Z</time>
      </trkpt>
      <trkpt lat="50.804801" lon="3.094441">
        <ele>17.716463</ele>
        <time>2023-08-27T09:28:02.000Z</time>
      </trkpt>
      <trkpt lat="50.804752" lon="3.094642">
        <ele>17.842048</ele>
        <time>2023-08-27T09:28:04.000Z</time>
      </trkpt>
      <trkpt lat="50.804597" lon="3.095099">
        <ele>18.086371</ele>
        <time>2023-08-27T09:28:08.000Z</time>
      </trkpt>
      <trkpt lat="50.804581" lon="3.095158">
        <ele>18.120224</ele>
        <time>2023-08-27T09:28:08.000Z</time>
      </trkpt>
      <trkpt lat="50.804496" lon="3.095385">
        <ele>18.247278</ele>
        <time>2023-08-27T09:28:10.000Z</time>
      </trkpt>
      <trkpt lat="50.804468" lon="3.095441">
        <ele>18.271845</ele>
        <time>2023-08-27T09:28:11.000Z</time>
      </trkpt>
      <trkpt lat="50.804404" lon="3.095671">
        <ele>18.396456</ele>
        <time>2023-08-27T09:28:13.000Z</time>
      </trkpt>
      <trkpt lat="50.804334" lon="3.09585">
        <ele>18.49739</ele>
        <time>2023-08-27T09:28:14.000Z</time>
      </trkpt>
      <trkpt lat="50.804292" lon="3.095963">
        <ele>18.561116</ele>
        <time>2023-08-27T09:28:15.000Z</time>
      </trkpt>
      <trkpt lat="50.804255" lon="3.096098">
        <ele>18.634954</ele>
        <time>2023-08-27T09:28:16.000Z</time>
      </trkpt>
      <trkpt lat="50.804211" lon="3.096213">
        <ele>18.696572</ele>
        <time>2023-08-27T09:28:17.000Z</time>
      </trkpt>
      <trkpt lat="50.804182" lon="3.096279">
        <ele>18.73245</ele>
        <time>2023-08-27T09:28:18.000Z</time>
      </trkpt>
      <trkpt lat="50.804032" lon="3.096726">
        <ele>18.974102</ele>
        <time>2023-08-27T09:28:22.000Z</time>
      </trkpt>
      <trkpt lat="50.803984" lon="3.096871">
        <ele>19.051682</ele>
        <time>2023-08-27T09:28:23.000Z</time>
      </trkpt>
      <trkpt lat="50.803949" lon="3.096954">
        <ele>19.093727</ele>
        <time>2023-08-27T09:28:24.000Z</time>
      </trkpt>
      <trkpt lat="50.803806" lon="3.097393">
        <ele>19.098304</ele>
        <time>2023-08-27T09:28:27.000Z</time>
      </trkpt>
      <trkpt lat="50.803275" lon="3.098973">
        <ele>18.813796</ele>
        <time>2023-08-27T09:28:40.000Z</time>
      </trkpt>
      <trkpt lat="50.80285" lon="3.100238">
        <ele>18.525738</ele>
        <time>2023-08-27T09:28:50.000Z</time>
      </trkpt>
      <trkpt lat="50.802783" lon="3.100444">
        <ele>18.470499</ele>
        <time>2023-08-27T09:28:52.000Z</time>
      </trkpt>
      <trkpt lat="50.802734" lon="3.100428">
        <ele>18.445096</ele>
        <time>2023-08-27T09:28:53.000Z</time>
      </trkpt>
      <trkpt lat="50.802611" lon="3.100394">
        <ele>18.402146</ele>
        <time>2023-08-27T09:28:54.000Z</time>
      </trkpt>
      <trkpt lat="50.802273" lon="3.100442">
        <ele>18.268874</ele>
        <time>2023-08-27T09:28:58.000Z</time>
      </trkpt>
      <trkpt lat="50.801385" lon="3.100499">
        <ele>17.991936</ele>
        <time>2023-08-27T09:29:08.000Z</time>
      </trkpt>
      <trkpt lat="50.801264" lon="3.100498">
        <ele>17.980313</ele>
        <time>2023-08-27T09:29:09.000Z</time>
      </trkpt>
      <trkpt lat="50.800386" lon="3.100572">
        <ele>17.899715</ele>
        <time>2023-08-27T09:29:19.000Z</time>
      </trkpt>
      <trkpt lat="50.799387" lon="3.100646">
        <ele>17.819407</ele>
        <time>2023-08-27T09:29:30.000Z</time>
      </trkpt>
      <trkpt lat="50.798766" lon="3.100688">
        <ele>17.781426</ele>
        <time>2023-08-27T09:29:37.000Z</time>
      </trkpt>
      <trkpt lat="50.798685" lon="3.100725">
        <ele>17.776922</ele>
        <time>2023-08-27T09:29:38.000Z</time>
      </trkpt>
      <trkpt lat="50.798638" lon="3.100907">
        <ele>17.769535</ele>
        <time>2023-08-27T09:29:39.000Z</time>
      </trkpt>
      <trkpt lat="50.798492" lon="3.100838">
        <ele>17.759719</ele>
        <time>2023-08-27T09:29:41.000Z</time>
      </trkpt>
      <trkpt lat="50.798106" lon="3.100767">
        <ele>17.736171</ele>
        <time>2023-08-27T09:29:45.000Z</time>
      </trkpt>
      <trkpt lat="50.797845" lon="3.100796">
        <ele>17.617619</ele>
        <time>2023-08-27T09:29:48.000Z</time>
      </trkpt>
      <trkpt lat="50.797682" lon="3.100828">
        <ele>17.53801</ele>
        <time>2023-08-27T09:29:50.000Z</time>
      </trkpt>
      <trkpt lat="50.797398" lon="3.10086">
        <ele>17.410405</ele>
        <time>2023-08-27T09:29:53.000Z</time>
      </trkpt>
      <trkpt lat="50.797086" lon="3.100925">
        <ele>17.272587</ele>
        <time>2023-08-27T09:29:56.000Z</time>
      </trkpt>
      <trkpt lat="50.796801" lon="3.100972">
        <ele>17.136273</ele>
        <time>2023-08-27T09:29:59.000Z</time>
      </trkpt>
      <trkpt lat="50.796552" lon="3.101003">
        <ele>17.021689</ele>
        <time>2023-08-27T09:30:02.000Z</time>
      </trkpt>
      <trkpt lat="50.796533" lon="3.100949">
        <ele>17.001809</ele>
        <time>2023-08-27T09:30:02.000Z</time>
      </trkpt>
      <trkpt lat="50.796463" lon="3.100895">
        <ele>16.970094</ele>
        <time>2023-08-27T09:30:03.000Z</time>
      </trkpt>
      <trkpt lat="50.796408" lon="3.100966">
        <ele>16.933922</ele>
        <time>2023-08-27T09:30:04.000Z</time>
      </trkpt>
      <trkpt lat="50.796343" lon="3.101168">
        <ele>16.822681</ele>
        <time>2023-08-27T09:30:06.000Z</time>
      </trkpt>
      <trkpt lat="50.795855" lon="3.101526">
        <ele>16.309767</ele>
        <time>2023-08-27T09:30:12.000Z</time>
      </trkpt>
      <trkpt lat="50.794785" lon="3.102482">
        <ele>15.155302</ele>
        <time>2023-08-27T09:30:26.000Z</time>
      </trkpt>
      <trkpt lat="50.794523" lon="3.102692">
        <ele>14.942399</ele>
        <time>2023-08-27T09:30:29.000Z</time>
      </trkpt>
      <trkpt lat="50.793181" lon="3.103824">
        <ele>13.923066</ele>
        <time>2023-08-27T09:30:46.000Z</time>
      </trkpt>
      <trkpt lat="50.793185" lon="3.103873">
        <ele>13.925013</ele>
        <time>2023-08-27T09:30:46.000Z</time>
      </trkpt>
      <trkpt lat="50.793299" lon="3.104896">
        <ele>13.958143</ele>
        <time>2023-08-27T09:30:53.000Z</time>
      </trkpt>
      <trkpt lat="50.793109" lon="3.104949">
        <ele>13.967727</ele>
        <time>2023-08-27T09:30:55.000Z</time>
      </trkpt>
      <trkpt lat="50.792599" lon="3.104916">
        <ele>13.994</ele>
        <time>2023-08-27T09:31:01.000Z</time>
      </trkpt>
      <trkpt lat="50.792131" lon="3.104791">
        <ele>14.0725</ele>
        <time>2023-08-27T09:31:06.000Z</time>
      </trkpt>
      <trkpt lat="50.791718" lon="3.104602">
        <ele>14.249884</ele>
        <time>2023-08-27T09:31:11.000Z</time>
      </trkpt>
      <trkpt lat="50.791545" lon="3.104502">
        <ele>14.318536</ele>
        <time>2023-08-27T09:31:13.000Z</time>
      </trkpt>
      <trkpt lat="50.790949" lon="3.104024">
        <ele>14.593653</ele>
        <time>2023-08-27T09:31:20.000Z</time>
      </trkpt>
      <trkpt lat="50.790582" lon="3.103541">
        <ele>14.767684</ele>
        <time>2023-08-27T09:31:25.000Z</time>
      </trkpt>
      <trkpt lat="50.790175" lon="3.102843">
        <ele>14.926182</ele>
        <time>2023-08-27T09:31:32.000Z</time>
      </trkpt>
      <trkpt lat="50.789914" lon="3.102256">
        <ele>15.04373</ele>
        <time>2023-08-27T09:31:37.000Z</time>
      </trkpt>
      <trkpt lat="50.789561" lon="3.101277">
        <ele>15.219652</ele>
        <time>2023-08-27T09:31:45.000Z</time>
      </trkpt>
      <trkpt lat="50.789468" lon="3.100971">
        <ele>15.249669</ele>
        <time>2023-08-27T09:31:47.000Z</time>
      </trkpt>
      <trkpt lat="50.789188" lon="3.10014">
        <ele>15.334812</ele>
        <time>2023-08-27T09:31:54.000Z</time>
      </trkpt>
      <trkpt lat="50.788711" lon="3.098676">
        <ele>15.465814</ele>
        <time>2023-08-27T09:32:06.000Z</time>
      </trkpt>
      <trkpt lat="50.788542" lon="3.098205">
        <ele>15.466887</ele>
        <time>2023-08-27T09:32:10.000Z</time>
      </trkpt>
      <trkpt lat="50.788172" lon="3.09704">
        <ele>15.469549</ele>
        <time>2023-08-27T09:32:19.000Z</time>
      </trkpt>
      <trkpt lat="50.787383" lon="3.094755">
        <ele>15.618663</ele>
        <time>2023-08-27T09:32:37.000Z</time>
      </trkpt>
      <trkpt lat="50.785905" lon="3.091435">
        <ele>15.745329</ele>
        <time>2023-08-27T09:33:06.000Z</time>
      </trkpt>
      <trkpt lat="50.78645" lon="3.090913">
        <ele>15.348437</ele>
        <time>2023-08-27T09:33:13.000Z</time>
      </trkpt>
      <trkpt lat="50.786949" lon="3.090567">
        <ele>14.996073</ele>
        <time>2023-08-27T09:33:19.000Z</time>
      </trkpt>
      <trkpt lat="50.787285" lon="3.090397">
        <ele>14.777975</ele>
        <time>2023-08-27T09:33:23.000Z</time>
      </trkpt>
      <trkpt lat="50.788101" lon="3.090125">
        <ele>14.494186</ele>
        <time>2023-08-27T09:33:32.000Z</time>
      </trkpt>
      <trkpt lat="50.788368" lon="3.090055">
        <ele>14.425676</ele>
        <time>2023-08-27T09:33:35.000Z</time>
      </trkpt>
      <trkpt lat="50.788596" lon="3.089996">
        <ele>14.36305</ele>
        <time>2023-08-27T09:33:38.000Z</time>
      </trkpt>
      <trkpt lat="50.788825" lon="3.089935">
        <ele>14.303244</ele>
        <time>2023-08-27T09:33:41.000Z</time>
      </trkpt>
      <trkpt lat="50.789213" lon="3.089813">
        <ele>14.203949</ele>
        <time>2023-08-27T09:33:45.000Z</time>
      </trkpt>
      <trkpt lat="50.790272" lon="3.089516">
        <ele>14.442499</ele>
        <time>2023-08-27T09:33:57.000Z</time>
      </trkpt>
      <trkpt lat="50.790722" lon="3.089364">
        <ele>14.542716</ele>
        <time>2023-08-27T09:34:02.000Z</time>
      </trkpt>
      <trkpt lat="50.791166" lon="3.089119">
        <ele>14.636527</ele>
        <time>2023-08-27T09:34:07.000Z</time>
      </trkpt>
      <trkpt lat="50.791327" lon="3.089011">
        <ele>14.663829</ele>
        <time>2023-08-27T09:34:09.000Z</time>
      </trkpt>
      <trkpt lat="50.7916" lon="3.088787">
        <ele>14.716128</ele>
        <time>2023-08-27T09:34:12.000Z</time>
      </trkpt>
      <trkpt lat="50.792019" lon="3.088385">
        <ele>14.798726</ele>
        <time>2023-08-27T09:34:17.000Z</time>
      </trkpt>
      <trkpt lat="50.792893" lon="3.087347">
        <ele>14.932708</ele>
        <time>2023-08-27T09:34:29.000Z</time>
      </trkpt>
      <trkpt lat="50.792982" lon="3.087271">
        <ele>14.938476</ele>
        <time>2023-08-27T09:34:30.000Z</time>
      </trkpt>
      <trkpt lat="50.793612" lon="3.08652">
        <ele>14.987228</ele>
        <time>2023-08-27T09:34:39.000Z</time>
      </trkpt>
      <trkpt lat="50.793892" lon="3.086273">
        <ele>15.007829</ele>
        <time>2023-08-27T09:34:43.000Z</time>
      </trkpt>
      <trkpt lat="50.794046" lon="3.08621">
        <ele>15.018756</ele>
        <time>2023-08-27T09:34:45.000Z</time>
      </trkpt>
      <trkpt lat="50.794065" lon="3.086227">
        <ele>15.020682</ele>
        <time>2023-08-27T09:34:45.000Z</time>
      </trkpt>
      <trkpt lat="50.794151" lon="3.086185">
        <ele>15.028343</ele>
        <time>2023-08-27T09:34:46.000Z</time>
      </trkpt>
      <trkpt lat="50.794211" lon="3.086072">
        <ele>15.036001</ele>
        <time>2023-08-27T09:34:47.000Z</time>
      </trkpt>
      <trkpt lat="50.794224" lon="3.085985">
        <ele>15.040624</ele>
        <time>2023-08-27T09:34:48.000Z</time>
      </trkpt>
      <trkpt lat="50.794305" lon="3.085856">
        <ele>15.050949</ele>
        <time>2023-08-27T09:34:49.000Z</time>
      </trkpt>
      <trkpt lat="50.794568" lon="3.085566">
        <ele>15.079105</ele>
        <time>2023-08-27T09:34:53.000Z</time>
      </trkpt>
      <trkpt lat="50.794983" lon="3.085326">
        <ele>15.11857</ele>
        <time>2023-08-27T09:34:58.000Z</time>
      </trkpt>
      <trkpt lat="50.795414" lon="3.08514">
        <ele>15.156888</ele>
        <time>2023-08-27T09:35:03.000Z</time>
      </trkpt>
      <trkpt lat="50.796196" lon="3.084953">
        <ele>15.264336</ele>
        <time>2023-08-27T09:35:12.000Z</time>
      </trkpt>
      <trkpt lat="50.796963" lon="3.084754">
        <ele>15.382049</ele>
        <time>2023-08-27T09:35:21.000Z</time>
      </trkpt>
      <trkpt lat="50.79775" lon="3.084554">
        <ele>15.492809</ele>
        <time>2023-08-27T09:35:30.000Z</time>
      </trkpt>
      <trkpt lat="50.798514" lon="3.084371">
        <ele>15.596868</ele>
        <time>2023-08-27T09:35:39.000Z</time>
      </trkpt>
      <trkpt lat="50.799294" lon="3.084165">
        <ele>15.689508</ele>
        <time>2023-08-27T09:35:48.000Z</time>
      </trkpt>
      <trkpt lat="50.800084" lon="3.083974">
        <ele>15.742642</ele>
        <time>2023-08-27T09:35:57.000Z</time>
      </trkpt>
      <trkpt lat="50.800855" lon="3.08379">
        <ele>15.795765</ele>
        <time>2023-08-27T09:36:06.000Z</time>
      </trkpt>
      <trkpt lat="50.800072" lon="3.083976">
        <ele>15.744051</ele>
        <time>2023-08-27T09:36:15.000Z</time>
      </trkpt>
      <trkpt lat="50.799295" lon="3.08416">
        <ele>15.685645</ele>
        <time>2023-08-27T09:36:24.000Z</time>
      </trkpt>
      <trkpt lat="50.798531" lon="3.084341">
        <ele>15.596255</ele>
        <time>2023-08-27T09:36:33.000Z</time>
      </trkpt>
      <trkpt lat="50.797744" lon="3.084529">
        <ele>15.49054</ele>
        <time>2023-08-27T09:36:42.000Z</time>
      </trkpt>
      <trkpt lat="50.796975" lon="3.084731">
        <ele>15.376225</ele>
        <time>2023-08-27T09:36:51.000Z</time>
      </trkpt>
      <trkpt lat="50.796186" lon="3.084919">
        <ele>15.247277</ele>
        <time>2023-08-27T09:37:00.000Z</time>
      </trkpt>
      <trkpt lat="50.795415" lon="3.085103">
        <ele>15.130246</ele>
        <time>2023-08-27T09:37:09.000Z</time>
      </trkpt>
      <trkpt lat="50.794973" lon="3.085283">
        <ele>15.137447</ele>
        <time>2023-08-27T09:37:14.000Z</time>
      </trkpt>
      <trkpt lat="50.794204" lon="3.085772">
        <ele>15.150787</ele>
        <time>2023-08-27T09:37:23.000Z</time>
      </trkpt>
      <trkpt lat="50.794134" lon="3.085785">
        <ele>15.151803</ele>
        <time>2023-08-27T09:37:24.000Z</time>
      </trkpt>
      <trkpt lat="50.794075" lon="3.085761">
        <ele>15.15271</ele>
        <time>2023-08-27T09:37:25.000Z</time>
      </trkpt>
      <trkpt lat="50.794017" lon="3.085612">
        <ele>15.154401</ele>
        <time>2023-08-27T09:37:26.000Z</time>
      </trkpt>
      <trkpt lat="50.794014" lon="3.085059">
        <ele>15.162322</ele>
        <time>2023-08-27T09:37:30.000Z</time>
      </trkpt>
      <trkpt lat="50.79402" lon="3.084539">
        <ele>15.172733</ele>
        <time>2023-08-27T09:37:34.000Z</time>
      </trkpt>
      <trkpt lat="50.794016" lon="3.084168">
        <ele>15.180556</ele>
        <time>2023-08-27T09:37:37.000Z</time>
      </trkpt>
      <trkpt lat="50.793916" lon="3.083557">
        <ele>15.193144</ele>
        <time>2023-08-27T09:37:41.000Z</time>
      </trkpt>
      <trkpt lat="50.79352" lon="3.082175">
        <ele>15.171314</ele>
        <time>2023-08-27T09:37:52.000Z</time>
      </trkpt>
      <trkpt lat="50.793342" lon="3.081369">
        <ele>15.079364</ele>
        <time>2023-08-27T09:37:58.000Z</time>
      </trkpt>
      <trkpt lat="50.793275" lon="3.080798">
        <ele>15.016654</ele>
        <time>2023-08-27T09:38:02.000Z</time>
      </trkpt>
      <trkpt lat="50.793131" lon="3.078745">
        <ele>14.835785</ele>
        <time>2023-08-27T09:38:17.000Z</time>
      </trkpt>
      <trkpt lat="50.793005" lon="3.07797">
        <ele>14.78248</ele>
        <time>2023-08-27T09:38:23.000Z</time>
      </trkpt>
      <trkpt lat="50.791993" lon="3.073379">
        <ele>14.510656</ele>
        <time>2023-08-27T09:38:57.000Z</time>
      </trkpt>
      <trkpt lat="50.793005" lon="3.07797">
        <ele>14.781316</ele>
        <time>2023-08-27T09:39:31.000Z</time>
      </trkpt>
      <trkpt lat="50.793135" lon="3.078746">
        <ele>14.84542</ele>
        <time>2023-08-27T09:39:37.000Z</time>
      </trkpt>
      <trkpt lat="50.793278" lon="3.080802">
        <ele>15.013192</ele>
        <time>2023-08-27T09:39:52.000Z</time>
      </trkpt>
      <trkpt lat="50.793348" lon="3.081364">
        <ele>15.062143</ele>
        <time>2023-08-27T09:39:56.000Z</time>
      </trkpt>
      <trkpt lat="50.793514" lon="3.082167">
        <ele>15.133911</ele>
        <time>2023-08-27T09:40:02.000Z</time>
      </trkpt>
      <trkpt lat="50.793915" lon="3.083557">
        <ele>15.220751</ele>
        <time>2023-08-27T09:40:13.000Z</time>
      </trkpt>
      <trkpt lat="50.79402" lon="3.08417">
        <ele>15.190714</ele>
        <time>2023-08-27T09:40:17.000Z</time>
      </trkpt>
      <trkpt lat="50.794023" lon="3.084546">
        <ele>15.17205</ele>
        <time>2023-08-27T09:40:20.000Z</time>
      </trkpt>
      <trkpt lat="50.794003" lon="3.085061">
        <ele>15.147239</ele>
        <time>2023-08-27T09:40:24.000Z</time>
      </trkpt>
      <trkpt lat="50.793957" lon="3.085648">
        <ele>15.117866</ele>
        <time>2023-08-27T09:40:28.000Z</time>
      </trkpt>
      <trkpt lat="50.79397" lon="3.085847">
        <ele>15.108533</ele>
        <time>2023-08-27T09:40:29.000Z</time>
      </trkpt>
      <trkpt lat="50.793936" lon="3.085989">
        <ele>15.100752</ele>
        <time>2023-08-27T09:40:30.000Z</time>
      </trkpt>
      <trkpt lat="50.793848" lon="3.086152">
        <ele>15.090558</ele>
        <time>2023-08-27T09:40:32.000Z</time>
      </trkpt>
      <trkpt lat="50.793607" lon="3.086526">
        <ele>15.06315</ele>
        <time>2023-08-27T09:40:36.000Z</time>
      </trkpt>
      <trkpt lat="50.792985" lon="3.087265">
        <ele>14.999172</ele>
        <time>2023-08-27T09:40:45.000Z</time>
      </trkpt>
      <trkpt lat="50.7929" lon="3.087357">
        <ele>14.991618</ele>
        <time>2023-08-27T09:40:46.000Z</time>
      </trkpt>
      <trkpt lat="50.79201" lon="3.088383">
        <ele>14.831515</ele>
        <time>2023-08-27T09:40:58.000Z</time>
      </trkpt>
      <trkpt lat="50.791631" lon="3.088762">
        <ele>14.742899</ele>
        <time>2023-08-27T09:41:03.000Z</time>
      </trkpt>
      <trkpt lat="50.791617" lon="3.088772">
        <ele>14.740811</ele>
        <time>2023-08-27T09:41:03.000Z</time>
      </trkpt>
      <trkpt lat="50.791602" lon="3.088789">
        <ele>14.735507</ele>
        <time>2023-08-27T09:41:03.000Z</time>
      </trkpt>
      <trkpt lat="50.791314" lon="3.089018">
        <ele>14.674706</ele>
        <time>2023-08-27T09:41:07.000Z</time>
      </trkpt>
      <trkpt lat="50.791177" lon="3.08912">
        <ele>14.642962</ele>
        <time>2023-08-27T09:41:09.000Z</time>
      </trkpt>
      <trkpt lat="50.790724" lon="3.089353">
        <ele>14.562569</ele>
        <time>2023-08-27T09:41:14.000Z</time>
      </trkpt>
      <trkpt lat="50.790274" lon="3.089526">
        <ele>14.498038</ele>
        <time>2023-08-27T09:41:19.000Z</time>
      </trkpt>
      <trkpt lat="50.78922" lon="3.089828">
        <ele>14.344386</ele>
        <time>2023-08-27T09:41:31.000Z</time>
      </trkpt>
      <trkpt lat="50.788817" lon="3.089921">
        <ele>14.394173</ele>
        <time>2023-08-27T09:41:36.000Z</time>
      </trkpt>
      <trkpt lat="50.788606" lon="3.09">
        <ele>14.424693</ele>
        <time>2023-08-27T09:41:38.000Z</time>
      </trkpt>
      <trkpt lat="50.788427" lon="3.089342">
        <ele>14.484744</ele>
        <time>2023-08-27T09:41:43.000Z</time>
      </trkpt>
      <trkpt lat="50.78808" lon="3.087962">
        <ele>14.582108</ele>
        <time>2023-08-27T09:41:53.000Z</time>
      </trkpt>
      <trkpt lat="50.787657" lon="3.086215">
        <ele>14.574364</ele>
        <time>2023-08-27T09:42:06.000Z</time>
      </trkpt>
      <trkpt lat="50.787411" lon="3.084021">
        <ele>14.562232</ele>
        <time>2023-08-27T09:42:22.000Z</time>
      </trkpt>
      <trkpt lat="50.787271" lon="3.082951">
        <ele>14.55572</ele>
        <time>2023-08-27T09:42:30.000Z</time>
      </trkpt>
      <trkpt lat="50.786904" lon="3.081308">
        <ele>14.717707</ele>
        <time>2023-08-27T09:42:42.000Z</time>
      </trkpt>
      <trkpt lat="50.786479" lon="3.080444">
        <ele>14.834001</ele>
        <time>2023-08-27T09:42:50.000Z</time>
      </trkpt>
      <trkpt lat="50.786322" lon="3.080594">
        <ele>14.851934</ele>
        <time>2023-08-27T09:42:52.000Z</time>
      </trkpt>
      <trkpt lat="50.786006" lon="3.080834">
        <ele>14.841855</ele>
        <time>2023-08-27T09:42:56.000Z</time>
      </trkpt>
      <trkpt lat="50.784996" lon="3.081351">
        <ele>14.811819</ele>
        <time>2023-08-27T09:43:08.000Z</time>
      </trkpt>
      <trkpt lat="50.784841" lon="3.081494">
        <ele>14.806565</ele>
        <time>2023-08-27T09:43:10.000Z</time>
      </trkpt>
      <trkpt lat="50.784804" lon="3.081527">
        <ele>14.805627</ele>
        <time>2023-08-27T09:43:10.000Z</time>
      </trkpt>
      <trkpt lat="50.784702" lon="3.081611">
        <ele>14.80099</ele>
        <time>2023-08-27T09:43:11.000Z</time>
      </trkpt>
      <trkpt lat="50.784581" lon="3.08183">
        <ele>14.763667</ele>
        <time>2023-08-27T09:43:13.000Z</time>
      </trkpt>
      <trkpt lat="50.784187" lon="3.082871">
        <ele>14.609611</ele>
        <time>2023-08-27T09:43:22.000Z</time>
      </trkpt>
      <trkpt lat="50.784119" lon="3.083082">
        <ele>14.580344</ele>
        <time>2023-08-27T09:43:24.000Z</time>
      </trkpt>
      <trkpt lat="50.784129" lon="3.083341">
        <ele>14.547878</ele>
        <time>2023-08-27T09:43:26.000Z</time>
      </trkpt>
      <trkpt lat="50.784405" lon="3.084368">
        <ele>14.403975</ele>
        <time>2023-08-27T09:43:34.000Z</time>
      </trkpt>
      <trkpt lat="50.784422" lon="3.084492">
        <ele>14.386346</ele>
        <time>2023-08-27T09:43:35.000Z</time>
      </trkpt>
      <trkpt lat="50.78437" lon="3.084618">
        <ele>14.367367</ele>
        <time>2023-08-27T09:43:36.000Z</time>
      </trkpt>
      <trkpt lat="50.783365" lon="3.085476">
        <ele>14.131041</ele>
        <time>2023-08-27T09:43:49.000Z</time>
      </trkpt>
      <trkpt lat="50.78227" lon="3.086163">
        <ele>13.961134</ele>
        <time>2023-08-27T09:44:02.000Z</time>
      </trkpt>
      <trkpt lat="50.782288" lon="3.086469">
        <ele>13.937721</ele>
        <time>2023-08-27T09:44:04.000Z</time>
      </trkpt>
      <trkpt lat="50.782253" lon="3.087008">
        <ele>13.896334</ele>
        <time>2023-08-27T09:44:08.000Z</time>
      </trkpt>
      <trkpt lat="50.7816" lon="3.090615">
        <ele>12.791269</ele>
        <time>2023-08-27T09:44:34.000Z</time>
      </trkpt>
      <trkpt lat="50.781572" lon="3.091056">
        <ele>12.655404</ele>
        <time>2023-08-27T09:44:37.000Z</time>
      </trkpt>
      <trkpt lat="50.781567" lon="3.091502">
        <ele>12.51541</ele>
        <time>2023-08-27T09:44:40.000Z</time>
      </trkpt>
      <trkpt lat="50.781599" lon="3.092125">
        <ele>12.326218</ele>
        <time>2023-08-27T09:44:44.000Z</time>
      </trkpt>
      <trkpt lat="50.781734" lon="3.09282">
        <ele>12.103787</ele>
        <time>2023-08-27T09:44:49.000Z</time>
      </trkpt>
      <trkpt lat="50.782074" lon="3.094025">
        <ele>11.954816</ele>
        <time>2023-08-27T09:44:58.000Z</time>
      </trkpt>
      <trkpt lat="50.782419" lon="3.095045">
        <ele>11.893296</ele>
        <time>2023-08-27T09:45:06.000Z</time>
      </trkpt>
      <trkpt lat="50.782505" lon="3.095245">
        <ele>11.880213</ele>
        <time>2023-08-27T09:45:08.000Z</time>
      </trkpt>
      <trkpt lat="50.783798" lon="3.097581">
        <ele>12.129726</ele>
        <time>2023-08-27T09:45:30.000Z</time>
      </trkpt>
      <trkpt lat="50.784321" lon="3.098532">
        <ele>12.359084</ele>
        <time>2023-08-27T09:45:39.000Z</time>
      </trkpt>
      <trkpt lat="50.78444" lon="3.098745">
        <ele>12.413392</ele>
        <time>2023-08-27T09:45:41.000Z</time>
      </trkpt>
      <trkpt lat="50.785039" lon="3.099792">
        <ele>12.683869</ele>
        <time>2023-08-27T09:45:51.000Z</time>
      </trkpt>
      <trkpt lat="50.787211" lon="3.103659">
        <ele>14.514514</ele>
        <time>2023-08-27T09:46:27.000Z</time>
      </trkpt>
      <trkpt lat="50.787478" lon="3.104071">
        <ele>14.735159</ele>
        <time>2023-08-27T09:46:31.000Z</time>
      </trkpt>
      <trkpt lat="50.788396" lon="3.102469">
        <ele>15.312958</ele>
        <time>2023-08-27T09:46:46.000Z</time>
      </trkpt>
      <trkpt lat="50.788744" lon="3.102043">
        <ele>15.496148</ele>
        <time>2023-08-27T09:46:51.000Z</time>
      </trkpt>
      <trkpt lat="50.789562" lon="3.101271">
        <ele>15.449796</ele>
        <time>2023-08-27T09:47:02.000Z</time>
      </trkpt>
      <trkpt lat="50.789462" lon="3.100973">
        <ele>15.439723</ele>
        <time>2023-08-27T09:47:04.000Z</time>
      </trkpt>
      <trkpt lat="50.789233" lon="3.100257">
        <ele>15.414925</ele>
        <time>2023-08-27T09:47:10.000Z</time>
      </trkpt>
      <trkpt lat="50.789474" lon="3.100985">
        <ele>15.296685</ele>
        <time>2023-08-27T09:47:16.000Z</time>
      </trkpt>
      <trkpt lat="50.789568" lon="3.101272">
        <ele>15.239558</ele>
        <time>2023-08-27T09:47:18.000Z</time>
      </trkpt>
      <trkpt lat="50.789921" lon="3.102251">
        <ele>15.045861</ele>
        <time>2023-08-27T09:47:26.000Z</time>
      </trkpt>
      <trkpt lat="50.790171" lon="3.102832">
        <ele>14.923458</ele>
        <time>2023-08-27T09:47:31.000Z</time>
      </trkpt>
      <trkpt lat="50.790569" lon="3.10354">
        <ele>14.712632</ele>
        <time>2023-08-27T09:47:38.000Z</time>
      </trkpt>
      <trkpt lat="50.790942" lon="3.10402">
        <ele>14.54665</ele>
        <time>2023-08-27T09:47:43.000Z</time>
      </trkpt>
      <trkpt lat="50.791548" lon="3.104518">
        <ele>14.307747</ele>
        <time>2023-08-27T09:47:51.000Z</time>
      </trkpt>
      <trkpt lat="50.791716" lon="3.104594">
        <ele>14.246824</ele>
        <time>2023-08-27T09:47:53.000Z</time>
      </trkpt>
      <trkpt lat="50.792139" lon="3.104801">
        <ele>14.087819</ele>
        <time>2023-08-27T09:47:58.000Z</time>
      </trkpt>
      <trkpt lat="50.792585" lon="3.104916">
        <ele>13.91787</ele>
        <time>2023-08-27T09:48:03.000Z</time>
      </trkpt>
      <trkpt lat="50.793106" lon="3.104957">
        <ele>13.729588</ele>
        <time>2023-08-27T09:48:09.000Z</time>
      </trkpt>
      <trkpt lat="50.793305" lon="3.104908">
        <ele>13.660946</ele>
        <time>2023-08-27T09:48:11.000Z</time>
      </trkpt>
      <trkpt lat="50.793463" lon="3.106308">
        <ele>13.421395</ele>
        <time>2023-08-27T09:48:21.000Z</time>
      </trkpt>
      <trkpt lat="50.793491" lon="3.106673">
        <ele>13.361451</ele>
        <time>2023-08-27T09:48:24.000Z</time>
      </trkpt>
      <trkpt lat="50.793549" lon="3.107237">
        <ele>13.268058</ele>
        <time>2023-08-27T09:48:28.000Z</time>
      </trkpt>
      <trkpt lat="50.793594" lon="3.107664">
        <ele>13.198948</ele>
        <time>2023-08-27T09:48:31.000Z</time>
      </trkpt>
      <trkpt lat="50.79359" lon="3.10792">
        <ele>13.192934</ele>
        <time>2023-08-27T09:48:33.000Z</time>
      </trkpt>
      <trkpt lat="50.79351" lon="3.108239">
        <ele>13.247883</ele>
        <time>2023-08-27T09:48:35.000Z</time>
      </trkpt>
      <trkpt lat="50.793652" lon="3.108346">
        <ele>13.285708</ele>
        <time>2023-08-27T09:48:37.000Z</time>
      </trkpt>
      <trkpt lat="50.794008" lon="3.108622">
        <ele>13.385883</ele>
        <time>2023-08-27T09:48:41.000Z</time>
      </trkpt>
      <trkpt lat="50.794356" lon="3.109001">
        <ele>13.491315</ele>
        <time>2023-08-27T09:48:46.000Z</time>
      </trkpt>
      <trkpt lat="50.794634" lon="3.109312">
        <ele>13.575961</ele>
        <time>2023-08-27T09:48:50.000Z</time>
      </trkpt>
      <trkpt lat="50.794738" lon="3.109447">
        <ele>13.611901</ele>
        <time>2023-08-27T09:48:51.000Z</time>
      </trkpt>
      <trkpt lat="50.794789" lon="3.109507">
        <ele>13.627781</ele>
        <time>2023-08-27T09:48:52.000Z</time>
      </trkpt>
      <trkpt lat="50.795034" lon="3.109923">
        <ele>14.042145</ele>
        <time>2023-08-27T09:48:56.000Z</time>
      </trkpt>
      <trkpt lat="50.795161" lon="3.110197">
        <ele>14.274643</ele>
        <time>2023-08-27T09:48:58.000Z</time>
      </trkpt>
      <trkpt lat="50.795283" lon="3.11039">
        <ele>14.463078</ele>
        <time>2023-08-27T09:49:00.000Z</time>
      </trkpt>
      <trkpt lat="50.795903" lon="3.110989">
        <ele>15.287676</ele>
        <time>2023-08-27T09:49:08.000Z</time>
      </trkpt>
      <trkpt lat="50.796063" lon="3.111155">
        <ele>15.484465</ele>
        <time>2023-08-27T09:49:10.000Z</time>
      </trkpt>
      <trkpt lat="50.796601" lon="3.111771">
        <ele>16.107548</ele>
        <time>2023-08-27T09:49:17.000Z</time>
      </trkpt>
      <trkpt lat="50.797038" lon="3.112254">
        <ele>16.582324</ele>
        <time>2023-08-27T09:49:23.000Z</time>
      </trkpt>
      <trkpt lat="50.798064" lon="3.113317">
        <ele>17.488475</ele>
        <time>2023-08-27T09:49:37.000Z</time>
      </trkpt>
      <trkpt lat="50.798297" lon="3.113551">
        <ele>17.628652</ele>
        <time>2023-08-27T09:49:40.000Z</time>
      </trkpt>
      <trkpt lat="50.797173" lon="3.11561">
        <ele>18.33404</ele>
        <time>2023-08-27T09:49:59.000Z</time>
      </trkpt>
      <trkpt lat="50.797122" lon="3.115835">
        <ele>18.371832</ele>
        <time>2023-08-27T09:50:01.000Z</time>
      </trkpt>
      <trkpt lat="50.79703" lon="3.115851">
        <ele>18.39453</ele>
        <time>2023-08-27T09:50:02.000Z</time>
      </trkpt>
      <trkpt lat="50.796771" lon="3.115802">
        <ele>18.464203</ele>
        <time>2023-08-27T09:50:05.000Z</time>
      </trkpt>
      <trkpt lat="50.796673" lon="3.115943">
        <ele>18.496857</ele>
        <time>2023-08-27T09:50:06.000Z</time>
      </trkpt>
      <trkpt lat="50.796585" lon="3.116246">
        <ele>18.550344</ele>
        <time>2023-08-27T09:50:08.000Z</time>
      </trkpt>
      <trkpt lat="50.796539" lon="3.117056">
        <ele>18.628067</ele>
        <time>2023-08-27T09:50:14.000Z</time>
      </trkpt>
      <trkpt lat="50.796533" lon="3.117551">
        <ele>18.64028</ele>
        <time>2023-08-27T09:50:17.000Z</time>
      </trkpt>
      <trkpt lat="50.79652" lon="3.11767">
        <ele>18.642838</ele>
        <time>2023-08-27T09:50:18.000Z</time>
      </trkpt>
      <trkpt lat="50.796436" lon="3.118833">
        <ele>18.671212</ele>
        <time>2023-08-27T09:50:26.000Z</time>
      </trkpt>
      <trkpt lat="50.796285" lon="3.119554">
        <ele>18.643474</ele>
        <time>2023-08-27T09:50:31.000Z</time>
      </trkpt>
      <trkpt lat="50.796212" lon="3.119978">
        <ele>18.45173</ele>
        <time>2023-08-27T09:50:34.000Z</time>
      </trkpt>
      <trkpt lat="50.796173" lon="3.120319">
        <ele>18.303651</ele>
        <time>2023-08-27T09:50:36.000Z</time>
      </trkpt>
      <trkpt lat="50.796181" lon="3.120638">
        <ele>18.157536</ele>
        <time>2023-08-27T09:50:38.000Z</time>
      </trkpt>
      <trkpt lat="50.796183" lon="3.121395">
        <ele>17.83025</ele>
        <time>2023-08-27T09:50:43.000Z</time>
      </trkpt>
      <trkpt lat="50.796215" lon="3.121545">
        <ele>17.759949</ele>
        <time>2023-08-27T09:50:44.000Z</time>
      </trkpt>
      <trkpt lat="50.796022" lon="3.121623">
        <ele>17.624424</ele>
        <time>2023-08-27T09:50:46.000Z</time>
      </trkpt>
      <trkpt lat="50.795662" lon="3.121827">
        <ele>17.285165</ele>
        <time>2023-08-27T09:50:50.000Z</time>
      </trkpt>
      <trkpt lat="50.795372" lon="3.121977">
        <ele>16.812671</ele>
        <time>2023-08-27T09:50:53.000Z</time>
      </trkpt>
      <trkpt lat="50.795122" lon="3.122111">
        <ele>16.430624</ele>
        <time>2023-08-27T09:50:56.000Z</time>
      </trkpt>
      <trkpt lat="50.794713" lon="3.122174">
        <ele>15.829267</ele>
        <time>2023-08-27T09:51:01.000Z</time>
      </trkpt>
      <trkpt lat="50.794432" lon="3.122233">
        <ele>15.435985</ele>
        <time>2023-08-27T09:51:04.000Z</time>
      </trkpt>
      <trkpt lat="50.794375" lon="3.122247">
        <ele>15.350718</ele>
        <time>2023-08-27T09:51:05.000Z</time>
      </trkpt>
      <trkpt lat="50.794113" lon="3.122334">
        <ele>14.93629</ele>
        <time>2023-08-27T09:51:08.000Z</time>
      </trkpt>
      <trkpt lat="50.794485" lon="3.1235">
        <ele>13.88714</ele>
        <time>2023-08-27T09:51:17.000Z</time>
      </trkpt>
      <trkpt lat="50.794551" lon="3.123766">
        <ele>13.648244</ele>
        <time>2023-08-27T09:51:19.000Z</time>
      </trkpt>
      <trkpt lat="50.794577" lon="3.124004">
        <ele>13.461411</ele>
        <time>2023-08-27T09:51:21.000Z</time>
      </trkpt>
      <trkpt lat="50.794575" lon="3.124686">
        <ele>12.911167</ele>
        <time>2023-08-27T09:51:26.000Z</time>
      </trkpt>
      <trkpt lat="50.794547" lon="3.12481">
        <ele>12.811236</ele>
        <time>2023-08-27T09:51:27.000Z</time>
      </trkpt>
      <trkpt lat="50.794534" lon="3.124934">
        <ele>12.712785</ele>
        <time>2023-08-27T09:51:28.000Z</time>
      </trkpt>
      <trkpt lat="50.794013" lon="3.124826">
        <ele>12.394101</ele>
        <time>2023-08-27T09:51:34.000Z</time>
      </trkpt>
      <trkpt lat="50.793667" lon="3.124787">
        <ele>12.262765</ele>
        <time>2023-08-27T09:51:38.000Z</time>
      </trkpt>
      <trkpt lat="50.79362" lon="3.124778">
        <ele>12.249604</ele>
        <time>2023-08-27T09:51:39.000Z</time>
      </trkpt>
      <trkpt lat="50.793585" lon="3.124817">
        <ele>12.228583</ele>
        <time>2023-08-27T09:51:39.000Z</time>
      </trkpt>
      <trkpt lat="50.793572" lon="3.124826">
        <ele>12.228587</ele>
        <time>2023-08-27T09:51:39.000Z</time>
      </trkpt>
      <trkpt lat="50.793409" lon="3.124944">
        <ele>12.161874</ele>
        <time>2023-08-27T09:51:41.000Z</time>
      </trkpt>
      <trkpt lat="50.793409" lon="3.124937">
        <ele>12.161862</ele>
        <time>2023-08-27T09:51:41.000Z</time>
      </trkpt>
      <trkpt lat="50.793419" lon="3.124946">
        <ele>12.161859</ele>
        <time>2023-08-27T09:51:41.000Z</time>
      </trkpt>
      <trkpt lat="50.793529" lon="3.125738">
        <ele>11.967152</ele>
        <time>2023-08-27T09:51:47.000Z</time>
      </trkpt>
      <trkpt lat="50.793632" lon="3.126537">
        <ele>12.006721</ele>
        <time>2023-08-27T09:51:53.000Z</time>
      </trkpt>
      <trkpt lat="50.794057" lon="3.126419">
        <ele>12.239546</ele>
        <time>2023-08-27T09:51:58.000Z</time>
      </trkpt>
      <trkpt lat="50.794255" lon="3.126364">
        <ele>12.354924</ele>
        <time>2023-08-27T09:52:00.000Z</time>
      </trkpt>
      <trkpt lat="50.794919" lon="3.12617">
        <ele>12.731485</ele>
        <time>2023-08-27T09:52:08.000Z</time>
      </trkpt>
      <trkpt lat="50.794883" lon="3.125824">
        <ele>12.851426</ele>
        <time>2023-08-27T09:52:10.000Z</time>
      </trkpt>
      <trkpt lat="50.795443" lon="3.125631">
        <ele>13.178998</ele>
        <time>2023-08-27T09:52:16.000Z</time>
      </trkpt>
      <trkpt lat="50.795794" lon="3.12588">
        <ele>13.400901</ele>
        <time>2023-08-27T09:52:20.000Z</time>
      </trkpt>
      <trkpt lat="50.795929" lon="3.126005">
        <ele>13.485529</ele>
        <time>2023-08-27T09:52:22.000Z</time>
      </trkpt>
      <trkpt lat="50.796551" lon="3.126465">
        <ele>13.886379</ele>
        <time>2023-08-27T09:52:30.000Z</time>
      </trkpt>
      <trkpt lat="50.796561" lon="3.126465">
        <ele>13.886372</ele>
        <time>2023-08-27T09:52:30.000Z</time>
      </trkpt>
      <trkpt lat="50.796555" lon="3.126479">
        <ele>13.886386</ele>
        <time>2023-08-27T09:52:30.000Z</time>
      </trkpt>
      <trkpt lat="50.796668" lon="3.126449">
        <ele>13.943692</ele>
        <time>2023-08-27T09:52:31.000Z</time>
      </trkpt>
      <trkpt lat="50.796669" lon="3.126454">
        <ele>13.943698</ele>
        <time>2023-08-27T09:52:31.000Z</time>
      </trkpt>
      <trkpt lat="50.796668" lon="3.126451">
        <ele>13.943694</ele>
        <time>2023-08-27T09:52:31.000Z</time>
      </trkpt>
      <trkpt lat="50.796743" lon="3.126372">
        <ele>13.989744</ele>
        <time>2023-08-27T09:52:32.000Z</time>
      </trkpt>
      <trkpt lat="50.796734" lon="3.126374">
        <ele>13.989746</ele>
        <time>2023-08-27T09:52:32.000Z</time>
      </trkpt>
      <trkpt lat="50.796856" lon="3.126359">
        <ele>14.044935</ele>
        <time>2023-08-27T09:52:33.000Z</time>
      </trkpt>
      <trkpt lat="50.796914" lon="3.126201">
        <ele>14.10618</ele>
        <time>2023-08-27T09:52:34.000Z</time>
      </trkpt>
      <trkpt lat="50.796774" lon="3.125684">
        <ele>14.282218</ele>
        <time>2023-08-27T09:52:38.000Z</time>
      </trkpt>
      <trkpt lat="50.796632" lon="3.125068">
        <ele>14.490687</ele>
        <time>2023-08-27T09:52:43.000Z</time>
      </trkpt>
      <trkpt lat="50.796547" lon="3.124503">
        <ele>14.672946</ele>
        <time>2023-08-27T09:52:47.000Z</time>
      </trkpt>
      <trkpt lat="50.796526" lon="3.124228">
        <ele>14.759471</ele>
        <time>2023-08-27T09:52:49.000Z</time>
      </trkpt>
      <trkpt lat="50.796519" lon="3.123994">
        <ele>14.904514</ele>
        <time>2023-08-27T09:52:51.000Z</time>
      </trkpt>
      <trkpt lat="50.796481" lon="3.123224">
        <ele>15.60461</ele>
        <time>2023-08-27T09:52:56.000Z</time>
      </trkpt>
      <trkpt lat="50.796454" lon="3.122933">
        <ele>15.87247</ele>
        <time>2023-08-27T09:52:58.000Z</time>
      </trkpt>
      <trkpt lat="50.796369" lon="3.12245">
        <ele>16.339916</ele>
        <time>2023-08-27T09:53:02.000Z</time>
      </trkpt>
      <trkpt lat="50.79621" lon="3.121547">
        <ele>17.198099</ele>
        <time>2023-08-27T09:53:09.000Z</time>
      </trkpt>
      <trkpt lat="50.796168" lon="3.121385">
        <ele>17.34372</ele>
        <time>2023-08-27T09:53:10.000Z</time>
      </trkpt>
      <trkpt lat="50.796177" lon="3.120637">
        <ele>17.77639</ele>
        <time>2023-08-27T09:53:15.000Z</time>
      </trkpt>
      <trkpt lat="50.796186" lon="3.120312">
        <ele>17.961211</ele>
        <time>2023-08-27T09:53:17.000Z</time>
      </trkpt>
      <trkpt lat="50.796216" lon="3.119976">
        <ele>18.148485</ele>
        <time>2023-08-27T09:53:19.000Z</time>
      </trkpt>
      <trkpt lat="50.796274" lon="3.119551">
        <ele>18.391026</ele>
        <time>2023-08-27T09:53:22.000Z</time>
      </trkpt>
      <trkpt lat="50.79644" lon="3.11883">
        <ele>18.815169</ele>
        <time>2023-08-27T09:53:27.000Z</time>
      </trkpt>
      <trkpt lat="50.796533" lon="3.117656">
        <ele>18.960388</ele>
        <time>2023-08-27T09:53:35.000Z</time>
      </trkpt>
      <trkpt lat="50.796537" lon="3.117552">
        <ele>18.958646</ele>
        <time>2023-08-27T09:53:36.000Z</time>
      </trkpt>
      <trkpt lat="50.796556" lon="3.117422">
        <ele>18.956381</ele>
        <time>2023-08-27T09:53:37.000Z</time>
      </trkpt>
      <trkpt lat="50.796601" lon="3.117303">
        <ele>18.954181</ele>
        <time>2023-08-27T09:53:38.000Z</time>
      </trkpt>
      <trkpt lat="50.796701" lon="3.117173">
        <ele>18.95062</ele>
        <time>2023-08-27T09:53:39.000Z</time>
      </trkpt>
      <trkpt lat="50.796818" lon="3.117118">
        <ele>18.947484</ele>
        <time>2023-08-27T09:53:40.000Z</time>
      </trkpt>
      <trkpt lat="50.796824" lon="3.117103">
        <ele>18.947189</ele>
        <time>2023-08-27T09:53:40.000Z</time>
      </trkpt>
      <trkpt lat="50.796865" lon="3.11706">
        <ele>18.946044</ele>
        <time>2023-08-27T09:53:41.000Z</time>
      </trkpt>
      <trkpt lat="50.796966" lon="3.116881">
        <ele>18.941814</ele>
        <time>2023-08-27T09:53:43.000Z</time>
      </trkpt>
      <trkpt lat="50.797091" lon="3.116031">
        <ele>18.914795</ele>
        <time>2023-08-27T09:53:49.000Z</time>
      </trkpt>
      <trkpt lat="50.797124" lon="3.115839">
        <ele>18.840977</ele>
        <time>2023-08-27T09:53:50.000Z</time>
      </trkpt>
      <trkpt lat="50.797164" lon="3.115616">
        <ele>18.760013</ele>
        <time>2023-08-27T09:53:52.000Z</time>
      </trkpt>
      <trkpt lat="50.798289" lon="3.113546">
        <ele>17.767915</ele>
        <time>2023-08-27T09:54:11.000Z</time>
      </trkpt>
      <trkpt lat="50.798057" lon="3.113311">
        <ele>17.568568</ele>
        <time>2023-08-27T09:54:14.000Z</time>
      </trkpt>
      <trkpt lat="50.797038" lon="3.112256">
        <ele>16.671099</ele>
        <time>2023-08-27T09:54:28.000Z</time>
      </trkpt>
      <trkpt lat="50.796601" lon="3.111766">
        <ele>16.108688</ele>
        <time>2023-08-27T09:54:34.000Z</time>
      </trkpt>
      <trkpt lat="50.796049" lon="3.111158">
        <ele>15.371424</ele>
        <time>2023-08-27T09:54:41.000Z</time>
      </trkpt>
      <trkpt lat="50.795909" lon="3.110995">
        <ele>15.176106</ele>
        <time>2023-08-27T09:54:43.000Z</time>
      </trkpt>
      <trkpt lat="50.795268" lon="3.110398">
        <ele>14.442308</ele>
        <time>2023-08-27T09:54:51.000Z</time>
      </trkpt>
      <trkpt lat="50.795172" lon="3.110188">
        <ele>14.313059</ele>
        <time>2023-08-27T09:54:53.000Z</time>
      </trkpt>
      <trkpt lat="50.795039" lon="3.10993">
        <ele>14.153591</ele>
        <time>2023-08-27T09:54:55.000Z</time>
      </trkpt>
      <trkpt lat="50.79479" lon="3.109496">
        <ele>13.869367</ele>
        <time>2023-08-27T09:54:59.000Z</time>
      </trkpt>
      <trkpt lat="50.79474" lon="3.109454">
        <ele>13.828309</ele>
        <time>2023-08-27T09:55:00.000Z</time>
      </trkpt>
      <trkpt lat="50.794622" lon="3.109305">
        <ele>13.718323</ele>
        <time>2023-08-27T09:55:02.000Z</time>
      </trkpt>
      <trkpt lat="50.794346" lon="3.108998">
        <ele>13.459299</ele>
        <time>2023-08-27T09:55:06.000Z</time>
      </trkpt>
      <trkpt lat="50.794013" lon="3.108616">
        <ele>13.260979</ele>
        <time>2023-08-27T09:55:11.000Z</time>
      </trkpt>
      <trkpt lat="50.793637" lon="3.108346">
        <ele>13.269747</ele>
        <time>2023-08-27T09:55:16.000Z</time>
      </trkpt>
      <trkpt lat="50.793611" lon="3.108192">
        <ele>13.271997</ele>
        <time>2023-08-27T09:55:17.000Z</time>
      </trkpt>
      <trkpt lat="50.793584" lon="3.107911">
        <ele>13.275807</ele>
        <time>2023-08-27T09:55:19.000Z</time>
      </trkpt>
      <trkpt lat="50.793597" lon="3.107659">
        <ele>13.27931</ele>
        <time>2023-08-27T09:55:21.000Z</time>
      </trkpt>
      <trkpt lat="50.793549" lon="3.10725">
        <ele>13.28519</ele>
        <time>2023-08-27T09:55:24.000Z</time>
      </trkpt>
      <trkpt lat="50.793503" lon="3.106682">
        <ele>13.293123</ele>
        <time>2023-08-27T09:55:28.000Z</time>
      </trkpt>
      <trkpt lat="50.793454" lon="3.106314">
        <ele>13.315131</ele>
        <time>2023-08-27T09:55:31.000Z</time>
      </trkpt>
      <trkpt lat="50.793309" lon="3.104891">
        <ele>13.575348</ele>
        <time>2023-08-27T09:55:41.000Z</time>
      </trkpt>
      <trkpt lat="50.793189" lon="3.103868">
        <ele>13.763694</ele>
        <time>2023-08-27T09:55:48.000Z</time>
      </trkpt>
      <trkpt lat="50.79318" lon="3.103813">
        <ele>13.77472</ele>
        <time>2023-08-27T09:55:48.000Z</time>
      </trkpt>
      <trkpt lat="50.794519" lon="3.102695">
        <ele>14.915523</ele>
        <time>2023-08-27T09:56:05.000Z</time>
      </trkpt>
      <trkpt lat="50.794783" lon="3.102472">
        <ele>15.153895</ele>
        <time>2023-08-27T09:56:08.000Z</time>
      </trkpt>
      <trkpt lat="50.795856" lon="3.101539">
        <ele>16.305042</ele>
        <time>2023-08-27T09:56:22.000Z</time>
      </trkpt>
      <trkpt lat="50.796339" lon="3.101156">
        <ele>16.81758</ele>
        <time>2023-08-27T09:56:28.000Z</time>
      </trkpt>
      <trkpt lat="50.796357" lon="3.101241">
        <ele>16.866399</ele>
        <time>2023-08-27T09:56:29.000Z</time>
      </trkpt>
      <trkpt lat="50.796442" lon="3.101252">
        <ele>16.942976</ele>
        <time>2023-08-27T09:56:30.000Z</time>
      </trkpt>
      <trkpt lat="50.796544" lon="3.101001">
        <ele>17.024647</ele>
        <time>2023-08-27T09:56:32.000Z</time>
      </trkpt>
      <trkpt lat="50.796787" lon="3.10096">
        <ele>17.120858</ele>
        <time>2023-08-27T09:56:35.000Z</time>
      </trkpt>
      <trkpt lat="50.797085" lon="3.10092">
        <ele>17.23531</ele>
        <time>2023-08-27T09:56:38.000Z</time>
      </trkpt>
      <trkpt lat="50.797404" lon="3.100875">
        <ele>17.351019</ele>
        <time>2023-08-27T09:56:42.000Z</time>
      </trkpt>
      <trkpt lat="50.797668" lon="3.100817">
        <ele>17.458165</ele>
        <time>2023-08-27T09:56:45.000Z</time>
      </trkpt>
      <trkpt lat="50.797841" lon="3.100797">
        <ele>17.525004</ele>
        <time>2023-08-27T09:56:47.000Z</time>
      </trkpt>
      <trkpt lat="50.798107" lon="3.10077">
        <ele>17.625337</ele>
        <time>2023-08-27T09:56:50.000Z</time>
      </trkpt>
      <trkpt lat="50.798497" lon="3.100826">
        <ele>17.602706</ele>
        <time>2023-08-27T09:56:54.000Z</time>
      </trkpt>
      <trkpt lat="50.79864" lon="3.100907">
        <ele>17.577898</ele>
        <time>2023-08-27T09:56:56.000Z</time>
      </trkpt>
      <trkpt lat="50.799109" lon="3.101137">
        <ele>17.503417</ele>
        <time>2023-08-27T09:57:01.000Z</time>
      </trkpt>
      <trkpt lat="50.799464" lon="3.101345">
        <ele>17.444053</ele>
        <time>2023-08-27T09:57:05.000Z</time>
      </trkpt>
      <trkpt lat="50.800102" lon="3.101677">
        <ele>17.360451</ele>
        <time>2023-08-27T09:57:12.000Z</time>
      </trkpt>
      <trkpt lat="50.801068" lon="3.102203">
        <ele>17.293874</ele>
        <time>2023-08-27T09:57:23.000Z</time>
      </trkpt>
      <trkpt lat="50.801323" lon="3.102332">
        <ele>17.277504</ele>
        <time>2023-08-27T09:57:26.000Z</time>
      </trkpt>
      <trkpt lat="50.801566" lon="3.102468">
        <ele>17.260089</ele>
        <time>2023-08-27T09:57:29.000Z</time>
      </trkpt>
      <trkpt lat="50.801697" lon="3.102524">
        <ele>17.270791</ele>
        <time>2023-08-27T09:57:31.000Z</time>
      </trkpt>
      <trkpt lat="50.801968" lon="3.102683">
        <ele>17.312284</ele>
        <time>2023-08-27T09:57:34.000Z</time>
      </trkpt>
      <trkpt lat="50.802012" lon="3.102722">
        <ele>17.32094</ele>
        <time>2023-08-27T09:57:35.000Z</time>
      </trkpt>
      <trkpt lat="50.80199" lon="3.102827">
        <ele>17.331561</ele>
        <time>2023-08-27T09:57:36.000Z</time>
      </trkpt>
      <trkpt lat="50.801972" lon="3.102846">
        <ele>17.333752</ele>
        <time>2023-08-27T09:57:36.000Z</time>
      </trkpt>
      <trkpt lat="50.801704" lon="3.103665">
        <ele>17.416433</ele>
        <time>2023-08-27T09:57:42.000Z</time>
      </trkpt>
      <trkpt lat="50.801548" lon="3.104085">
        <ele>17.458808</ele>
        <time>2023-08-27T09:57:45.000Z</time>
      </trkpt>
      <trkpt lat="50.801412" lon="3.104486">
        <ele>17.500861</ele>
        <time>2023-08-27T09:57:48.000Z</time>
      </trkpt>
      <trkpt lat="50.80128" lon="3.104884">
        <ele>17.545274</ele>
        <time>2023-08-27T09:57:51.000Z</time>
      </trkpt>
      <trkpt lat="50.801136" lon="3.10535">
        <ele>17.59956</ele>
        <time>2023-08-27T09:57:55.000Z</time>
      </trkpt>
      <trkpt lat="50.801113" lon="3.105383">
        <ele>17.602973</ele>
        <time>2023-08-27T09:57:55.000Z</time>
      </trkpt>
      <trkpt lat="50.80083" lon="3.106252">
        <ele>17.7055</ele>
        <time>2023-08-27T09:58:02.000Z</time>
      </trkpt>
      <trkpt lat="50.800796" lon="3.106371">
        <ele>17.719164</ele>
        <time>2023-08-27T09:58:03.000Z</time>
      </trkpt>
      <trkpt lat="50.800654" lon="3.106773">
        <ele>17.766535</ele>
        <time>2023-08-27T09:58:06.000Z</time>
      </trkpt>
      <trkpt lat="50.800536" lon="3.107124">
        <ele>17.80575</ele>
        <time>2023-08-27T09:58:09.000Z</time>
      </trkpt>
      <trkpt lat="50.800342" lon="3.107719">
        <ele>17.801662</ele>
        <time>2023-08-27T09:58:14.000Z</time>
      </trkpt>
      <trkpt lat="50.800257" lon="3.107972">
        <ele>17.799518</ele>
        <time>2023-08-27T09:58:16.000Z</time>
      </trkpt>
      <trkpt lat="50.800207" lon="3.10809">
        <ele>17.79854</ele>
        <time>2023-08-27T09:58:17.000Z</time>
      </trkpt>
      <trkpt lat="50.800182" lon="3.10817">
        <ele>17.797891</ele>
        <time>2023-08-27T09:58:18.000Z</time>
      </trkpt>
      <trkpt lat="50.800139" lon="3.108312">
        <ele>17.796629</ele>
        <time>2023-08-27T09:58:19.000Z</time>
      </trkpt>
      <trkpt lat="50.800026" lon="3.108661">
        <ele>17.793639</ele>
        <time>2023-08-27T09:58:22.000Z</time>
      </trkpt>
      <trkpt lat="50.799968" lon="3.10884">
        <ele>17.792205</ele>
        <time>2023-08-27T09:58:23.000Z</time>
      </trkpt>
      <trkpt lat="50.799952" lon="3.108894">
        <ele>17.791757</ele>
        <time>2023-08-27T09:58:23.000Z</time>
      </trkpt>
      <trkpt lat="50.800473" lon="3.109368">
        <ele>17.784441</ele>
        <time>2023-08-27T09:58:30.000Z</time>
      </trkpt>
      <trkpt lat="50.800758" lon="3.109599">
        <ele>17.778524</ele>
        <time>2023-08-27T09:58:34.000Z</time>
      </trkpt>
      <trkpt lat="50.8008" lon="3.109644">
        <ele>17.77775</ele>
        <time>2023-08-27T09:58:35.000Z</time>
      </trkpt>
      <trkpt lat="50.801445" lon="3.110188">
        <ele>17.764297</ele>
        <time>2023-08-27T09:58:43.000Z</time>
      </trkpt>
      <trkpt lat="50.802131" lon="3.110757">
        <ele>17.709107</ele>
        <time>2023-08-27T09:58:52.000Z</time>
      </trkpt>
      <trkpt lat="50.802503" lon="3.110997">
        <ele>17.571676</ele>
        <time>2023-08-27T09:58:56.000Z</time>
      </trkpt>
      <trkpt lat="50.803024" lon="3.111186">
        <ele>17.398111</ele>
        <time>2023-08-27T09:59:02.000Z</time>
      </trkpt>
      <trkpt lat="50.803399" lon="3.111318">
        <ele>17.266707</ele>
        <time>2023-08-27T09:59:06.000Z</time>
      </trkpt>
      <trkpt lat="50.803424" lon="3.111321">
        <ele>17.255463</ele>
        <time>2023-08-27T09:59:06.000Z</time>
      </trkpt>
      <trkpt lat="50.804505" lon="3.111671">
        <ele>17.092449</ele>
        <time>2023-08-27T09:59:18.000Z</time>
      </trkpt>
      <trkpt lat="50.80482" lon="3.111708">
        <ele>17.068174</ele>
        <time>2023-08-27T09:59:22.000Z</time>
      </trkpt>
      <trkpt lat="50.80529" lon="3.111711">
        <ele>17.032865</ele>
        <time>2023-08-27T09:59:27.000Z</time>
      </trkpt>
      <trkpt lat="50.805678" lon="3.111768">
        <ele>17.058432</ele>
        <time>2023-08-27T09:59:31.000Z</time>
      </trkpt>
      <trkpt lat="50.805967" lon="3.111832">
        <ele>17.136425</ele>
        <time>2023-08-27T09:59:34.000Z</time>
      </trkpt>
      <trkpt lat="50.80609" lon="3.111911">
        <ele>17.173277</ele>
        <time>2023-08-27T09:59:35.000Z</time>
      </trkpt>
      <trkpt lat="50.806118" lon="3.112033">
        <ele>17.198583</ele>
        <time>2023-08-27T09:59:36.000Z</time>
      </trkpt>
      <trkpt lat="50.806161" lon="3.112652">
        <ele>17.30406</ele>
        <time>2023-08-27T09:59:40.000Z</time>
      </trkpt>
      <trkpt lat="50.806185" lon="3.113086">
        <ele>17.3822</ele>
        <time>2023-08-27T09:59:43.000Z</time>
      </trkpt>
      <trkpt lat="50.80622" lon="3.113626">
        <ele>17.473794</ele>
        <time>2023-08-27T09:59:47.000Z</time>
      </trkpt>
      <trkpt lat="50.80625" lon="3.113953">
        <ele>17.476091</ele>
        <time>2023-08-27T09:59:49.000Z</time>
      </trkpt>
      <trkpt lat="50.80632" lon="3.114901">
        <ele>17.248784</ele>
        <time>2023-08-27T09:59:56.000Z</time>
      </trkpt>
      <trkpt lat="50.806314" lon="3.114982">
        <ele>17.231455</ele>
        <time>2023-08-27T09:59:57.000Z</time>
      </trkpt>
      <trkpt lat="50.806334" lon="3.115157">
        <ele>17.190097</ele>
        <time>2023-08-27T09:59:58.000Z</time>
      </trkpt>
      <trkpt lat="50.80632" lon="3.115432">
        <ele>17.124387</ele>
        <time>2023-08-27T10:00:00.000Z</time>
      </trkpt>
      <trkpt lat="50.806339" lon="3.115647">
        <ele>17.073573</ele>
        <time>2023-08-27T10:00:02.000Z</time>
      </trkpt>
      <trkpt lat="50.806369" lon="3.115734">
        <ele>17.052183</ele>
        <time>2023-08-27T10:00:03.000Z</time>
      </trkpt>
      <trkpt lat="50.806364" lon="3.115844">
        <ele>17.025196</ele>
        <time>2023-08-27T10:00:04.000Z</time>
      </trkpt>
      <trkpt lat="50.80641" lon="3.116588">
        <ele>16.847559</ele>
        <time>2023-08-27T10:00:09.000Z</time>
      </trkpt>
      <trkpt lat="50.806434" lon="3.116791">
        <ele>16.818363</ele>
        <time>2023-08-27T10:00:10.000Z</time>
      </trkpt>
      <trkpt lat="50.806486" lon="3.117641">
        <ele>16.719287</ele>
        <time>2023-08-27T10:00:16.000Z</time>
      </trkpt>
      <trkpt lat="50.806545" lon="3.118752">
        <ele>16.591513</ele>
        <time>2023-08-27T10:00:24.000Z</time>
      </trkpt>
      <trkpt lat="50.806558" lon="3.118901">
        <ele>16.574229</ele>
        <time>2023-08-27T10:00:25.000Z</time>
      </trkpt>
      <trkpt lat="50.80659" lon="3.119428">
        <ele>16.512523</ele>
        <time>2023-08-27T10:00:29.000Z</time>
      </trkpt>
      <trkpt lat="50.806653" lon="3.120106">
        <ele>16.516521</ele>
        <time>2023-08-27T10:00:34.000Z</time>
      </trkpt>
      <trkpt lat="50.806645" lon="3.120359">
        <ele>16.519876</ele>
        <time>2023-08-27T10:00:36.000Z</time>
      </trkpt>
      <trkpt lat="50.806647" lon="3.120503">
        <ele>16.52197</ele>
        <time>2023-08-27T10:00:37.000Z</time>
      </trkpt>
      <trkpt lat="50.806595" lon="3.121111">
        <ele>16.530298</ele>
        <time>2023-08-27T10:00:41.000Z</time>
      </trkpt>
      <trkpt lat="50.806599" lon="3.121116">
        <ele>16.530399</ele>
        <time>2023-08-27T10:00:41.000Z</time>
      </trkpt>
      <trkpt lat="50.80659" lon="3.121191">
        <ele>16.531378</ele>
        <time>2023-08-27T10:00:42.000Z</time>
      </trkpt>
      <trkpt lat="50.806566" lon="3.121329">
        <ele>16.533325</ele>
        <time>2023-08-27T10:00:43.000Z</time>
      </trkpt>
      <trkpt lat="50.8064" lon="3.121209">
        <ele>16.537457</ele>
        <time>2023-08-27T10:00:45.000Z</time>
      </trkpt>
      <trkpt lat="50.806066" lon="3.120828">
        <ele>16.546401</ele>
        <time>2023-08-27T10:00:50.000Z</time>
      </trkpt>
      <trkpt lat="50.805914" lon="3.120665">
        <ele>16.537062</ele>
        <time>2023-08-27T10:00:52.000Z</time>
      </trkpt>
      <trkpt lat="50.806025" lon="3.120417">
        <ele>16.52663</ele>
        <time>2023-08-27T10:00:54.000Z</time>
      </trkpt>
      <trkpt lat="50.806043" lon="3.120414">
        <ele>16.525943</ele>
        <time>2023-08-27T10:00:54.000Z</time>
      </trkpt>
      <trkpt lat="50.80612" lon="3.12024">
        <ele>16.518864</ele>
        <time>2023-08-27T10:00:55.000Z</time>
      </trkpt>
      <trkpt lat="50.806214" lon="3.120205">
        <ele>16.514096</ele>
        <time>2023-08-27T10:00:56.000Z</time>
      </trkpt>
      <trkpt lat="50.806648" lon="3.120108">
        <ele>16.490632</ele>
        <time>2023-08-27T10:01:01.000Z</time>
      </trkpt>
      <trkpt lat="50.806595" lon="3.119432">
        <ele>16.467469</ele>
        <time>2023-08-27T10:01:06.000Z</time>
      </trkpt>
      <trkpt lat="50.806566" lon="3.1189">
        <ele>16.456026</ele>
        <time>2023-08-27T10:01:10.000Z</time>
      </trkpt>
      <trkpt lat="50.806544" lon="3.118758">
        <ele>16.482167</ele>
        <time>2023-08-27T10:01:11.000Z</time>
      </trkpt>
      <trkpt lat="50.806486" lon="3.117656">
        <ele>16.675431</ele>
        <time>2023-08-27T10:01:19.000Z</time>
      </trkpt>
      <trkpt lat="50.806435" lon="3.116787">
        <ele>16.825316</ele>
        <time>2023-08-27T10:01:25.000Z</time>
      </trkpt>
      <trkpt lat="50.806418" lon="3.116602">
        <ele>16.860749</ele>
        <time>2023-08-27T10:01:26.000Z</time>
      </trkpt>
      <trkpt lat="50.806373" lon="3.115848">
        <ele>17.000468</ele>
        <time>2023-08-27T10:01:31.000Z</time>
      </trkpt>
      <trkpt lat="50.806369" lon="3.115733">
        <ele>17.024154</ele>
        <time>2023-08-27T10:01:32.000Z</time>
      </trkpt>
      <trkpt lat="50.806369" lon="3.115611">
        <ele>17.050376</ele>
        <time>2023-08-27T10:01:33.000Z</time>
      </trkpt>
      <trkpt lat="50.806357" lon="3.115304">
        <ele>17.114791</ele>
        <time>2023-08-27T10:01:35.000Z</time>
      </trkpt>
      <trkpt lat="50.806319" lon="3.11516">
        <ele>17.146289</ele>
        <time>2023-08-27T10:01:36.000Z</time>
      </trkpt>
      <trkpt lat="50.806321" lon="3.114988">
        <ele>17.18258</ele>
        <time>2023-08-27T10:01:37.000Z</time>
      </trkpt>
      <trkpt lat="50.806317" lon="3.1149">
        <ele>17.197784</ele>
        <time>2023-08-27T10:01:38.000Z</time>
      </trkpt>
      <trkpt lat="50.806257" lon="3.113952">
        <ele>17.397295</ele>
        <time>2023-08-27T10:01:45.000Z</time>
      </trkpt>
      <trkpt lat="50.806231" lon="3.113628">
        <ele>17.466351</ele>
        <time>2023-08-27T10:01:47.000Z</time>
      </trkpt>
      <trkpt lat="50.806201" lon="3.11309">
        <ele>17.497528</ele>
        <time>2023-08-27T10:01:51.000Z</time>
      </trkpt>
      <trkpt lat="50.806163" lon="3.112651">
        <ele>17.402172</ele>
        <time>2023-08-27T10:01:54.000Z</time>
      </trkpt>
      <trkpt lat="50.806124" lon="3.112048">
        <ele>17.273446</ele>
        <time>2023-08-27T10:01:58.000Z</time>
      </trkpt>
      <trkpt lat="50.806081" lon="3.111913">
        <ele>17.242568</ele>
        <time>2023-08-27T10:01:59.000Z</time>
      </trkpt>
      <trkpt lat="50.805958" lon="3.11183">
        <ele>17.197604</ele>
        <time>2023-08-27T10:02:00.000Z</time>
      </trkpt>
      <trkpt lat="50.805678" lon="3.111775">
        <ele>17.102454</ele>
        <time>2023-08-27T10:02:03.000Z</time>
      </trkpt>
      <trkpt lat="50.805278" lon="3.111724">
        <ele>16.97002</ele>
        <time>2023-08-27T10:02:07.000Z</time>
      </trkpt>
      <trkpt lat="50.804812" lon="3.111699">
        <ele>17.005031</ele>
        <time>2023-08-27T10:02:12.000Z</time>
      </trkpt>
      <trkpt lat="50.804507" lon="3.111659">
        <ele>17.067095</ele>
        <time>2023-08-27T10:02:15.000Z</time>
      </trkpt>
      <trkpt lat="50.803424" lon="3.111327">
        <ele>17.280178</ele>
        <time>2023-08-27T10:02:27.000Z</time>
      </trkpt>
      <trkpt lat="50.803397" lon="3.11132">
        <ele>17.286941</ele>
        <time>2023-08-27T10:02:27.000Z</time>
      </trkpt>
      <trkpt lat="50.803018" lon="3.111177">
        <ele>17.393711</ele>
        <time>2023-08-27T10:02:31.000Z</time>
      </trkpt>
      <trkpt lat="50.802504" lon="3.111001">
        <ele>17.534753</ele>
        <time>2023-08-27T10:02:37.000Z</time>
      </trkpt>
      <trkpt lat="50.80213" lon="3.110762">
        <ele>17.646416</ele>
        <time>2023-08-27T10:02:41.000Z</time>
      </trkpt>
      <trkpt lat="50.801443" lon="3.110187">
        <ele>17.781053</ele>
        <time>2023-08-27T10:02:50.000Z</time>
      </trkpt>
      <trkpt lat="50.800787" lon="3.109639">
        <ele>17.797923</ele>
        <time>2023-08-27T10:02:58.000Z</time>
      </trkpt>
      <trkpt lat="50.800756" lon="3.109605">
        <ele>17.79888</ele>
        <time>2023-08-27T10:02:58.000Z</time>
      </trkpt>
      <trkpt lat="50.800478" lon="3.109373">
        <ele>17.806308</ele>
        <time>2023-08-27T10:03:01.000Z</time>
      </trkpt>
      <trkpt lat="50.799952" lon="3.1089">
        <ele>17.808853</ele>
        <time>2023-08-27T10:03:08.000Z</time>
      </trkpt>
      <trkpt lat="50.799972" lon="3.108846">
        <ele>17.807606</ele>
        <time>2023-08-27T10:03:08.000Z</time>
      </trkpt>
      <trkpt lat="50.800026" lon="3.108662">
        <ele>17.8035</ele>
        <time>2023-08-27T10:03:09.000Z</time>
      </trkpt>
      <trkpt lat="50.800134" lon="3.108309">
        <ele>17.795011</ele>
        <time>2023-08-27T10:03:12.000Z</time>
      </trkpt>
      <trkpt lat="50.800197" lon="3.108161">
        <ele>17.791399</ele>
        <time>2023-08-27T10:03:13.000Z</time>
      </trkpt>
      <trkpt lat="50.800209" lon="3.108089">
        <ele>17.789589</ele>
        <time>2023-08-27T10:03:14.000Z</time>
      </trkpt>
      <trkpt lat="50.800259" lon="3.107974">
        <ele>17.786809</ele>
        <time>2023-08-27T10:03:15.000Z</time>
      </trkpt>
      <trkpt lat="50.800339" lon="3.107709">
        <ele>17.780699</ele>
        <time>2023-08-27T10:03:17.000Z</time>
      </trkpt>
      <trkpt lat="50.800542" lon="3.107116">
        <ele>17.766378</ele>
        <time>2023-08-27T10:03:22.000Z</time>
      </trkpt>
      <trkpt lat="50.800652" lon="3.106783">
        <ele>17.758333</ele>
        <time>2023-08-27T10:03:25.000Z</time>
      </trkpt>
      <trkpt lat="50.800783" lon="3.106378">
        <ele>17.732171</ele>
        <time>2023-08-27T10:03:28.000Z</time>
      </trkpt>
      <trkpt lat="50.80083" lon="3.106267">
        <ele>17.722297</ele>
        <time>2023-08-27T10:03:29.000Z</time>
      </trkpt>
      <trkpt lat="50.801121" lon="3.105389">
        <ele>17.648224</ele>
        <time>2023-08-27T10:03:36.000Z</time>
      </trkpt>
      <trkpt lat="50.801139" lon="3.105348">
        <ele>17.645754</ele>
        <time>2023-08-27T10:03:36.000Z</time>
      </trkpt>
      <trkpt lat="50.801282" lon="3.104889">
        <ele>17.606531</ele>
        <time>2023-08-27T10:03:40.000Z</time>
      </trkpt>
      <trkpt lat="50.801425" lon="3.104497">
        <ele>17.573137</ele>
        <time>2023-08-27T10:03:43.000Z</time>
      </trkpt>
      <trkpt lat="50.80156" lon="3.104075">
        <ele>17.549309</ele>
        <time>2023-08-27T10:03:46.000Z</time>
      </trkpt>
      <trkpt lat="50.801704" lon="3.103657">
        <ele>17.597869</ele>
        <time>2023-08-27T10:03:49.000Z</time>
      </trkpt>
      <trkpt lat="50.801979" lon="3.102842">
        <ele>17.692627</ele>
        <time>2023-08-27T10:03:55.000Z</time>
      </trkpt>
      <trkpt lat="50.801984" lon="3.102822">
        <ele>17.695142</ele>
        <time>2023-08-27T10:03:55.000Z</time>
      </trkpt>
      <trkpt lat="50.802025" lon="3.102725">
        <ele>17.70732</ele>
        <time>2023-08-27T10:03:56.000Z</time>
      </trkpt>
      <trkpt lat="50.802382" lon="3.101623">
        <ele>17.835121</ele>
        <time>2023-08-27T10:04:05.000Z</time>
      </trkpt>
      <trkpt lat="50.802409" lon="3.101572">
        <ele>17.852962</ele>
        <time>2023-08-27T10:04:05.000Z</time>
      </trkpt>
      <trkpt lat="50.802553" lon="3.101154">
        <ele>18.027185</ele>
        <time>2023-08-27T10:04:08.000Z</time>
      </trkpt>
      <trkpt lat="50.802793" lon="3.10043">
        <ele>18.323137</ele>
        <time>2023-08-27T10:04:14.000Z</time>
      </trkpt>
      <trkpt lat="50.802854" lon="3.10023">
        <ele>18.405162</ele>
        <time>2023-08-27T10:04:16.000Z</time>
      </trkpt>
      <trkpt lat="50.803273" lon="3.098983">
        <ele>18.876653</ele>
        <time>2023-08-27T10:04:26.000Z</time>
      </trkpt>
      <trkpt lat="50.803374" lon="3.098691">
        <ele>18.8994</ele>
        <time>2023-08-27T10:04:28.000Z</time>
      </trkpt>
      <trkpt lat="50.803409" lon="3.098604">
        <ele>18.906238</ele>
        <time>2023-08-27T10:04:29.000Z</time>
      </trkpt>
      <trkpt lat="50.803816" lon="3.097387">
        <ele>19.002709</ele>
        <time>2023-08-27T10:04:39.000Z</time>
      </trkpt>
      <trkpt lat="50.803954" lon="3.096943">
        <ele>19.036797</ele>
        <time>2023-08-27T10:04:42.000Z</time>
      </trkpt>
      <trkpt lat="50.803979" lon="3.096869">
        <ele>19.042952</ele>
        <time>2023-08-27T10:04:43.000Z</time>
      </trkpt>
      <trkpt lat="50.804021" lon="3.096721">
        <ele>19.054311</ele>
        <time>2023-08-27T10:04:44.000Z</time>
      </trkpt>
      <trkpt lat="50.804189" lon="3.096285">
        <ele>18.856637</ele>
        <time>2023-08-27T10:04:48.000Z</time>
      </trkpt>
      <trkpt lat="50.804202" lon="3.096222">
        <ele>18.813036</ele>
        <time>2023-08-27T10:04:48.000Z</time>
      </trkpt>
      <trkpt lat="50.804248" lon="3.096108">
        <ele>18.738152</ele>
        <time>2023-08-27T10:04:49.000Z</time>
      </trkpt>
      <trkpt lat="50.804294" lon="3.095977">
        <ele>18.648401</ele>
        <time>2023-08-27T10:04:50.000Z</time>
      </trkpt>
      <trkpt lat="50.804328" lon="3.095854">
        <ele>18.570941</ele>
        <time>2023-08-27T10:04:51.000Z</time>
      </trkpt>
      <trkpt lat="50.804395" lon="3.095654">
        <ele>18.448256</ele>
        <time>2023-08-27T10:04:53.000Z</time>
      </trkpt>
      <trkpt lat="50.804478" lon="3.095436">
        <ele>18.296804</ele>
        <time>2023-08-27T10:04:55.000Z</time>
      </trkpt>
      <trkpt lat="50.8045" lon="3.095395">
        <ele>18.266937</ele>
        <time>2023-08-27T10:04:55.000Z</time>
      </trkpt>
      <trkpt lat="50.804571" lon="3.09515">
        <ele>18.112507</ele>
        <time>2023-08-27T10:04:57.000Z</time>
      </trkpt>
      <trkpt lat="50.804596" lon="3.095082">
        <ele>18.071386</ele>
        <time>2023-08-27T10:04:58.000Z</time>
      </trkpt>
      <trkpt lat="50.804736" lon="3.094636">
        <ele>17.774392</ele>
        <time>2023-08-27T10:05:01.000Z</time>
      </trkpt>
      <trkpt lat="50.80481" lon="3.094434">
        <ele>17.646163</ele>
        <time>2023-08-27T10:05:03.000Z</time>
      </trkpt>
      <trkpt lat="50.80489" lon="3.094173">
        <ele>17.474425</ele>
        <time>2023-08-27T10:05:05.000Z</time>
      </trkpt>
      <trkpt lat="50.804909" lon="3.094156">
        <ele>17.458724</ele>
        <time>2023-08-27T10:05:05.000Z</time>
      </trkpt>
      <trkpt lat="50.805157" lon="3.09337">
        <ele>16.943236</ele>
        <time>2023-08-27T10:05:11.000Z</time>
      </trkpt>
      <trkpt lat="50.805198" lon="3.093247">
        <ele>16.866242</ele>
        <time>2023-08-27T10:05:12.000Z</time>
      </trkpt>
      <trkpt lat="50.806086" lon="3.090569">
        <ele>15.594242</ele>
        <time>2023-08-27T10:05:33.000Z</time>
      </trkpt>
      <trkpt lat="50.806228" lon="3.090137">
        <ele>15.521266</ele>
        <time>2023-08-27T10:05:36.000Z</time>
      </trkpt>
      <trkpt lat="50.806252" lon="3.090094">
        <ele>15.514258</ele>
        <time>2023-08-27T10:05:36.000Z</time>
      </trkpt>
      <trkpt lat="50.806475" lon="3.089575">
        <ele>15.418118</ele>
        <time>2023-08-27T10:05:40.000Z</time>
      </trkpt>
      <trkpt lat="50.806551" lon="3.089461">
        <ele>15.3929</ele>
        <time>2023-08-27T10:05:41.000Z</time>
      </trkpt>
      <trkpt lat="50.806721" lon="3.089414">
        <ele>15.355381</ele>
        <time>2023-08-27T10:05:43.000Z</time>
      </trkpt>
      <trkpt lat="50.806746" lon="3.089377">
        <ele>15.346697</ele>
        <time>2023-08-27T10:05:43.000Z</time>
      </trkpt>
      <trkpt lat="50.806795" lon="3.089284">
        <ele>15.34869</ele>
        <time>2023-08-27T10:05:44.000Z</time>
      </trkpt>
      <trkpt lat="50.806832" lon="3.089191">
        <ele>15.366055</ele>
        <time>2023-08-27T10:05:45.000Z</time>
      </trkpt>
      <trkpt lat="50.806835" lon="3.088992">
        <ele>15.399932</ele>
        <time>2023-08-27T10:05:46.000Z</time>
      </trkpt>
      <trkpt lat="50.806771" lon="3.088825">
        <ele>15.433695</ele>
        <time>2023-08-27T10:05:47.000Z</time>
      </trkpt>
      <trkpt lat="50.806781" lon="3.088634">
        <ele>15.46899</ele>
        <time>2023-08-27T10:05:48.000Z</time>
      </trkpt>
      <trkpt lat="50.807065" lon="3.087658">
        <ele>15.659744</ele>
        <time>2023-08-27T10:05:56.000Z</time>
      </trkpt>
      <trkpt lat="50.807233" lon="3.087188">
        <ele>15.754913</ele>
        <time>2023-08-27T10:06:00.000Z</time>
      </trkpt>
      <trkpt lat="50.80782" lon="3.085384">
        <ele>16.362366</ele>
        <time>2023-08-27T10:06:14.000Z</time>
      </trkpt>
      <trkpt lat="50.807953" lon="3.084983">
        <ele>16.51689</ele>
        <time>2023-08-27T10:06:17.000Z</time>
      </trkpt>
      <trkpt lat="50.808046" lon="3.084718">
        <ele>16.623724</ele>
        <time>2023-08-27T10:06:19.000Z</time>
      </trkpt>
      <trkpt lat="50.808209" lon="3.084378">
        <ele>16.76216</ele>
        <time>2023-08-27T10:06:22.000Z</time>
      </trkpt>
      <trkpt lat="50.808323" lon="3.084089">
        <ele>16.943221</ele>
        <time>2023-08-27T10:06:24.000Z</time>
      </trkpt>
      <trkpt lat="50.808417" lon="3.083758">
        <ele>17.205718</ele>
        <time>2023-08-27T10:06:27.000Z</time>
      </trkpt>
      <trkpt lat="50.808567" lon="3.083246">
        <ele>17.597974</ele>
        <time>2023-08-27T10:06:31.000Z</time>
      </trkpt>
      <trkpt lat="50.809" lon="3.081947">
        <ele>18.596977</ele>
        <time>2023-08-27T10:06:41.000Z</time>
      </trkpt>
      <trkpt lat="50.809449" lon="3.080593">
        <ele>19.565407</ele>
        <time>2023-08-27T10:06:52.000Z</time>
      </trkpt>
      <trkpt lat="50.809629" lon="3.080106">
        <ele>19.912987</ele>
        <time>2023-08-27T10:06:56.000Z</time>
      </trkpt>
      <trkpt lat="50.809885" lon="3.079327">
        <ele>20.456395</ele>
        <time>2023-08-27T10:07:02.000Z</time>
      </trkpt>
      <trkpt lat="50.810076" lon="3.078691">
        <ele>20.525789</ele>
        <time>2023-08-27T10:07:07.000Z</time>
      </trkpt>
      <trkpt lat="50.81013" lon="3.078575">
        <ele>20.526092</ele>
        <time>2023-08-27T10:07:08.000Z</time>
      </trkpt>
      <trkpt lat="50.810138" lon="3.078221">
        <ele>20.526788</ele>
        <time>2023-08-27T10:07:10.000Z</time>
      </trkpt>
      <trkpt lat="50.810087" lon="3.077582">
        <ele>20.528163</ele>
        <time>2023-08-27T10:07:15.000Z</time>
      </trkpt>
      <trkpt lat="50.809976" lon="3.077024">
        <ele>20.529368</ele>
        <time>2023-08-27T10:07:19.000Z</time>
      </trkpt>
      <trkpt lat="50.809893" lon="3.076681">
        <ele>20.530122</ele>
        <time>2023-08-27T10:07:22.000Z</time>
      </trkpt>
      <trkpt lat="50.809855" lon="3.076558">
        <ele>20.530416</ele>
        <time>2023-08-27T10:07:23.000Z</time>
      </trkpt>
      <trkpt lat="50.809728" lon="3.075983">
        <ele>20.330454</ele>
        <time>2023-08-27T10:07:27.000Z</time>
      </trkpt>
      <trkpt lat="50.80965" lon="3.075642">
        <ele>20.20402</ele>
        <time>2023-08-27T10:07:30.000Z</time>
      </trkpt>
      <trkpt lat="50.809667" lon="3.075544">
        <ele>20.170247</ele>
        <time>2023-08-27T10:07:31.000Z</time>
      </trkpt>
      <trkpt lat="50.809706" lon="3.075378">
        <ele>20.110012</ele>
        <time>2023-08-27T10:07:32.000Z</time>
      </trkpt>
      <trkpt lat="50.81014" lon="3.07395">
        <ele>19.552137</ele>
        <time>2023-08-27T10:07:43.000Z</time>
      </trkpt>
      <trkpt lat="50.810228" lon="3.0737">
        <ele>19.478098</ele>
        <time>2023-08-27T10:07:45.000Z</time>
      </trkpt>
      <trkpt lat="50.810548" lon="3.072682">
        <ele>19.199186</ele>
        <time>2023-08-27T10:07:53.000Z</time>
      </trkpt>
      <trkpt lat="50.810689" lon="3.072224">
        <ele>19.071862</ele>
        <time>2023-08-27T10:07:57.000Z</time>
      </trkpt>
      <trkpt lat="50.810824" lon="3.071747">
        <ele>18.945568</ele>
        <time>2023-08-27T10:08:01.000Z</time>
      </trkpt>
      <trkpt lat="50.811091" lon="3.070924">
        <ele>18.706882</ele>
        <time>2023-08-27T10:08:08.000Z</time>
      </trkpt>
      <trkpt lat="50.811736" lon="3.068848">
        <ele>18.076736</ele>
        <time>2023-08-27T10:08:24.000Z</time>
      </trkpt>
      <trkpt lat="50.811816" lon="3.068695">
        <ele>18.059152</ele>
        <time>2023-08-27T10:08:25.000Z</time>
      </trkpt>
      <trkpt lat="50.811822" lon="3.068645">
        <ele>18.057198</ele>
        <time>2023-08-27T10:08:25.000Z</time>
      </trkpt>
      <trkpt lat="50.811822" lon="3.068643">
        <ele>18.057142</ele>
        <time>2023-08-27T10:08:25.000Z</time>
      </trkpt>
      <trkpt lat="50.811982" lon="3.068103">
        <ele>18.037069</ele>
        <time>2023-08-27T10:08:29.000Z</time>
      </trkpt>
      <trkpt lat="50.811985" lon="3.068091">
        <ele>18.036735</ele>
        <time>2023-08-27T10:08:29.000Z</time>
      </trkpt>
      <trkpt lat="50.812094" lon="3.067766">
        <ele>18.024519</ele>
        <time>2023-08-27T10:08:32.000Z</time>
      </trkpt>
      <trkpt lat="50.81218" lon="3.067494">
        <ele>18.014679</ele>
        <time>2023-08-27T10:08:34.000Z</time>
      </trkpt>
      <trkpt lat="50.81221" lon="3.067369">
        <ele>18.010054</ele>
        <time>2023-08-27T10:08:35.000Z</time>
      </trkpt>
      <trkpt lat="50.812624" lon="3.066052">
        <ele>18.004029</ele>
        <time>2023-08-27T10:08:45.000Z</time>
      </trkpt>
      <trkpt lat="50.812713" lon="3.065741">
        <ele>18.061847</ele>
        <time>2023-08-27T10:08:47.000Z</time>
      </trkpt>
      <trkpt lat="50.81279" lon="3.065523">
        <ele>18.104829</ele>
        <time>2023-08-27T10:08:49.000Z</time>
      </trkpt>
      <trkpt lat="50.812826" lon="3.065361">
        <ele>18.132175</ele>
        <time>2023-08-27T10:08:50.000Z</time>
      </trkpt>
      <trkpt lat="50.813552" lon="3.063024">
        <ele>18.475389</ele>
        <time>2023-08-27T10:09:08.000Z</time>
      </trkpt>
      <trkpt lat="50.813901" lon="3.061906">
        <ele>18.532953</ele>
        <time>2023-08-27T10:09:17.000Z</time>
      </trkpt>
      <trkpt lat="50.81394" lon="3.061796">
        <ele>18.538501</ele>
        <time>2023-08-27T10:09:18.000Z</time>
      </trkpt>
      <trkpt lat="50.814041" lon="3.061502">
        <ele>18.554056</ele>
        <time>2023-08-27T10:09:20.000Z</time>
      </trkpt>
      <trkpt lat="50.814075" lon="3.061378">
        <ele>18.559756</ele>
        <time>2023-08-27T10:09:21.000Z</time>
      </trkpt>
      <trkpt lat="50.814576" lon="3.059777">
        <ele>18.443499</ele>
        <time>2023-08-27T10:09:34.000Z</time>
      </trkpt>
      <trkpt lat="50.814988" lon="3.058435">
        <ele>18.308125</ele>
        <time>2023-08-27T10:09:44.000Z</time>
      </trkpt>
      <trkpt lat="50.815019" lon="3.058348">
        <ele>18.294601</ele>
        <time>2023-08-27T10:09:45.000Z</time>
      </trkpt>
      <trkpt lat="50.815109" lon="3.058063">
        <ele>18.252484</ele>
        <time>2023-08-27T10:09:47.000Z</time>
      </trkpt>
      <trkpt lat="50.815125" lon="3.058015">
        <ele>18.244596</ele>
        <time>2023-08-27T10:09:47.000Z</time>
      </trkpt>
      <trkpt lat="50.815207" lon="3.057744">
        <ele>18.204102</ele>
        <time>2023-08-27T10:09:49.000Z</time>
      </trkpt>
      <trkpt lat="50.816033" lon="3.055103">
        <ele>17.891806</ele>
        <time>2023-08-27T10:10:10.000Z</time>
      </trkpt>
      <trkpt lat="50.816673" lon="3.053004">
        <ele>17.862356</ele>
        <time>2023-08-27T10:10:26.000Z</time>
      </trkpt>
      <trkpt lat="50.816901" lon="3.05217">
        <ele>17.970532</ele>
        <time>2023-08-27T10:10:32.000Z</time>
      </trkpt>
      <trkpt lat="50.81692" lon="3.052101">
        <ele>17.980262</ele>
        <time>2023-08-27T10:10:33.000Z</time>
      </trkpt>
      <trkpt lat="50.816987" lon="3.051882">
        <ele>18.00812</ele>
        <time>2023-08-27T10:10:35.000Z</time>
      </trkpt>
      <trkpt lat="50.817007" lon="3.05178">
        <ele>18.022159</ele>
        <time>2023-08-27T10:10:36.000Z</time>
      </trkpt>
      <trkpt lat="50.817167" lon="3.051197">
        <ele>18.096854</ele>
        <time>2023-08-27T10:10:40.000Z</time>
      </trkpt>
      <trkpt lat="50.817323" lon="3.050582">
        <ele>18.426931</ele>
        <time>2023-08-27T10:10:45.000Z</time>
      </trkpt>
      <trkpt lat="50.817697" lon="3.049225">
        <ele>19.723555</ele>
        <time>2023-08-27T10:10:55.000Z</time>
      </trkpt>
      <trkpt lat="50.817711" lon="3.049158">
        <ele>19.799562</ele>
        <time>2023-08-27T10:10:55.000Z</time>
      </trkpt>
      <trkpt lat="50.817746" lon="3.04901">
        <ele>19.944479</ele>
        <time>2023-08-27T10:10:56.000Z</time>
      </trkpt>
      <trkpt lat="50.817825" lon="3.048772">
        <ele>20.17466</ele>
        <time>2023-08-27T10:10:58.000Z</time>
      </trkpt>
      <trkpt lat="50.817839" lon="3.048693">
        <ele>20.239212</ele>
        <time>2023-08-27T10:10:59.000Z</time>
      </trkpt>
      <trkpt lat="50.818787" lon="3.045121">
        <ele>26.652449</ele>
        <time>2023-08-27T10:11:26.000Z</time>
      </trkpt>
      <trkpt lat="50.819023" lon="3.044265">
        <ele>28.336805</ele>
        <time>2023-08-27T10:11:33.000Z</time>
      </trkpt>
      <trkpt lat="50.819166" lon="3.043746">
        <ele>29.333874</ele>
        <time>2023-08-27T10:11:37.000Z</time>
      </trkpt>
      <trkpt lat="50.820103" lon="3.040287">
        <ele>34.741892</ele>
        <time>2023-08-27T10:12:03.000Z</time>
      </trkpt>
      <trkpt lat="50.820112" lon="3.040232">
        <ele>34.749872</ele>
        <time>2023-08-27T10:12:03.000Z</time>
      </trkpt>
      <trkpt lat="50.82072" lon="3.038139">
        <ele>35.051752</ele>
        <time>2023-08-27T10:12:19.000Z</time>
      </trkpt>
      <trkpt lat="50.820754" lon="3.038055">
        <ele>35.064585</ele>
        <time>2023-08-27T10:12:20.000Z</time>
      </trkpt>
      <trkpt lat="50.822448" lon="3.032278">
        <ele>31.434493</ele>
        <time>2023-08-27T10:13:05.000Z</time>
      </trkpt>
      <trkpt lat="50.822613" lon="3.031765">
        <ele>31.295291</ele>
        <time>2023-08-27T10:13:09.000Z</time>
      </trkpt>
      <trkpt lat="50.823135" lon="3.029949">
        <ele>30.878048</ele>
        <time>2023-08-27T10:13:23.000Z</time>
      </trkpt>
      <trkpt lat="50.823546" lon="3.028626">
        <ele>31.256921</ele>
        <time>2023-08-27T10:13:33.000Z</time>
      </trkpt>
      <trkpt lat="50.82357" lon="3.028533">
        <ele>31.278113</ele>
        <time>2023-08-27T10:13:34.000Z</time>
      </trkpt>
      <trkpt lat="50.826073" lon="3.020114">
        <ele>34.76238</ele>
        <time>2023-08-27T10:14:39.000Z</time>
      </trkpt>
      <trkpt lat="50.826454" lon="3.018796">
        <ele>34.937681</ele>
        <time>2023-08-27T10:14:49.000Z</time>
      </trkpt>
      <trkpt lat="50.826929" lon="3.017195">
        <ele>35.005471</ele>
        <time>2023-08-27T10:15:01.000Z</time>
      </trkpt>
      <trkpt lat="50.827664" lon="3.014982">
        <ele>34.961302</ele>
        <time>2023-08-27T10:15:19.000Z</time>
      </trkpt>
      <trkpt lat="50.827702" lon="3.014844">
        <ele>34.958847</ele>
        <time>2023-08-27T10:15:20.000Z</time>
      </trkpt>
      <trkpt lat="50.827818" lon="3.014848">
        <ele>34.955879</ele>
        <time>2023-08-27T10:15:21.000Z</time>
      </trkpt>
      <trkpt lat="50.827854" lon="3.014804">
        <ele>34.963729</ele>
        <time>2023-08-27T10:15:22.000Z</time>
      </trkpt>
      <trkpt lat="50.827935" lon="3.014681">
        <ele>34.992164</ele>
        <time>2023-08-27T10:15:23.000Z</time>
      </trkpt>
      <trkpt lat="50.82794" lon="3.014589">
        <ele>35.006608</ele>
        <time>2023-08-27T10:15:24.000Z</time>
      </trkpt>
      <trkpt lat="50.827936" lon="3.014462">
        <ele>35.029722</ele>
        <time>2023-08-27T10:15:25.000Z</time>
      </trkpt>
      <trkpt lat="50.827905" lon="3.014341">
        <ele>35.05249</ele>
        <time>2023-08-27T10:15:26.000Z</time>
      </trkpt>
      <trkpt lat="50.827866" lon="3.014287">
        <ele>35.065149</ele>
        <time>2023-08-27T10:15:27.000Z</time>
      </trkpt>
      <trkpt lat="50.827883" lon="3.014171">
        <ele>35.087206</ele>
        <time>2023-08-27T10:15:28.000Z</time>
      </trkpt>
      <trkpt lat="50.828071" lon="3.013523">
        <ele>35.205596</ele>
        <time>2023-08-27T10:15:33.000Z</time>
      </trkpt>
      <trkpt lat="50.828113" lon="3.013398">
        <ele>35.229731</ele>
        <time>2023-08-27T10:15:34.000Z</time>
      </trkpt>
      <trkpt lat="50.828107" lon="3.013404">
        <ele>35.229912</ele>
        <time>2023-08-27T10:15:34.000Z</time>
      </trkpt>
      <trkpt lat="50.828284" lon="3.012666">
        <ele>35.361895</ele>
        <time>2023-08-27T10:15:40.000Z</time>
      </trkpt>
      <trkpt lat="50.828947" lon="3.010419">
        <ele>35.712164</ele>
        <time>2023-08-27T10:15:57.000Z</time>
      </trkpt>
      <trkpt lat="50.82966" lon="3.008024">
        <ele>36.067234</ele>
        <time>2023-08-27T10:16:16.000Z</time>
      </trkpt>
      <trkpt lat="50.829671" lon="3.007951">
        <ele>36.07865</ele>
        <time>2023-08-27T10:16:17.000Z</time>
      </trkpt>
      <trkpt lat="50.82969" lon="3.007877">
        <ele>36.088592</ele>
        <time>2023-08-27T10:16:18.000Z</time>
      </trkpt>
      <trkpt lat="50.829918" lon="3.007149">
        <ele>36.193714</ele>
        <time>2023-08-27T10:16:24.000Z</time>
      </trkpt>
      <trkpt lat="50.830167" lon="3.006302">
        <ele>36.697223</ele>
        <time>2023-08-27T10:16:31.000Z</time>
      </trkpt>
      <trkpt lat="50.830477" lon="3.005279">
        <ele>37.323003</ele>
        <time>2023-08-27T10:16:39.000Z</time>
      </trkpt>
      <trkpt lat="50.830674" lon="3.004594">
        <ele>37.742608</ele>
        <time>2023-08-27T10:16:44.000Z</time>
      </trkpt>
      <trkpt lat="50.831788" lon="3.000836">
        <ele>40.36646</ele>
        <time>2023-08-27T10:17:13.000Z</time>
      </trkpt>
      <trkpt lat="50.831927" lon="3.000476">
        <ele>40.53856</ele>
        <time>2023-08-27T10:17:16.000Z</time>
      </trkpt>
      <trkpt lat="50.832108" lon="2.99991">
        <ele>40.788567</ele>
        <time>2023-08-27T10:17:20.000Z</time>
      </trkpt>
      <trkpt lat="50.832168" lon="2.999581">
        <ele>40.925086</ele>
        <time>2023-08-27T10:17:22.000Z</time>
      </trkpt>
      <trkpt lat="50.83205" lon="2.999866">
        <ele>40.943333</ele>
        <time>2023-08-27T10:17:24.000Z</time>
      </trkpt>
      <trkpt lat="50.831872" lon="3.000435">
        <ele>40.631621</ele>
        <time>2023-08-27T10:17:28.000Z</time>
      </trkpt>
      <trkpt lat="50.831795" lon="3.000843">
        <ele>40.424092</ele>
        <time>2023-08-27T10:17:31.000Z</time>
      </trkpt>
      <trkpt lat="50.831767" lon="3.000928">
        <ele>40.371474</ele>
        <time>2023-08-27T10:17:32.000Z</time>
      </trkpt>
      <trkpt lat="50.830682" lon="3.004591">
        <ele>37.75874</ele>
        <time>2023-08-27T10:18:00.000Z</time>
      </trkpt>
      <trkpt lat="50.830475" lon="3.00528">
        <ele>37.294551</ele>
        <time>2023-08-27T10:18:05.000Z</time>
      </trkpt>
      <trkpt lat="50.830174" lon="3.006311">
        <ele>36.732591</ele>
        <time>2023-08-27T10:18:13.000Z</time>
      </trkpt>
      <trkpt lat="50.829916" lon="3.007151">
        <ele>36.263105</ele>
        <time>2023-08-27T10:18:20.000Z</time>
      </trkpt>
      <trkpt lat="50.829697" lon="3.007875">
        <ele>36.036512</ele>
        <time>2023-08-27T10:18:26.000Z</time>
      </trkpt>
      <trkpt lat="50.829673" lon="3.00794">
        <ele>36.028696</ele>
        <time>2023-08-27T10:18:27.000Z</time>
      </trkpt>
      <trkpt lat="50.829659" lon="3.008021">
        <ele>36.019725</ele>
        <time>2023-08-27T10:18:28.000Z</time>
      </trkpt>
      <trkpt lat="50.828944" lon="3.01042">
        <ele>35.710836</ele>
        <time>2023-08-27T10:18:47.000Z</time>
      </trkpt>
      <trkpt lat="50.828286" lon="3.012658">
        <ele>35.253188</ele>
        <time>2023-08-27T10:19:04.000Z</time>
      </trkpt>
      <trkpt lat="50.828123" lon="3.013085">
        <ele>35.216515</ele>
        <time>2023-08-27T10:19:08.000Z</time>
      </trkpt>
      <trkpt lat="50.828103" lon="3.013165">
        <ele>35.209675</ele>
        <time>2023-08-27T10:19:09.000Z</time>
      </trkpt>
      <trkpt lat="50.828017" lon="3.0134">
        <ele>35.189035</ele>
        <time>2023-08-27T10:19:11.000Z</time>
      </trkpt>
      <trkpt lat="50.827803" lon="3.014114">
        <ele>35.130858</ele>
        <time>2023-08-27T10:19:17.000Z</time>
      </trkpt>
      <trkpt lat="50.827775" lon="3.014239">
        <ele>35.119857</ele>
        <time>2023-08-27T10:19:18.000Z</time>
      </trkpt>
      <trkpt lat="50.827708" lon="3.014249">
        <ele>35.113441</ele>
        <time>2023-08-27T10:19:19.000Z</time>
      </trkpt>
      <trkpt lat="50.827626" lon="3.014327">
        <ele>35.100906</ele>
        <time>2023-08-27T10:19:20.000Z</time>
      </trkpt>
      <trkpt lat="50.827584" lon="3.014402">
        <ele>35.094595</ele>
        <time>2023-08-27T10:19:21.000Z</time>
      </trkpt>
      <trkpt lat="50.827596" lon="3.0144">
        <ele>35.094136</ele>
        <time>2023-08-27T10:19:21.000Z</time>
      </trkpt>
      <trkpt lat="50.827585" lon="3.014443">
        <ele>35.091025</ele>
        <time>2023-08-27T10:19:21.000Z</time>
      </trkpt>
      <trkpt lat="50.827557" lon="3.014559">
        <ele>35.082034</ele>
        <time>2023-08-27T10:19:22.000Z</time>
      </trkpt>
      <trkpt lat="50.827474" lon="3.014622">
        <ele>35.07067</ele>
        <time>2023-08-27T10:19:23.000Z</time>
      </trkpt>
      <trkpt lat="50.827114" lon="3.014948">
        <ele>35.251161</ele>
        <time>2023-08-27T10:19:28.000Z</time>
      </trkpt>
      <trkpt lat="50.827084" lon="3.014991">
        <ele>35.300248</ele>
        <time>2023-08-27T10:19:28.000Z</time>
      </trkpt>
      <trkpt lat="50.826092" lon="3.015714">
        <ele>36.677582</ele>
        <time>2023-08-27T10:19:40.000Z</time>
      </trkpt>
      <trkpt lat="50.824168" lon="3.016704">
        <ele>40.146626</ele>
        <time>2023-08-27T10:20:02.000Z</time>
      </trkpt>
      <trkpt lat="50.821904" lon="3.017809">
        <ele>42.472315</ele>
        <time>2023-08-27T10:20:28.000Z</time>
      </trkpt>
      <trkpt lat="50.819958" lon="3.01909">
        <ele>42.45254</ele>
        <time>2023-08-27T10:20:51.000Z</time>
      </trkpt>
      <trkpt lat="50.81903" lon="3.019673">
        <ele>42.40832</ele>
        <time>2023-08-27T10:21:02.000Z</time>
      </trkpt>
      <trkpt lat="50.8181" lon="3.020281">
        <ele>42.481924</ele>
        <time>2023-08-27T10:21:13.000Z</time>
      </trkpt>
      <trkpt lat="50.818041" lon="3.020321">
        <ele>42.490137</ele>
        <time>2023-08-27T10:21:14.000Z</time>
      </trkpt>
      <trkpt lat="50.817569" lon="3.020629">
        <ele>42.541956</ele>
        <time>2023-08-27T10:21:20.000Z</time>
      </trkpt>
      <trkpt lat="50.817548" lon="3.020643">
        <ele>42.545419</ele>
        <time>2023-08-27T10:21:20.000Z</time>
      </trkpt>
      <trkpt lat="50.817025" lon="3.020985">
        <ele>42.365362</ele>
        <time>2023-08-27T10:21:26.000Z</time>
      </trkpt>
      <trkpt lat="50.816793" lon="3.021127">
        <ele>42.0715</ele>
        <time>2023-08-27T10:21:29.000Z</time>
      </trkpt>
      <trkpt lat="50.816429" lon="3.02132">
        <ele>41.597513</ele>
        <time>2023-08-27T10:21:33.000Z</time>
      </trkpt>
      <trkpt lat="50.816005" lon="3.02161">
        <ele>41.016577</ele>
        <time>2023-08-27T10:21:38.000Z</time>
      </trkpt>
      <trkpt lat="50.815826" lon="3.021724">
        <ele>40.789049</ele>
        <time>2023-08-27T10:21:40.000Z</time>
      </trkpt>
      <trkpt lat="50.815815" lon="3.02174">
        <ele>40.763569</ele>
        <time>2023-08-27T10:21:40.000Z</time>
      </trkpt>
      <trkpt lat="50.815689" lon="3.021828">
        <ele>40.599194</ele>
        <time>2023-08-27T10:21:42.000Z</time>
      </trkpt>
      <trkpt lat="50.815477" lon="3.022002">
        <ele>40.230591</ele>
        <time>2023-08-27T10:21:45.000Z</time>
      </trkpt>
      <trkpt lat="50.815179" lon="3.02216">
        <ele>39.445403</ele>
        <time>2023-08-27T10:21:48.000Z</time>
      </trkpt>
      <trkpt lat="50.814896" lon="3.022361">
        <ele>38.640879</ele>
        <time>2023-08-27T10:21:51.000Z</time>
      </trkpt>
      <trkpt lat="50.81485" lon="3.022367">
        <ele>38.537479</ele>
        <time>2023-08-27T10:21:52.000Z</time>
      </trkpt>
      <trkpt lat="50.814234" lon="3.022721">
        <ele>36.842468</ele>
        <time>2023-08-27T10:21:59.000Z</time>
      </trkpt>
      <trkpt lat="50.814188" lon="3.022735">
        <ele>36.726847</ele>
        <time>2023-08-27T10:22:00.000Z</time>
      </trkpt>
      <trkpt lat="50.813033" lon="3.023074">
        <ele>34.060409</ele>
        <time>2023-08-27T10:22:13.000Z</time>
      </trkpt>
      <trkpt lat="50.812361" lon="3.023564">
        <ele>32.495581</ele>
        <time>2023-08-27T10:22:21.000Z</time>
      </trkpt>
      <trkpt lat="50.811992" lon="3.023743">
        <ele>31.910141</ele>
        <time>2023-08-27T10:22:25.000Z</time>
      </trkpt>
      <trkpt lat="50.808829" lon="3.024635">
        <ele>31.972214</ele>
        <time>2023-08-27T10:23:01.000Z</time>
      </trkpt>
      <trkpt lat="50.807901" lon="3.025177">
        <ele>31.567402</ele>
        <time>2023-08-27T10:23:12.000Z</time>
      </trkpt>
      <trkpt lat="50.807281" lon="3.025589">
        <ele>31.147387</ele>
        <time>2023-08-27T10:23:19.000Z</time>
      </trkpt>
      <trkpt lat="50.806678" lon="3.025903">
        <ele>30.200567</ele>
        <time>2023-08-27T10:23:26.000Z</time>
      </trkpt>
      <trkpt lat="50.804085" lon="3.026863">
        <ele>22.440752</ele>
        <time>2023-08-27T10:23:56.000Z</time>
      </trkpt>
      <trkpt lat="50.802779" lon="3.027182">
        <ele>19.777339</ele>
        <time>2023-08-27T10:24:11.000Z</time>
      </trkpt>
      <trkpt lat="50.802634" lon="3.027239">
        <ele>19.613094</ele>
        <time>2023-08-27T10:24:13.000Z</time>
      </trkpt>
      <trkpt lat="50.800197" lon="3.028215">
        <ele>18.021526</ele>
        <time>2023-08-27T10:24:41.000Z</time>
      </trkpt>
      <trkpt lat="50.799895" lon="3.028315">
        <ele>17.923235</ele>
        <time>2023-08-27T10:24:44.000Z</time>
      </trkpt>
      <trkpt lat="50.79948" lon="3.028467">
        <ele>17.838997</ele>
        <time>2023-08-27T10:24:49.000Z</time>
      </trkpt>
      <trkpt lat="50.799032" lon="3.028492">
        <ele>17.748712</ele>
        <time>2023-08-27T10:24:54.000Z</time>
      </trkpt>
      <trkpt lat="50.798373" lon="3.028472">
        <ele>17.617592</ele>
        <time>2023-08-27T10:25:01.000Z</time>
      </trkpt>
      <trkpt lat="50.796761" lon="3.028318">
        <ele>17.444648</ele>
        <time>2023-08-27T10:25:19.000Z</time>
      </trkpt>
      <trkpt lat="50.798381" lon="3.028483">
        <ele>17.639295</ele>
        <time>2023-08-27T10:25:37.000Z</time>
      </trkpt>
      <trkpt lat="50.799025" lon="3.028499">
        <ele>17.770827</ele>
        <time>2023-08-27T10:25:44.000Z</time>
      </trkpt>
      <trkpt lat="50.799478" lon="3.02847">
        <ele>17.865852</ele>
        <time>2023-08-27T10:25:49.000Z</time>
      </trkpt>
      <trkpt lat="50.799887" lon="3.028332">
        <ele>17.954503</ele>
        <time>2023-08-27T10:25:54.000Z</time>
      </trkpt>
      <trkpt lat="50.800186" lon="3.028203">
        <ele>18.021225</ele>
        <time>2023-08-27T10:25:57.000Z</time>
      </trkpt>
      <trkpt lat="50.802637" lon="3.027228">
        <ele>19.33986</ele>
        <time>2023-08-27T10:26:25.000Z</time>
      </trkpt>
      <trkpt lat="50.802783" lon="3.027172">
        <ele>19.64662</ele>
        <time>2023-08-27T10:26:27.000Z</time>
      </trkpt>
      <trkpt lat="50.804084" lon="3.026869">
        <ele>22.335804</ele>
        <time>2023-08-27T10:26:42.000Z</time>
      </trkpt>
      <trkpt lat="50.806688" lon="3.025894">
        <ele>29.817172</ele>
        <time>2023-08-27T10:27:12.000Z</time>
      </trkpt>
      <trkpt lat="50.807283" lon="3.025583">
        <ele>31.002535</ele>
        <time>2023-08-27T10:27:19.000Z</time>
      </trkpt>
      <trkpt lat="50.807903" lon="3.025176">
        <ele>31.957286</ele>
        <time>2023-08-27T10:27:26.000Z</time>
      </trkpt>
      <trkpt lat="50.808829" lon="3.024636">
        <ele>31.864466</ele>
        <time>2023-08-27T10:27:37.000Z</time>
      </trkpt>
      <trkpt lat="50.811992" lon="3.023759">
        <ele>32.353847</ele>
        <time>2023-08-27T10:28:13.000Z</time>
      </trkpt>
      <trkpt lat="50.812364" lon="3.023574">
        <ele>32.766843</ele>
        <time>2023-08-27T10:28:17.000Z</time>
      </trkpt>
      <trkpt lat="50.813046" lon="3.023083">
        <ele>33.706165</ele>
        <time>2023-08-27T10:28:25.000Z</time>
      </trkpt>
      <trkpt lat="50.814188" lon="3.022738">
        <ele>36.824528</ele>
        <time>2023-08-27T10:28:38.000Z</time>
      </trkpt>
      <trkpt lat="50.814243" lon="3.022723">
        <ele>36.943951</ele>
        <time>2023-08-27T10:28:39.000Z</time>
      </trkpt>
      <trkpt lat="50.814411" lon="3.022697">
        <ele>37.39095</ele>
        <time>2023-08-27T10:28:41.000Z</time>
      </trkpt>
      <trkpt lat="50.814688" lon="3.02258">
        <ele>38.1504</ele>
        <time>2023-08-27T10:28:44.000Z</time>
      </trkpt>
      <trkpt lat="50.814898" lon="3.022351">
        <ele>38.694695</ele>
        <time>2023-08-27T10:28:47.000Z</time>
      </trkpt>
      <trkpt lat="50.815182" lon="3.022159">
        <ele>39.330581</ele>
        <time>2023-08-27T10:28:50.000Z</time>
      </trkpt>
      <trkpt lat="50.815474" lon="3.021999">
        <ele>39.951143</ele>
        <time>2023-08-27T10:28:53.000Z</time>
      </trkpt>
      <trkpt lat="50.815684" lon="3.021834">
        <ele>40.438551</ele>
        <time>2023-08-27T10:28:56.000Z</time>
      </trkpt>
      <trkpt lat="50.815819" lon="3.021752">
        <ele>40.709712</ele>
        <time>2023-08-27T10:28:58.000Z</time>
      </trkpt>
      <trkpt lat="50.815821" lon="3.021733">
        <ele>40.751743</ele>
        <time>2023-08-27T10:28:58.000Z</time>
      </trkpt>
      <trkpt lat="50.815999" lon="3.021611">
        <ele>41.127099</ele>
        <time>2023-08-27T10:29:00.000Z</time>
      </trkpt>
      <trkpt lat="50.816434" lon="3.021321">
        <ele>41.91751</ele>
        <time>2023-08-27T10:29:05.000Z</time>
      </trkpt>
      <trkpt lat="50.816796" lon="3.021122">
        <ele>42.068978</ele>
        <time>2023-08-27T10:29:09.000Z</time>
      </trkpt>
      <trkpt lat="50.817013" lon="3.020974">
        <ele>42.162866</ele>
        <time>2023-08-27T10:29:12.000Z</time>
      </trkpt>
      <trkpt lat="50.817531" lon="3.020649">
        <ele>42.383177</ele>
        <time>2023-08-27T10:29:18.000Z</time>
      </trkpt>
      <trkpt lat="50.817575" lon="3.020632">
        <ele>42.396438</ele>
        <time>2023-08-27T10:29:19.000Z</time>
      </trkpt>
      <trkpt lat="50.818039" lon="3.020317">
        <ele>42.580985</ele>
        <time>2023-08-27T10:29:25.000Z</time>
      </trkpt>
      <trkpt lat="50.818117" lon="3.020277">
        <ele>42.569813</ele>
        <time>2023-08-27T10:29:26.000Z</time>
      </trkpt>
      <trkpt lat="50.819034" lon="3.019672">
        <ele>42.430332</ele>
        <time>2023-08-27T10:29:37.000Z</time>
      </trkpt>
      <trkpt lat="50.819951" lon="3.019103">
        <ele>42.391588</ele>
        <time>2023-08-27T10:29:48.000Z</time>
      </trkpt>
      <trkpt lat="50.821903" lon="3.017811">
        <ele>42.356144</ele>
        <time>2023-08-27T10:30:12.000Z</time>
      </trkpt>
      <trkpt lat="50.824174" lon="3.016706">
        <ele>40.033825</ele>
        <time>2023-08-27T10:30:38.000Z</time>
      </trkpt>
      <trkpt lat="50.826087" lon="3.01571">
        <ele>36.535863</ele>
        <time>2023-08-27T10:31:00.000Z</time>
      </trkpt>
      <trkpt lat="50.827092" lon="3.014985">
        <ele>35.403445</ele>
        <time>2023-08-27T10:31:12.000Z</time>
      </trkpt>
      <trkpt lat="50.827118" lon="3.014958">
        <ele>35.381254</ele>
        <time>2023-08-27T10:31:12.000Z</time>
      </trkpt>
      <trkpt lat="50.827256" lon="3.014884">
        <ele>35.294278</ele>
        <time>2023-08-27T10:31:14.000Z</time>
      </trkpt>
      <trkpt lat="50.827391" lon="3.014897">
        <ele>35.222853</ele>
        <time>2023-08-27T10:31:16.000Z</time>
      </trkpt>
      <trkpt lat="50.827466" lon="3.015052">
        <ele>35.15188</ele>
        <time>2023-08-27T10:31:17.000Z</time>
      </trkpt>
      <trkpt lat="50.827495" lon="3.015194">
        <ele>35.098113</ele>
        <time>2023-08-27T10:31:18.000Z</time>
      </trkpt>
      <trkpt lat="50.827406" lon="3.015515">
        <ele>34.974478</ele>
        <time>2023-08-27T10:31:20.000Z</time>
      </trkpt>
      <trkpt lat="50.826927" lon="3.017196">
        <ele>34.884322</ele>
        <time>2023-08-27T10:31:33.000Z</time>
      </trkpt>
      <trkpt lat="50.826464" lon="3.018797">
        <ele>34.967426</ele>
        <time>2023-08-27T10:31:45.000Z</time>
      </trkpt>
      <trkpt lat="50.826066" lon="3.020124">
        <ele>34.677857</ele>
        <time>2023-08-27T10:31:55.000Z</time>
      </trkpt>
      <trkpt lat="50.823149" lon="3.029956">
        <ele>31.097115</ele>
        <time>2023-08-27T10:33:11.000Z</time>
      </trkpt>
      <trkpt lat="50.8226" lon="3.031755">
        <ele>31.195788</ele>
        <time>2023-08-27T10:33:25.000Z</time>
      </trkpt>
      <trkpt lat="50.822459" lon="3.032273">
        <ele>31.532905</ele>
        <time>2023-08-27T10:33:29.000Z</time>
      </trkpt>
      <trkpt lat="50.820758" lon="3.038068">
        <ele>34.944443</ele>
        <time>2023-08-27T10:34:14.000Z</time>
      </trkpt>
      <trkpt lat="50.820733" lon="3.03814">
        <ele>34.980504</ele>
        <time>2023-08-27T10:34:15.000Z</time>
      </trkpt>
      <trkpt lat="50.820118" lon="3.040245">
        <ele>34.375378</ele>
        <time>2023-08-27T10:34:31.000Z</time>
      </trkpt>
      <trkpt lat="50.820091" lon="3.04029">
        <ele>34.319108</ele>
        <time>2023-08-27T10:34:31.000Z</time>
      </trkpt>
      <trkpt lat="50.819158" lon="3.043748">
        <ele>29.308856</ele>
        <time>2023-08-27T10:34:57.000Z</time>
      </trkpt>
      <trkpt lat="50.819033" lon="3.044263">
        <ele>28.396312</ele>
        <time>2023-08-27T10:35:01.000Z</time>
      </trkpt>
      <trkpt lat="50.818801" lon="3.045112">
        <ele>26.722893</ele>
        <time>2023-08-27T10:35:08.000Z</time>
      </trkpt>
      <trkpt lat="50.817841" lon="3.048698">
        <ele>20.348501</ele>
        <time>2023-08-27T10:35:35.000Z</time>
      </trkpt>
      <trkpt lat="50.817821" lon="3.048768">
        <ele>20.245846</ele>
        <time>2023-08-27T10:35:36.000Z</time>
      </trkpt>
      <trkpt lat="50.817751" lon="3.048996">
        <ele>19.879871</ele>
        <time>2023-08-27T10:35:38.000Z</time>
      </trkpt>
      <trkpt lat="50.817702" lon="3.04916">
        <ele>19.649429</ele>
        <time>2023-08-27T10:35:39.000Z</time>
      </trkpt>
      <trkpt lat="50.817689" lon="3.049226">
        <ele>19.528589</ele>
        <time>2023-08-27T10:35:39.000Z</time>
      </trkpt>
      <trkpt lat="50.81733" lon="3.050582">
        <ele>18.498048</ele>
        <time>2023-08-27T10:35:49.000Z</time>
      </trkpt>
      <trkpt lat="50.817169" lon="3.051191">
        <ele>18.262406</ele>
        <time>2023-08-27T10:35:54.000Z</time>
      </trkpt>
      <trkpt lat="50.817006" lon="3.051766">
        <ele>18.041543</ele>
        <time>2023-08-27T10:35:58.000Z</time>
      </trkpt>
      <trkpt lat="50.816969" lon="3.051875">
        <ele>18.000036</ele>
        <time>2023-08-27T10:35:59.000Z</time>
      </trkpt>
      <trkpt lat="50.816912" lon="3.052108">
        <ele>17.917697</ele>
        <time>2023-08-27T10:36:01.000Z</time>
      </trkpt>
      <trkpt lat="50.816902" lon="3.052183">
        <ele>17.888898</ele>
        <time>2023-08-27T10:36:02.000Z</time>
      </trkpt>
      <trkpt lat="50.816671" lon="3.05301">
        <ele>17.838404</ele>
        <time>2023-08-27T10:36:08.000Z</time>
      </trkpt>
      <trkpt lat="50.816027" lon="3.055112">
        <ele>17.862302</ele>
        <time>2023-08-27T10:36:24.000Z</time>
      </trkpt>
      <trkpt lat="50.815199" lon="3.057757">
        <ele>18.200639</ele>
        <time>2023-08-27T10:36:45.000Z</time>
      </trkpt>
      <trkpt lat="50.815114" lon="3.058014">
        <ele>18.23562</ele>
        <time>2023-08-27T10:36:47.000Z</time>
      </trkpt>
      <trkpt lat="50.815113" lon="3.058067">
        <ele>18.242433</ele>
        <time>2023-08-27T10:36:47.000Z</time>
      </trkpt>
      <trkpt lat="50.81501" lon="3.058347">
        <ele>18.278797</ele>
        <time>2023-08-27T10:36:49.000Z</time>
      </trkpt>
      <trkpt lat="50.814993" lon="3.058431">
        <ele>18.29049</ele>
        <time>2023-08-27T10:36:50.000Z</time>
      </trkpt>
      <trkpt lat="50.81457" lon="3.059785">
        <ele>18.466572</ele>
        <time>2023-08-27T10:37:01.000Z</time>
      </trkpt>
      <trkpt lat="50.814063" lon="3.061388">
        <ele>18.537364</ele>
        <time>2023-08-27T10:37:14.000Z</time>
      </trkpt>
      <trkpt lat="50.814029" lon="3.061499">
        <ele>18.540855</ele>
        <time>2023-08-27T10:37:15.000Z</time>
      </trkpt>
      <trkpt lat="50.81395" lon="3.061804">
        <ele>18.550426</ele>
        <time>2023-08-27T10:37:17.000Z</time>
      </trkpt>
      <trkpt lat="50.813913" lon="3.061905">
        <ele>18.553827</ele>
        <time>2023-08-27T10:37:18.000Z</time>
      </trkpt>
      <trkpt lat="50.813562" lon="3.06302">
        <ele>18.496678</ele>
        <time>2023-08-27T10:37:27.000Z</time>
      </trkpt>
      <trkpt lat="50.812823" lon="3.065373">
        <ele>18.140397</ele>
        <time>2023-08-27T10:37:45.000Z</time>
      </trkpt>
      <trkpt lat="50.812779" lon="3.065517">
        <ele>18.12493</ele>
        <time>2023-08-27T10:37:46.000Z</time>
      </trkpt>
      <trkpt lat="50.812704" lon="3.065745">
        <ele>18.100646</ele>
        <time>2023-08-27T10:37:48.000Z</time>
      </trkpt>
      <trkpt lat="50.812619" lon="3.066056">
        <ele>18.067956</ele>
        <time>2023-08-27T10:37:50.000Z</time>
      </trkpt>
      <trkpt lat="50.812215" lon="3.067366">
        <ele>17.930869</ele>
        <time>2023-08-27T10:38:00.000Z</time>
      </trkpt>
      <trkpt lat="50.812164" lon="3.067504">
        <ele>17.917906</ele>
        <time>2023-08-27T10:38:01.000Z</time>
      </trkpt>
      <trkpt lat="50.812097" lon="3.067772">
        <ele>17.928399</ele>
        <time>2023-08-27T10:38:03.000Z</time>
      </trkpt>
      <trkpt lat="50.812" lon="3.068091">
        <ele>17.99906</ele>
        <time>2023-08-27T10:38:05.000Z</time>
      </trkpt>
      <trkpt lat="50.811996" lon="3.068104">
        <ele>18.001037</ele>
        <time>2023-08-27T10:38:05.000Z</time>
      </trkpt>
      <trkpt lat="50.811819" lon="3.068648">
        <ele>18.117232</ele>
        <time>2023-08-27T10:38:09.000Z</time>
      </trkpt>
      <trkpt lat="50.811825" lon="3.068641">
        <ele>18.117543</ele>
        <time>2023-08-27T10:38:09.000Z</time>
      </trkpt>
      <trkpt lat="50.811802" lon="3.068692">
        <ele>18.128834</ele>
        <time>2023-08-27T10:38:09.000Z</time>
      </trkpt>
      <trkpt lat="50.811746" lon="3.068847">
        <ele>18.163688</ele>
        <time>2023-08-27T10:38:10.000Z</time>
      </trkpt>
      <trkpt lat="50.811101" lon="3.070918">
        <ele>18.670942</ele>
        <time>2023-08-27T10:38:26.000Z</time>
      </trkpt>
      <trkpt lat="50.810841" lon="3.071755">
        <ele>18.915334</ele>
        <time>2023-08-27T10:38:33.000Z</time>
      </trkpt>
      <trkpt lat="50.810694" lon="3.07222">
        <ele>19.052176</ele>
        <time>2023-08-27T10:38:37.000Z</time>
      </trkpt>
      <trkpt lat="50.810553" lon="3.072685">
        <ele>19.190167</ele>
        <time>2023-08-27T10:38:41.000Z</time>
      </trkpt>
      <trkpt lat="50.810218" lon="3.073704">
        <ele>19.528843</ele>
        <time>2023-08-27T10:38:49.000Z</time>
      </trkpt>
      <trkpt lat="50.81014" lon="3.073954">
        <ele>19.611854</ele>
        <time>2023-08-27T10:38:51.000Z</time>
      </trkpt>
      <trkpt lat="50.809705" lon="3.07538">
        <ele>20.082595</ele>
        <time>2023-08-27T10:39:02.000Z</time>
      </trkpt>
      <trkpt lat="50.809665" lon="3.075545">
        <ele>20.127275</ele>
        <time>2023-08-27T10:39:03.000Z</time>
      </trkpt>
      <trkpt lat="50.809654" lon="3.075644">
        <ele>20.152339</ele>
        <time>2023-08-27T10:39:04.000Z</time>
      </trkpt>
      <trkpt lat="50.809737" lon="3.075981">
        <ele>20.246111</ele>
        <time>2023-08-27T10:39:07.000Z</time>
      </trkpt>
      <trkpt lat="50.809862" lon="3.07656">
        <ele>20.405588</ele>
        <time>2023-08-27T10:39:11.000Z</time>
      </trkpt>
      <trkpt lat="50.809883" lon="3.076696">
        <ele>20.442191</ele>
        <time>2023-08-27T10:39:12.000Z</time>
      </trkpt>
      <trkpt lat="50.809973" lon="3.077035">
        <ele>20.535313</ele>
        <time>2023-08-27T10:39:15.000Z</time>
      </trkpt>
      <trkpt lat="50.810081" lon="3.077578">
        <ele>20.687013</ele>
        <time>2023-08-27T10:39:19.000Z</time>
      </trkpt>
      <trkpt lat="50.810133" lon="3.078225">
        <ele>20.707144</ele>
        <time>2023-08-27T10:39:24.000Z</time>
      </trkpt>
      <trkpt lat="50.810124" lon="3.078567">
        <ele>20.573336</ele>
        <time>2023-08-27T10:39:26.000Z</time>
      </trkpt>
      <trkpt lat="50.810079" lon="3.078701">
        <ele>20.517711</ele>
        <time>2023-08-27T10:39:27.000Z</time>
      </trkpt>
      <trkpt lat="50.809893" lon="3.079324">
        <ele>20.245116</ele>
        <time>2023-08-27T10:39:32.000Z</time>
      </trkpt>
      <trkpt lat="50.809626" lon="3.080093">
        <ele>19.901268</ele>
        <time>2023-08-27T10:39:38.000Z</time>
      </trkpt>
      <trkpt lat="50.809448" lon="3.080591">
        <ele>19.680241</ele>
        <time>2023-08-27T10:39:42.000Z</time>
      </trkpt>
      <trkpt lat="50.809002" lon="3.081945">
        <ele>18.578229</ele>
        <time>2023-08-27T10:39:53.000Z</time>
      </trkpt>
      <trkpt lat="50.808567" lon="3.083243">
        <ele>17.56486</ele>
        <time>2023-08-27T10:40:03.000Z</time>
      </trkpt>
      <trkpt lat="50.808422" lon="3.083757">
        <ele>17.265506</ele>
        <time>2023-08-27T10:40:07.000Z</time>
      </trkpt>
      <trkpt lat="50.80831" lon="3.0841">
        <ele>17.06518</ele>
        <time>2023-08-27T10:40:10.000Z</time>
      </trkpt>
      <trkpt lat="50.808197" lon="3.084377">
        <ele>16.889418</ele>
        <time>2023-08-27T10:40:12.000Z</time>
      </trkpt>
      <trkpt lat="50.808054" lon="3.084718">
        <ele>16.675976</ele>
        <time>2023-08-27T10:40:15.000Z</time>
      </trkpt>
      <trkpt lat="50.807966" lon="3.084992">
        <ele>16.511251</ele>
        <time>2023-08-27T10:40:17.000Z</time>
      </trkpt>
      <trkpt lat="50.807827" lon="3.08539">
        <ele>16.272986</ele>
        <time>2023-08-27T10:40:20.000Z</time>
      </trkpt>
      <trkpt lat="50.807234" lon="3.087181">
        <ele>15.834706</ele>
        <time>2023-08-27T10:40:34.000Z</time>
      </trkpt>
      <trkpt lat="50.807062" lon="3.087652">
        <ele>15.739886</ele>
        <time>2023-08-27T10:40:38.000Z</time>
      </trkpt>
      <trkpt lat="50.80673" lon="3.088525">
        <ele>15.595619</ele>
        <time>2023-08-27T10:40:45.000Z</time>
      </trkpt>
      <trkpt lat="50.806656" lon="3.08865">
        <ele>15.577049</ele>
        <time>2023-08-27T10:40:46.000Z</time>
      </trkpt>
      <trkpt lat="50.806601" lon="3.088692">
        <ele>15.566597</ele>
        <time>2023-08-27T10:40:47.000Z</time>
      </trkpt>
      <trkpt lat="50.806476" lon="3.088724">
        <ele>15.547067</ele>
        <time>2023-08-27T10:40:48.000Z</time>
      </trkpt>
      <trkpt lat="50.806399" lon="3.088845">
        <ele>15.527373</ele>
        <time>2023-08-27T10:40:49.000Z</time>
      </trkpt>
      <trkpt lat="50.806351" lon="3.089032">
        <ele>15.507889</ele>
        <time>2023-08-27T10:40:50.000Z</time>
      </trkpt>
      <trkpt lat="50.806362" lon="3.089165">
        <ele>15.492913</ele>
        <time>2023-08-27T10:40:51.000Z</time>
      </trkpt>
      <trkpt lat="50.806351" lon="3.089162">
        <ele>15.492484</ele>
        <time>2023-08-27T10:40:51.000Z</time>
      </trkpt>
      <trkpt lat="50.80636" lon="3.089186">
        <ele>15.489861</ele>
        <time>2023-08-27T10:40:51.000Z</time>
      </trkpt>
      <trkpt lat="50.806419" lon="3.089346">
        <ele>15.471907</ele>
        <time>2023-08-27T10:40:52.000Z</time>
      </trkpt>
      <trkpt lat="50.806241" lon="3.090108">
        <ele>15.387365</ele>
        <time>2023-08-27T10:40:58.000Z</time>
      </trkpt>
      <trkpt lat="50.806237" lon="3.090146">
        <ele>15.38242</ele>
        <time>2023-08-27T10:40:58.000Z</time>
      </trkpt>
      <trkpt lat="50.806083" lon="3.090569">
        <ele>15.424927</ele>
        <time>2023-08-27T10:41:01.000Z</time>
      </trkpt>
      <trkpt lat="50.805193" lon="3.093242">
        <ele>16.804542</ele>
        <time>2023-08-27T10:41:22.000Z</time>
      </trkpt>
      <trkpt lat="50.805156" lon="3.09337">
        <ele>16.894201</ele>
        <time>2023-08-27T10:41:23.000Z</time>
      </trkpt>
      <trkpt lat="50.804905" lon="3.094143">
        <ele>17.494806</ele>
        <time>2023-08-27T10:41:29.000Z</time>
      </trkpt>
      <trkpt lat="50.804903" lon="3.094175">
        <ele>17.513205</ele>
        <time>2023-08-27T10:41:29.000Z</time>
      </trkpt>
      <trkpt lat="50.804815" lon="3.094434">
        <ele>17.71441</ele>
        <time>2023-08-27T10:41:31.000Z</time>
      </trkpt>
      <trkpt lat="50.804749" lon="3.094626">
        <ele>17.864675</ele>
        <time>2023-08-27T10:41:33.000Z</time>
      </trkpt>
      <trkpt lat="50.804598" lon="3.095087">
        <ele>18.212617</ele>
        <time>2023-08-27T10:41:37.000Z</time>
      </trkpt>
      <trkpt lat="50.804575" lon="3.095162">
        <ele>18.260809</ele>
        <time>2023-08-27T10:41:38.000Z</time>
      </trkpt>
      <trkpt lat="50.804499" lon="3.095389">
        <ele>18.441729</ele>
        <time>2023-08-27T10:41:40.000Z</time>
      </trkpt>
      <trkpt lat="50.804482" lon="3.095435">
        <ele>18.476728</ele>
        <time>2023-08-27T10:41:40.000Z</time>
      </trkpt>
      <trkpt lat="50.804397" lon="3.095665">
        <ele>18.550552</ele>
        <time>2023-08-27T10:41:42.000Z</time>
      </trkpt>
      <trkpt lat="50.804333" lon="3.095853">
        <ele>18.599327</ele>
        <time>2023-08-27T10:41:44.000Z</time>
      </trkpt>
      <trkpt lat="50.804295" lon="3.095975">
        <ele>18.630117</ele>
        <time>2023-08-27T10:41:45.000Z</time>
      </trkpt>
      <trkpt lat="50.804248" lon="3.0961">
        <ele>18.665794</ele>
        <time>2023-08-27T10:41:46.000Z</time>
      </trkpt>
      <trkpt lat="50.804207" lon="3.096226">
        <ele>18.695567</ele>
        <time>2023-08-27T10:41:47.000Z</time>
      </trkpt>
      <trkpt lat="50.804178" lon="3.096293">
        <ele>18.712905</ele>
        <time>2023-08-27T10:41:48.000Z</time>
      </trkpt>
      <trkpt lat="50.804033" lon="3.096717">
        <ele>18.829676</ele>
        <time>2023-08-27T10:41:51.000Z</time>
      </trkpt>
      <trkpt lat="50.803975" lon="3.096874">
        <ele>18.867152</ele>
        <time>2023-08-27T10:41:52.000Z</time>
      </trkpt>
      <trkpt lat="50.803962" lon="3.096955">
        <ele>18.887468</ele>
        <time>2023-08-27T10:41:53.000Z</time>
      </trkpt>
      <trkpt lat="50.803812" lon="3.097383">
        <ele>18.999959</ele>
        <time>2023-08-27T10:41:56.000Z</time>
      </trkpt>
      <trkpt lat="50.803273" lon="3.098984">
        <ele>18.839465</ele>
        <time>2023-08-27T10:42:09.000Z</time>
      </trkpt>
      <trkpt lat="50.802861" lon="3.100245">
        <ele>18.45291</ele>
        <time>2023-08-27T10:42:19.000Z</time>
      </trkpt>
      <trkpt lat="50.802796" lon="3.100444">
        <ele>18.39134</ele>
        <time>2023-08-27T10:42:21.000Z</time>
      </trkpt>
      <trkpt lat="50.802723" lon="3.100414">
        <ele>18.369262</ele>
        <time>2023-08-27T10:42:22.000Z</time>
      </trkpt>
      <trkpt lat="50.802625" lon="3.100402">
        <ele>18.341857</ele>
        <time>2023-08-27T10:42:23.000Z</time>
      </trkpt>
      <trkpt lat="50.802268" lon="3.100441">
        <ele>18.256821</ele>
        <time>2023-08-27T10:42:27.000Z</time>
      </trkpt>
      <trkpt lat="50.801386" lon="3.100508">
        <ele>18.037992</ele>
        <time>2023-08-27T10:42:37.000Z</time>
      </trkpt>
      <trkpt lat="50.801261" lon="3.100487">
        <ele>18.007077</ele>
        <time>2023-08-27T10:42:38.000Z</time>
      </trkpt>
      <trkpt lat="50.800385" lon="3.100574">
        <ele>17.895657</ele>
        <time>2023-08-27T10:42:48.000Z</time>
      </trkpt>
      <trkpt lat="50.799373" lon="3.10064">
        <ele>17.827227</ele>
        <time>2023-08-27T10:42:59.000Z</time>
      </trkpt>
      <trkpt lat="50.798761" lon="3.100682">
        <ele>17.758982</ele>
        <time>2023-08-27T10:43:06.000Z</time>
      </trkpt>
      <trkpt lat="50.798686" lon="3.100735">
        <ele>17.749278</ele>
        <time>2023-08-27T10:43:07.000Z</time>
      </trkpt>
      <trkpt lat="50.798649" lon="3.100915">
        <ele>17.733396</ele>
        <time>2023-08-27T10:43:08.000Z</time>
      </trkpt>
      <trkpt lat="50.798489" lon="3.100839">
        <ele>17.712234</ele>
        <time>2023-08-27T10:43:10.000Z</time>
      </trkpt>
      <trkpt lat="50.798109" lon="3.100767">
        <ele>17.661571</ele>
        <time>2023-08-27T10:43:14.000Z</time>
      </trkpt>
      <trkpt lat="50.797853" lon="3.100804">
        <ele>17.627056</ele>
        <time>2023-08-27T10:43:17.000Z</time>
      </trkpt>
      <trkpt lat="50.797679" lon="3.100816">
        <ele>17.604048</ele>
        <time>2023-08-27T10:43:19.000Z</time>
      </trkpt>
      <trkpt lat="50.797404" lon="3.100864">
        <ele>17.528768</ele>
        <time>2023-08-27T10:43:22.000Z</time>
      </trkpt>
      <trkpt lat="50.797098" lon="3.100913">
        <ele>17.322821</ele>
        <time>2023-08-27T10:43:25.000Z</time>
      </trkpt>
      <trkpt lat="50.796799" lon="3.100954">
        <ele>17.119104</ele>
        <time>2023-08-27T10:43:28.000Z</time>
      </trkpt>
      <trkpt lat="50.796537" lon="3.101009">
        <ele>16.947876</ele>
        <time>2023-08-27T10:43:31.000Z</time>
      </trkpt>
      <trkpt lat="50.79653" lon="3.100948">
        <ele>16.918151</ele>
        <time>2023-08-27T10:43:31.000Z</time>
      </trkpt>
      <trkpt lat="50.796462" lon="3.100899">
        <ele>16.870769</ele>
        <time>2023-08-27T10:43:32.000Z</time>
      </trkpt>
      <trkpt lat="50.796401" lon="3.100964">
        <ele>16.816699</ele>
        <time>2023-08-27T10:43:33.000Z</time>
      </trkpt>
      <trkpt lat="50.796353" lon="3.101161">
        <ele>16.724216</ele>
        <time>2023-08-27T10:43:34.000Z</time>
      </trkpt>
      <trkpt lat="50.795859" lon="3.101539">
        <ele>16.357991</ele>
        <time>2023-08-27T10:43:40.000Z</time>
      </trkpt>
      <trkpt lat="50.794781" lon="3.102475">
        <ele>15.182075</ele>
        <time>2023-08-27T10:43:54.000Z</time>
      </trkpt>
      <trkpt lat="50.794517" lon="3.102705">
        <ele>14.896178</ele>
        <time>2023-08-27T10:43:57.000Z</time>
      </trkpt>
      <trkpt lat="50.79319" lon="3.103821">
        <ele>14.061322</ele>
        <time>2023-08-27T10:44:14.000Z</time>
      </trkpt>
      <trkpt lat="50.793183" lon="3.103879">
        <ele>14.043667</ele>
        <time>2023-08-27T10:44:14.000Z</time>
      </trkpt>
      <trkpt lat="50.793305" lon="3.104903">
        <ele>13.835962</ele>
        <time>2023-08-27T10:44:21.000Z</time>
      </trkpt>
      <trkpt lat="50.793116" lon="3.10494">
        <ele>13.886407</ele>
        <time>2023-08-27T10:44:23.000Z</time>
      </trkpt>
      <trkpt lat="50.792586" lon="3.104924">
        <ele>14.024817</ele>
        <time>2023-08-27T10:44:29.000Z</time>
      </trkpt>
      <trkpt lat="50.792138" lon="3.104791">
        <ele>14.14974</ele>
        <time>2023-08-27T10:44:34.000Z</time>
      </trkpt>
      <trkpt lat="50.791706" lon="3.104609">
        <ele>14.266638</ele>
        <time>2023-08-27T10:44:39.000Z</time>
      </trkpt>
      <trkpt lat="50.791544" lon="3.104504">
        <ele>14.321687</ele>
        <time>2023-08-27T10:44:41.000Z</time>
      </trkpt>
      <trkpt lat="50.791508" lon="3.104477">
        <ele>14.338418</ele>
        <time>2023-08-27T10:44:41.000Z</time>
      </trkpt>
      <trkpt lat="50.790945" lon="3.104015">
        <ele>14.55906</ele>
        <time>2023-08-27T10:44:48.000Z</time>
      </trkpt>
      <trkpt lat="50.790585" lon="3.103549">
        <ele>14.723972</ele>
        <time>2023-08-27T10:44:53.000Z</time>
      </trkpt>
      <trkpt lat="50.790177" lon="3.102832">
        <ele>14.926683</ele>
        <time>2023-08-27T10:45:00.000Z</time>
      </trkpt>
      <trkpt lat="50.789914" lon="3.10224">
        <ele>15.038488</ele>
        <time>2023-08-27T10:45:05.000Z</time>
      </trkpt>
      <trkpt lat="50.789624" lon="3.101436">
        <ele>15.184747</ele>
        <time>2023-08-27T10:45:12.000Z</time>
      </trkpt>
      <trkpt lat="50.789574" lon="3.101262">
        <ele>15.21541</ele>
        <time>2023-08-27T10:45:13.000Z</time>
      </trkpt>
      <trkpt lat="50.789462" lon="3.100973">
        <ele>15.267593</ele>
        <time>2023-08-27T10:45:15.000Z</time>
      </trkpt>
      <trkpt lat="50.789188" lon="3.100145">
        <ele>15.368482</ele>
        <time>2023-08-27T10:45:22.000Z</time>
      </trkpt>
      <trkpt lat="50.788542" lon="3.098217">
        <ele>15.445384</ele>
        <time>2023-08-27T10:45:37.000Z</time>
      </trkpt>
      <trkpt lat="50.788166" lon="3.097032">
        <ele>15.486118</ele>
        <time>2023-08-27T10:45:46.000Z</time>
      </trkpt>
      <trkpt lat="50.787383" lon="3.094748">
        <ele>15.613581</ele>
        <time>2023-08-27T10:46:04.000Z</time>
      </trkpt>
      <trkpt lat="50.785905" lon="3.091434">
        <ele>15.62064</ele>
        <time>2023-08-27T10:46:33.000Z</time>
      </trkpt>
      <trkpt lat="50.786447" lon="3.090929">
        <ele>15.480649</ele>
        <time>2023-08-27T10:46:40.000Z</time>
      </trkpt>
      <trkpt lat="50.786947" lon="3.090562">
        <ele>15.099472</ele>
        <time>2023-08-27T10:46:46.000Z</time>
      </trkpt>
      <trkpt lat="50.787272" lon="3.090398">
        <ele>14.863544</ele>
        <time>2023-08-27T10:46:50.000Z</time>
      </trkpt>
      <trkpt lat="50.788103" lon="3.090128">
        <ele>14.306069</ele>
        <time>2023-08-27T10:46:59.000Z</time>
      </trkpt>
      <trkpt lat="50.788368" lon="3.090064">
        <ele>14.307807</ele>
        <time>2023-08-27T10:47:02.000Z</time>
      </trkpt>
      <trkpt lat="50.788599" lon="3.089988">
        <ele>14.309379</ele>
        <time>2023-08-27T10:47:05.000Z</time>
      </trkpt>
      <trkpt lat="50.788814" lon="3.08993">
        <ele>14.310901</ele>
        <time>2023-08-27T10:47:07.000Z</time>
      </trkpt>
      <trkpt lat="50.78921" lon="3.089813">
        <ele>14.313573</ele>
        <time>2023-08-27T10:47:11.000Z</time>
      </trkpt>
      <trkpt lat="50.790273" lon="3.08953">
        <ele>14.428566</ele>
        <time>2023-08-27T10:47:23.000Z</time>
      </trkpt>
      <trkpt lat="50.790729" lon="3.089364">
        <ele>14.54076</ele>
        <time>2023-08-27T10:47:28.000Z</time>
      </trkpt>
      <trkpt lat="50.791175" lon="3.089118">
        <ele>14.658871</ele>
        <time>2023-08-27T10:47:33.000Z</time>
      </trkpt>
      <trkpt lat="50.791321" lon="3.089008">
        <ele>14.698781</ele>
        <time>2023-08-27T10:47:35.000Z</time>
      </trkpt>
      <trkpt lat="50.791599" lon="3.088804">
        <ele>14.768185</ele>
        <time>2023-08-27T10:47:38.000Z</time>
      </trkpt>
      <trkpt lat="50.79202" lon="3.088382">
        <ele>14.822742</ele>
        <time>2023-08-27T10:47:44.000Z</time>
      </trkpt>
      <trkpt lat="50.792906" lon="3.087357">
        <ele>14.945798</ele>
        <time>2023-08-27T10:47:56.000Z</time>
      </trkpt>
      <trkpt lat="50.792982" lon="3.087274">
        <ele>14.956181</ele>
        <time>2023-08-27T10:47:57.000Z</time>
      </trkpt>
      <trkpt lat="50.793606" lon="3.086513">
        <ele>14.987742</ele>
        <time>2023-08-27T10:48:06.000Z</time>
      </trkpt>
      <trkpt lat="50.793908" lon="3.086263">
        <ele>14.998944</ele>
        <time>2023-08-27T10:48:10.000Z</time>
      </trkpt>
      <trkpt lat="50.794051" lon="3.086216">
        <ele>15.004103</ele>
        <time>2023-08-27T10:48:12.000Z</time>
      </trkpt>
      <trkpt lat="50.794067" lon="3.086221">
        <ele>15.004843</ele>
        <time>2023-08-27T10:48:12.000Z</time>
      </trkpt>
      <trkpt lat="50.794161" lon="3.08619">
        <ele>15.007794</ele>
        <time>2023-08-27T10:48:13.000Z</time>
      </trkpt>
      <trkpt lat="50.794211" lon="3.086075">
        <ele>15.010746</ele>
        <time>2023-08-27T10:48:14.000Z</time>
      </trkpt>
      <trkpt lat="50.794214" lon="3.085995">
        <ele>15.012513</ele>
        <time>2023-08-27T10:48:15.000Z</time>
      </trkpt>
      <trkpt lat="50.794292" lon="3.085848">
        <ele>15.016479</ele>
        <time>2023-08-27T10:48:16.000Z</time>
      </trkpt>
      <trkpt lat="50.794294" lon="3.085849">
        <ele>15.016479</ele>
        <time>2023-08-27T10:48:16.000Z</time>
      </trkpt>
      <trkpt lat="50.794571" lon="3.085576">
        <ele>15.035655</ele>
        <time>2023-08-27T10:48:20.000Z</time>
      </trkpt>
      <trkpt lat="50.794568" lon="3.085562">
        <ele>15.035659</ele>
        <time>2023-08-27T10:48:20.000Z</time>
      </trkpt>
      <trkpt lat="50.794994" lon="3.085321">
        <ele>15.087772</ele>
        <time>2023-08-27T10:48:25.000Z</time>
      </trkpt>
      <trkpt lat="50.795401" lon="3.085137">
        <ele>15.138598</ele>
        <time>2023-08-27T10:48:30.000Z</time>
      </trkpt>
      <trkpt lat="50.796194" lon="3.084951">
        <ele>15.229903</ele>
        <time>2023-08-27T10:48:39.000Z</time>
      </trkpt>
      <trkpt lat="50.796975" lon="3.084763">
        <ele>15.359554</ele>
        <time>2023-08-27T10:48:48.000Z</time>
      </trkpt>
      <trkpt lat="50.797748" lon="3.084574">
        <ele>15.490355</ele>
        <time>2023-08-27T10:48:57.000Z</time>
      </trkpt>
      <trkpt lat="50.798527" lon="3.084372">
        <ele>15.596394</ele>
        <time>2023-08-27T10:49:06.000Z</time>
      </trkpt>
      <trkpt lat="50.799301" lon="3.084189">
        <ele>15.691147</ele>
        <time>2023-08-27T10:49:15.000Z</time>
      </trkpt>
      <trkpt lat="50.800081" lon="3.083995">
        <ele>15.752928</ele>
        <time>2023-08-27T10:49:24.000Z</time>
      </trkpt>
      <trkpt lat="50.800847" lon="3.08381">
        <ele>15.765707</ele>
        <time>2023-08-27T10:49:33.000Z</time>
      </trkpt>
      <trkpt lat="50.800077" lon="3.083995">
        <ele>15.767053</ele>
        <time>2023-08-27T10:49:42.000Z</time>
      </trkpt>
      <trkpt lat="50.799297" lon="3.084165">
        <ele>15.682252</ele>
        <time>2023-08-27T10:49:51.000Z</time>
      </trkpt>
      <trkpt lat="50.798526" lon="3.084355">
        <ele>15.597433</ele>
        <time>2023-08-27T10:50:00.000Z</time>
      </trkpt>
      <trkpt lat="50.797735" lon="3.084554">
        <ele>15.482545</ele>
        <time>2023-08-27T10:50:09.000Z</time>
      </trkpt>
      <trkpt lat="50.796965" lon="3.084727">
        <ele>15.361521</ele>
        <time>2023-08-27T10:50:18.000Z</time>
      </trkpt>
      <trkpt lat="50.796193" lon="3.084909">
        <ele>15.250266</ele>
        <time>2023-08-27T10:50:27.000Z</time>
      </trkpt>
      <trkpt lat="50.795414" lon="3.085097">
        <ele>15.147151</ele>
        <time>2023-08-27T10:50:36.000Z</time>
      </trkpt>
      <trkpt lat="50.794978" lon="3.085297">
        <ele>15.088583</ele>
        <time>2023-08-27T10:50:41.000Z</time>
      </trkpt>
      <trkpt lat="50.794196" lon="3.085768">
        <ele>15.140937</ele>
        <time>2023-08-27T10:50:50.000Z</time>
      </trkpt>
      <trkpt lat="50.794197" lon="3.08576">
        <ele>15.141341</ele>
        <time>2023-08-27T10:50:50.000Z</time>
      </trkpt>
      <trkpt lat="50.794142" lon="3.085792">
        <ele>15.14777</ele>
        <time>2023-08-27T10:50:51.000Z</time>
      </trkpt>
      <trkpt lat="50.794082" lon="3.085763">
        <ele>15.153462</ele>
        <time>2023-08-27T10:50:52.000Z</time>
      </trkpt>
      <trkpt lat="50.79402" lon="3.085614">
        <ele>15.164134</ele>
        <time>2023-08-27T10:50:53.000Z</time>
      </trkpt>
      <trkpt lat="50.794005" lon="3.08506">
        <ele>15.200099</ele>
        <time>2023-08-27T10:50:57.000Z</time>
      </trkpt>
      <trkpt lat="50.794025" lon="3.084547">
        <ele>15.232572</ele>
        <time>2023-08-27T10:51:01.000Z</time>
      </trkpt>
      <trkpt lat="50.79402" lon="3.084155">
        <ele>15.248002</ele>
        <time>2023-08-27T10:51:04.000Z</time>
      </trkpt>
      <trkpt lat="50.793915" lon="3.08356">
        <ele>15.217708</ele>
        <time>2023-08-27T10:51:08.000Z</time>
      </trkpt>
      <trkpt lat="50.793515" lon="3.08216">
        <ele>15.142583</ele>
        <time>2023-08-27T10:51:19.000Z</time>
      </trkpt>
      <trkpt lat="50.793343" lon="3.08137">
        <ele>15.08966</ele>
        <time>2023-08-27T10:51:25.000Z</time>
      </trkpt>
      <trkpt lat="50.793275" lon="3.0808">
        <ele>15.032514</ele>
        <time>2023-08-27T10:51:29.000Z</time>
      </trkpt>
      <trkpt lat="50.793121" lon="3.078755">
        <ele>14.828657</ele>
        <time>2023-08-27T10:51:43.000Z</time>
      </trkpt>
      <trkpt lat="50.793012" lon="3.077988">
        <ele>14.773758</ele>
        <time>2023-08-27T10:51:49.000Z</time>
      </trkpt>
      <trkpt lat="50.791989" lon="3.073385">
        <ele>14.458332</ele>
        <time>2023-08-27T10:52:23.000Z</time>
      </trkpt>
      <trkpt lat="50.792" lon="3.07337">
        <ele>14.458115</ele>
        <time>2023-08-27T10:52:23.000Z</time>
      </trkpt>
      <trkpt lat="50.792001" lon="3.073381">
        <ele>14.458386</ele>
        <time>2023-08-27T10:52:23.000Z</time>
      </trkpt>
      <trkpt lat="50.793007" lon="3.077974">
        <ele>14.773748</ele>
        <time>2023-08-27T10:52:57.000Z</time>
      </trkpt>
      <trkpt lat="50.79313" lon="3.078747">
        <ele>14.828649</ele>
        <time>2023-08-27T10:53:03.000Z</time>
      </trkpt>
      <trkpt lat="50.793267" lon="3.080805">
        <ele>15.032517</ele>
        <time>2023-08-27T10:53:18.000Z</time>
      </trkpt>
      <trkpt lat="50.793338" lon="3.081365">
        <ele>15.089659</ele>
        <time>2023-08-27T10:53:22.000Z</time>
      </trkpt>
      <trkpt lat="50.793509" lon="3.082161">
        <ele>15.131278</ele>
        <time>2023-08-27T10:53:28.000Z</time>
      </trkpt>
      <trkpt lat="50.793909" lon="3.083572">
        <ele>15.178492</ele>
        <time>2023-08-27T10:53:39.000Z</time>
      </trkpt>
      <trkpt lat="50.794016" lon="3.084166">
        <ele>15.197541</ele>
        <time>2023-08-27T10:53:43.000Z</time>
      </trkpt>
      <trkpt lat="50.794026" lon="3.084538">
        <ele>15.184839</ele>
        <time>2023-08-27T10:53:46.000Z</time>
      </trkpt>
      <trkpt lat="50.794001" lon="3.085045">
        <ele>15.159493</ele>
        <time>2023-08-27T10:53:50.000Z</time>
      </trkpt>
      <trkpt lat="50.79397" lon="3.085654">
        <ele>15.129493</ele>
        <time>2023-08-27T10:53:54.000Z</time>
      </trkpt>
      <trkpt lat="50.793956" lon="3.085854">
        <ele>15.119951</ele>
        <time>2023-08-27T10:53:55.000Z</time>
      </trkpt>
      <trkpt lat="50.793928" lon="3.085989">
        <ele>15.111995</ele>
        <time>2023-08-27T10:53:56.000Z</time>
      </trkpt>
      <trkpt lat="50.79386" lon="3.086154">
        <ele>15.10199</ele>
        <time>2023-08-27T10:53:57.000Z</time>
      </trkpt>
      <trkpt lat="50.793612" lon="3.086524">
        <ele>15.075465</ele>
        <time>2023-08-27T10:54:01.000Z</time>
      </trkpt>
      <trkpt lat="50.792984" lon="3.087265">
        <ele>14.996535</ele>
        <time>2023-08-27T10:54:10.000Z</time>
      </trkpt>
      <trkpt lat="50.792901" lon="3.087351">
        <ele>14.986467</ele>
        <time>2023-08-27T10:54:11.000Z</time>
      </trkpt>
      <trkpt lat="50.792022" lon="3.088384">
        <ele>14.867125</ele>
        <time>2023-08-27T10:54:23.000Z</time>
      </trkpt>
      <trkpt lat="50.791626" lon="3.08877">
        <ele>14.767954</ele>
        <time>2023-08-27T10:54:28.000Z</time>
      </trkpt>
      <trkpt lat="50.791621" lon="3.088774">
        <ele>14.765519</ele>
        <time>2023-08-27T10:54:28.000Z</time>
      </trkpt>
      <trkpt lat="50.791604" lon="3.08879">
        <ele>14.759373</ele>
        <time>2023-08-27T10:54:28.000Z</time>
      </trkpt>
      <trkpt lat="50.791318" lon="3.089004">
        <ele>14.688647</ele>
        <time>2023-08-27T10:54:32.000Z</time>
      </trkpt>
      <trkpt lat="50.791169" lon="3.089118">
        <ele>14.651706</ele>
        <time>2023-08-27T10:54:34.000Z</time>
      </trkpt>
      <trkpt lat="50.790718" lon="3.089351">
        <ele>14.542378</ele>
        <time>2023-08-27T10:54:39.000Z</time>
      </trkpt>
      <trkpt lat="50.790274" lon="3.08953">
        <ele>14.449661</ele>
        <time>2023-08-27T10:54:44.000Z</time>
      </trkpt>
      <trkpt lat="50.789208" lon="3.089814">
        <ele>14.406475</ele>
        <time>2023-08-27T10:54:56.000Z</time>
      </trkpt>
      <trkpt lat="50.788826" lon="3.089935">
        <ele>14.390397</ele>
        <time>2023-08-27T10:55:00.000Z</time>
      </trkpt>
      <trkpt lat="50.788606" lon="3.089996">
        <ele>14.381296</ele>
        <time>2023-08-27T10:55:02.000Z</time>
      </trkpt>
      <trkpt lat="50.788436" lon="3.08933">
        <ele>14.440451</ele>
        <time>2023-08-27T10:55:07.000Z</time>
      </trkpt>
      <trkpt lat="50.788082" lon="3.087963">
        <ele>14.574951</ele>
        <time>2023-08-27T10:55:17.000Z</time>
      </trkpt>
      <trkpt lat="50.787664" lon="3.086209">
        <ele>14.589836</ele>
        <time>2023-08-27T10:55:30.000Z</time>
      </trkpt>
      <trkpt lat="50.787395" lon="3.084004">
        <ele>14.556684</ele>
        <time>2023-08-27T10:55:46.000Z</time>
      </trkpt>
      <trkpt lat="50.787271" lon="3.082946">
        <ele>14.629359</ele>
        <time>2023-08-27T10:55:54.000Z</time>
      </trkpt>
      <trkpt lat="50.786913" lon="3.08132">
        <ele>14.73447</ele>
        <time>2023-08-27T10:56:06.000Z</time>
      </trkpt>
      <trkpt lat="50.786476" lon="3.080454">
        <ele>14.787736</ele>
        <time>2023-08-27T10:56:14.000Z</time>
      </trkpt>
      <trkpt lat="50.786321" lon="3.080598">
        <ele>14.801508</ele>
        <time>2023-08-27T10:56:16.000Z</time>
      </trkpt>
      <trkpt lat="50.785993" lon="3.080834">
        <ele>14.828554</ele>
        <time>2023-08-27T10:56:20.000Z</time>
      </trkpt>
      <trkpt lat="50.785" lon="3.081345">
        <ele>14.767448</ele>
        <time>2023-08-27T10:56:32.000Z</time>
      </trkpt>
      <trkpt lat="50.784832" lon="3.081494">
        <ele>14.749931</ele>
        <time>2023-08-27T10:56:34.000Z</time>
      </trkpt>
      <trkpt lat="50.784807" lon="3.081525">
        <ele>14.746838</ele>
        <time>2023-08-27T10:56:34.000Z</time>
      </trkpt>
      <trkpt lat="50.784712" lon="3.081608">
        <ele>14.736006</ele>
        <time>2023-08-27T10:56:35.000Z</time>
      </trkpt>
      <trkpt lat="50.784589" lon="3.081837">
        <ele>14.71842</ele>
        <time>2023-08-27T10:56:37.000Z</time>
      </trkpt>
      <trkpt lat="50.784183" lon="3.082867">
        <ele>14.607613</ele>
        <time>2023-08-27T10:56:46.000Z</time>
      </trkpt>
      <trkpt lat="50.784126" lon="3.083076">
        <ele>14.576303</ele>
        <time>2023-08-27T10:56:48.000Z</time>
      </trkpt>
      <trkpt lat="50.784127" lon="3.083334">
        <ele>14.541586</ele>
        <time>2023-08-27T10:56:50.000Z</time>
      </trkpt>
      <trkpt lat="50.784406" lon="3.084366">
        <ele>14.389025</ele>
        <time>2023-08-27T10:56:58.000Z</time>
      </trkpt>
      <trkpt lat="50.784421" lon="3.084496">
        <ele>14.370817</ele>
        <time>2023-08-27T10:56:59.000Z</time>
      </trkpt>
      <trkpt lat="50.784366" lon="3.084612">
        <ele>14.351187</ele>
        <time>2023-08-27T10:57:00.000Z</time>
      </trkpt>
      <trkpt lat="50.783368" lon="3.085469">
        <ele>14.184126</ele>
        <time>2023-08-27T10:57:13.000Z</time>
      </trkpt>
      <trkpt lat="50.78227" lon="3.086157">
        <ele>13.996814</ele>
        <time>2023-08-27T10:57:26.000Z</time>
      </trkpt>
      <trkpt lat="50.782284" lon="3.086474">
        <ele>13.940326</ele>
        <time>2023-08-27T10:57:28.000Z</time>
      </trkpt>
      <trkpt lat="50.782261" lon="3.087">
        <ele>13.840457</ele>
        <time>2023-08-27T10:57:32.000Z</time>
      </trkpt>
      <trkpt lat="50.781613" lon="3.090616">
        <ele>12.783222</ele>
        <time>2023-08-27T10:57:58.000Z</time>
      </trkpt>
      <trkpt lat="50.781578" lon="3.091058">
        <ele>12.627443</ele>
        <time>2023-08-27T10:58:01.000Z</time>
      </trkpt>
      <trkpt lat="50.781561" lon="3.091514">
        <ele>12.488057</ele>
        <time>2023-08-27T10:58:04.000Z</time>
      </trkpt>
      <trkpt lat="50.781608" lon="3.092121">
        <ele>12.341903</ele>
        <time>2023-08-27T10:58:08.000Z</time>
      </trkpt>
      <trkpt lat="50.781729" lon="3.092819">
        <ele>12.170054</ele>
        <time>2023-08-27T10:58:13.000Z</time>
      </trkpt>
      <trkpt lat="50.782082" lon="3.094017">
        <ele>11.854121</ele>
        <time>2023-08-27T10:58:22.000Z</time>
      </trkpt>
      <trkpt lat="50.782418" lon="3.09504">
        <ele>11.888888</ele>
        <time>2023-08-27T10:58:30.000Z</time>
      </trkpt>
      <trkpt lat="50.782499" lon="3.095245">
        <ele>11.896294</ele>
        <time>2023-08-27T10:58:32.000Z</time>
      </trkpt>
      <trkpt lat="50.783791" lon="3.097579">
        <ele>12.154203</ele>
        <time>2023-08-27T10:58:54.000Z</time>
      </trkpt>
      <trkpt lat="50.784329" lon="3.098525">
        <ele>12.328069</ele>
        <time>2023-08-27T10:59:03.000Z</time>
      </trkpt>
      <trkpt lat="50.784444" lon="3.098748">
        <ele>12.396683</ele>
        <time>2023-08-27T10:59:05.000Z</time>
      </trkpt>
      <trkpt lat="50.785034" lon="3.099786">
        <ele>12.738407</ele>
        <time>2023-08-27T10:59:15.000Z</time>
      </trkpt>
      <trkpt lat="50.787194" lon="3.103666">
        <ele>14.493566</ele>
        <time>2023-08-27T10:59:51.000Z</time>
      </trkpt>
      <trkpt lat="50.787478" lon="3.104071">
        <ele>14.708531</ele>
        <time>2023-08-27T10:59:55.000Z</time>
      </trkpt>
      <trkpt lat="50.78839" lon="3.102476">
        <ele>15.20716</ele>
        <time>2023-08-27T11:00:10.000Z</time>
      </trkpt>
      <trkpt lat="50.78874" lon="3.102042">
        <ele>15.289696</ele>
        <time>2023-08-27T11:00:15.000Z</time>
      </trkpt>
      <trkpt lat="50.789577" lon="3.101267">
        <ele>15.310137</ele>
        <time>2023-08-27T11:00:26.000Z</time>
      </trkpt>
      <trkpt lat="50.789637" lon="3.101443">
        <ele>15.273294</ele>
        <time>2023-08-27T11:00:27.000Z</time>
      </trkpt>
      <trkpt lat="50.789918" lon="3.102244">
        <ele>15.097498</ele>
        <time>2023-08-27T11:00:33.000Z</time>
      </trkpt>
      <trkpt lat="50.790171" lon="3.102831">
        <ele>14.963135</ele>
        <time>2023-08-27T11:00:38.000Z</time>
      </trkpt>
      <trkpt lat="50.790584" lon="3.103546">
        <ele>14.7533</ele>
        <time>2023-08-27T11:00:45.000Z</time>
      </trkpt>
      <trkpt lat="50.790944" lon="3.104013">
        <ele>14.565188</ele>
        <time>2023-08-27T11:00:50.000Z</time>
      </trkpt>
      <trkpt lat="50.791515" lon="3.10448">
        <ele>14.313509</ele>
        <time>2023-08-27T11:00:57.000Z</time>
      </trkpt>
      <trkpt lat="50.791553" lon="3.104501">
        <ele>14.294409</ele>
        <time>2023-08-27T11:00:57.000Z</time>
      </trkpt>
      <trkpt lat="50.791702" lon="3.104595">
        <ele>14.22685</ele>
        <time>2023-08-27T11:00:59.000Z</time>
      </trkpt>
      <trkpt lat="50.792132" lon="3.104794">
        <ele>14.069136</ele>
        <time>2023-08-27T11:01:04.000Z</time>
      </trkpt>
      <trkpt lat="50.792596" lon="3.104931">
        <ele>13.913157</ele>
        <time>2023-08-27T11:01:09.000Z</time>
      </trkpt>
      <trkpt lat="50.793111" lon="3.10495">
        <ele>13.740379</ele>
        <time>2023-08-27T11:01:15.000Z</time>
      </trkpt>
      <trkpt lat="50.793303" lon="3.1049">
        <ele>13.677371</ele>
        <time>2023-08-27T11:01:17.000Z</time>
      </trkpt>
      <trkpt lat="50.793449" lon="3.106315">
        <ele>13.43841</ele>
        <time>2023-08-27T11:01:27.000Z</time>
      </trkpt>
      <trkpt lat="50.793492" lon="3.106672">
        <ele>13.387412</ele>
        <time>2023-08-27T11:01:30.000Z</time>
      </trkpt>
      <trkpt lat="50.793551" lon="3.107237">
        <ele>13.307961</ele>
        <time>2023-08-27T11:01:34.000Z</time>
      </trkpt>
      <trkpt lat="50.793595" lon="3.107655">
        <ele>13.249174</ele>
        <time>2023-08-27T11:01:37.000Z</time>
      </trkpt>
      <trkpt lat="50.793579" lon="3.107923">
        <ele>13.214101</ele>
        <time>2023-08-27T11:01:39.000Z</time>
      </trkpt>
      <trkpt lat="50.7935" lon="3.108248">
        <ele>13.165987</ele>
        <time>2023-08-27T11:01:41.000Z</time>
      </trkpt>
      <trkpt lat="50.793641" lon="3.108348">
        <ele>13.220799</ele>
        <time>2023-08-27T11:01:43.000Z</time>
      </trkpt>
      <trkpt lat="50.794003" lon="3.108622">
        <ele>13.37671</ele>
        <time>2023-08-27T11:01:47.000Z</time>
      </trkpt>
      <trkpt lat="50.794356" lon="3.108998">
        <ele>13.540795</ele>
        <time>2023-08-27T11:01:52.000Z</time>
      </trkpt>
      <trkpt lat="50.794629" lon="3.10931">
        <ele>13.672534</ele>
        <time>2023-08-27T11:01:56.000Z</time>
      </trkpt>
      <trkpt lat="50.794735" lon="3.109447">
        <ele>13.728455</ele>
        <time>2023-08-27T11:01:58.000Z</time>
      </trkpt>
      <trkpt lat="50.794782" lon="3.109504">
        <ele>13.749358</ele>
        <time>2023-08-27T11:01:59.000Z</time>
      </trkpt>
      <trkpt lat="50.795044" lon="3.109929">
        <ele>13.95476</ele>
        <time>2023-08-27T11:02:03.000Z</time>
      </trkpt>
      <trkpt lat="50.79517" lon="3.110201">
        <ele>14.197494</ele>
        <time>2023-08-27T11:02:05.000Z</time>
      </trkpt>
      <trkpt lat="50.795266" lon="3.110395">
        <ele>14.394202</ele>
        <time>2023-08-27T11:02:07.000Z</time>
      </trkpt>
      <trkpt lat="50.795908" lon="3.111">
        <ele>15.255043</ele>
        <time>2023-08-27T11:02:15.000Z</time>
      </trkpt>
      <trkpt lat="50.796059" lon="3.111154">
        <ele>15.460484</ele>
        <time>2023-08-27T11:02:17.000Z</time>
      </trkpt>
      <trkpt lat="50.796605" lon="3.111774">
        <ele>16.153219</ele>
        <time>2023-08-27T11:02:24.000Z</time>
      </trkpt>
      <trkpt lat="50.797024" lon="3.112251">
        <ele>16.590389</ele>
        <time>2023-08-27T11:02:30.000Z</time>
      </trkpt>
      <trkpt lat="50.798056" lon="3.113317">
        <ele>17.525561</ele>
        <time>2023-08-27T11:02:44.000Z</time>
      </trkpt>
      <trkpt lat="50.7983" lon="3.113544">
        <ele>17.651601</ele>
        <time>2023-08-27T11:02:47.000Z</time>
      </trkpt>
      <trkpt lat="50.797162" lon="3.115611">
        <ele>18.346569</ele>
        <time>2023-08-27T11:03:06.000Z</time>
      </trkpt>
      <trkpt lat="50.797123" lon="3.115834">
        <ele>18.377946</ele>
        <time>2023-08-27T11:03:08.000Z</time>
      </trkpt>
      <trkpt lat="50.797023" lon="3.115843">
        <ele>18.396791</ele>
        <time>2023-08-27T11:03:09.000Z</time>
      </trkpt>
      <trkpt lat="50.796761" lon="3.115813">
        <ele>18.454672</ele>
        <time>2023-08-27T11:03:12.000Z</time>
      </trkpt>
      <trkpt lat="50.796668" lon="3.115951">
        <ele>18.481783</ele>
        <time>2023-08-27T11:03:13.000Z</time>
      </trkpt>
      <trkpt lat="50.796584" lon="3.116244">
        <ele>18.526202</ele>
        <time>2023-08-27T11:03:15.000Z</time>
      </trkpt>
      <trkpt lat="50.796532" lon="3.117038">
        <ele>18.635241</ele>
        <time>2023-08-27T11:03:21.000Z</time>
      </trkpt>
      <trkpt lat="50.796534" lon="3.117548">
        <ele>18.6391</ele>
        <time>2023-08-27T11:03:25.000Z</time>
      </trkpt>
      <trkpt lat="50.796531" lon="3.117657">
        <ele>18.637199</ele>
        <time>2023-08-27T11:03:26.000Z</time>
      </trkpt>
      <trkpt lat="50.796438" lon="3.11883">
        <ele>18.616004</ele>
        <time>2023-08-27T11:03:34.000Z</time>
      </trkpt>
      <trkpt lat="50.79629" lon="3.119564">
        <ele>18.602339</ele>
        <time>2023-08-27T11:03:39.000Z</time>
      </trkpt>
      <trkpt lat="50.796204" lon="3.119987">
        <ele>18.560387</ele>
        <time>2023-08-27T11:03:42.000Z</time>
      </trkpt>
      <trkpt lat="50.796182" lon="3.120317">
        <ele>18.381203</ele>
        <time>2023-08-27T11:03:44.000Z</time>
      </trkpt>
      <trkpt lat="50.796178" lon="3.120635">
        <ele>18.204396</ele>
        <time>2023-08-27T11:03:46.000Z</time>
      </trkpt>
      <trkpt lat="50.796176" lon="3.121395">
        <ele>17.808325</ele>
        <time>2023-08-27T11:03:51.000Z</time>
      </trkpt>
      <trkpt lat="50.796219" lon="3.121546">
        <ele>17.723272</ele>
        <time>2023-08-27T11:03:52.000Z</time>
      </trkpt>
      <trkpt lat="50.796024" lon="3.121631">
        <ele>17.559259</ele>
        <time>2023-08-27T11:03:54.000Z</time>
      </trkpt>
      <trkpt lat="50.795673" lon="3.121822">
        <ele>17.243996</ele>
        <time>2023-08-27T11:03:58.000Z</time>
      </trkpt>
      <trkpt lat="50.79536" lon="3.12198">
        <ele>16.885724</ele>
        <time>2023-08-27T11:04:02.000Z</time>
      </trkpt>
      <trkpt lat="50.795115" lon="3.1221">
        <ele>16.491234</ele>
        <time>2023-08-27T11:04:05.000Z</time>
      </trkpt>
      <trkpt lat="50.794708" lon="3.122173">
        <ele>15.870307</ele>
        <time>2023-08-27T11:04:10.000Z</time>
      </trkpt>
      <trkpt lat="50.794444" lon="3.122221">
        <ele>15.464236</ele>
        <time>2023-08-27T11:04:13.000Z</time>
      </trkpt>
      <trkpt lat="50.794376" lon="3.122255">
        <ele>15.376215</ele>
        <time>2023-08-27T11:04:14.000Z</time>
      </trkpt>
      <trkpt lat="50.794113" lon="3.122343">
        <ele>14.948305</ele>
        <time>2023-08-27T11:04:17.000Z</time>
      </trkpt>
      <trkpt lat="50.794473" lon="3.123487">
        <ele>13.841044</ele>
        <time>2023-08-27T11:04:26.000Z</time>
      </trkpt>
      <trkpt lat="50.794568" lon="3.123768">
        <ele>13.611746</ele>
        <time>2023-08-27T11:04:28.000Z</time>
      </trkpt>
      <trkpt lat="50.794589" lon="3.123994">
        <ele>13.43242</ele>
        <time>2023-08-27T11:04:30.000Z</time>
      </trkpt>
      <trkpt lat="50.794569" lon="3.124696">
        <ele>12.904281</ele>
        <time>2023-08-27T11:04:35.000Z</time>
      </trkpt>
      <trkpt lat="50.79455" lon="3.124807">
        <ele>12.808389</ele>
        <time>2023-08-27T11:04:36.000Z</time>
      </trkpt>
      <trkpt lat="50.794537" lon="3.124935">
        <ele>12.713887</ele>
        <time>2023-08-27T11:04:37.000Z</time>
      </trkpt>
      <trkpt lat="50.79401" lon="3.12482">
        <ele>12.1093476079</ele>
        <time>2023-08-27T11:04:43.000Z</time>
      </trkpt>
      <trkpt lat="50.793657" lon="3.124788">
        <ele>11.707549554</ele>
        <time>2023-08-27T11:04:47.000Z</time>
      </trkpt>
      <trkpt lat="50.793627" lon="3.124777">
        <ele>11.6725546234</ele>
        <time>2023-08-27T11:04:47.000Z</time>
      </trkpt>
      <trkpt lat="50.793582" lon="3.124814">
        <ele>11.6149234095</ele>
        <time>2023-08-27T11:04:48.000Z</time>
      </trkpt>
      <trkpt lat="50.793582" lon="3.124818">
        <ele>11.6120501283</ele>
        <time>2023-08-27T11:04:48.000Z</time>
      </trkpt>
      <trkpt lat="50.79357" lon="3.124826">
        <ele>11.597252264</ele>
        <time>2023-08-27T11:04:48.000Z</time>
      </trkpt>
      <trkpt lat="50.793423" lon="3.124938">
        <ele>11.4118413152</ele>
        <time>2023-08-27T11:04:50.000Z</time>
      </trkpt>
      <trkpt lat="50.793415" lon="3.12494">
        <ele>11.402637507</ele>
        <time>2023-08-27T11:04:50.000Z</time>
      </trkpt>
      <trkpt lat="50.793407" lon="3.124942">
        <ele>11.3934336988</ele>
        <time>2023-08-27T11:04:50.000Z</time>
      </trkpt>
      <trkpt lat="50.793512" lon="3.125675">
        <ele>10.8535530674</ele>
        <time>2023-08-27T11:04:55.000Z</time>
      </trkpt>
      <trkpt lat="50.793621" lon="3.126408">
        <ele>10.3126508405</ele>
        <time>2023-08-27T11:05:00.000Z</time>
      </trkpt>
    </trkseg>
  </trk>
</gpx>

<!--
Performance optimized by W3 Total Cache. Learn more: https://www.boldgrid.com/w3-total-cache/?utm_source=w3tc&utm_medium=footer_comment&utm_campaign=free_plugin

Page Caching using Disk: Enhanced{w3tc_pagecache_reject_reason} 

Served from: www.aquabike.world @ 2026-05-07 15:16:10 by W3 Total Cache
-->